[[{"header":{"parameterUnit":"m.s-1","parameterCategory":1,"la1":31.0,"la2":29.5877,"lo1":-88.7671,"lo2":-86.6584,"dy":0.0162,"dx":0.0185,"nx":115,"ny":88,"refTime":"2024-07-05T06:00:00:Z","depth":0,"parameterNumber":2,"parameterNumberName":"U-component_of_WINDS"},"data":[0.0,0.0,0.0,0.0,0.0,0.0,0.0,0.0,0.0,0.0,0.0,0.0,0.0,0.0,0.0,0.0,0.0,0.0,0.0,0.0,0.0,0.0,0.0,0.0,0.0,0.0,0.0,0.0,0.0,0.0,0.0,0.0,0.0,0.0,0.0,0.0,0.0,0.0,0.0,0.0,0.0,0.0,0.0,0.0,0.0,0.0,0.0,0.0,0.0,0.0,0.0,0.0,0.0,0.0,0.0,0.0,0.0,0.0,0.0,0.0,0.0,0.0,0.0,0.0,0.0,0.0,0.0,0.0,0.0,0.0,0.0,0.0,0.0,0.0,0.0,0.0,0.0,0.0,0.0,0.0,0.0,0.0,0.0,0.0,0.0,0.0,0.0,0.0,0.0,0.0,0.0,0.0,0.0,0.0,0.0,0.0,0.0,0.0,0.0,0.0,0.0,0.0,0.0,0.0,0.0,0.0,0.0,0.0,0.0,0.0,0.0,0.0,0.0,0.0,0.0,0.0,0.0,0.0,0.0,0.0,0.0,0.0,0.0,0.0,0.0,0.0,0.0,0.0,0.0,0.0,0.0,0.0,0.0,0.0,0.0,0.0,0.0,0.0,0.0,0.0,0.0,0.0,0.0,0.0,0.0,0.0,0.0,0.0,0.0,0.0,0.0,0.0,0.0,0.0,0.0,0.0,0.0,0.0,0.0,0.0,0.0,0.0,0.0,0.0,0.0,0.0,0.0,0.0,0.0,0.0,0.0,0.0,0.0,0.0,0.0,0.0,0.0,0.0,0.0,0.0,0.0,0.0,0.0,0.0,0.0,0.0,0.0,0.0,0.0,0.0,0.0,0.0,0.0,0.0,0.0,0.0,0.0,0.0,0.0,0.0,0.0,0.0,0.0,0.0,0.0,0.0,0.0,0.0,0.0,0.0,0.0,0.0,0.0,0.0,0.0,0.0,0.0,0.0,0.0,0.0,0.0,0.0,0.0,0.0,0.0,0.0,0.0,0.0,0.0,0.0,0.0,0.0,0.0,0.0,0.0,0.0,0.0,0.0,0.0,0.0,0.0,0.0,0.0,0.0,0.0,0.0,0.0,0.0,0.0,0.0,0.0,0.0,0.0,0.0,0.0,0.0,0.0,0.0,0.0,0.0,0.0,0.0,0.0,0.0,0.0,0.0,0.0,0.0,0.0,0.0,0.0,0.0,0.0,0.0,0.0,0.0,0.0,0.0,0.0,0.0,0.0,0.0,0.0,0.0,0.0,0.0,0.0,0.0,0.0,0.0,0.0,0.0,0.0,0.0,0.0,0.0,0.0,0.0,0.0,0.0,0.0,0.0,0.0,0.0,0.0,0.0,0.0,0.0,0.0,0.0,0.0,0.0,0.0,0.0,0.0,0.0,0.0,0.0,0.0,0.0,0.0,0.0,0.0,0.0,0.0,0.0,0.0,0.0,0.0,0.0,0.0,0.0,0.0,0.0,0.0,0.0,0.0,0.0,0.0,0.0,0.0,0.0,0.0,0.0,0.0,0.0,0.0,0.0,0.0,0.0,0.0,0.0,0.0,0.0,0.0,0.0,0.0,0.0,0.0,0.0,0.0,0.0,0.0,0.0,0.0,0.0,0.0,0.0,0.0,0.0,0.0,0.0,0.0,0.0,0.0,0.0,0.0,0.0,0.0,0.0,0.0,0.0,0.0,0.0,0.0,0.0,0.0,0.0,0.0,0.0,0.0,0.0,0.0,0.0,0.0,0.0,0.0,0.0,0.0,0.0,0.0,0.0,0.0,0.0,0.0,0.0,0.0,0.0,0.0,0.0,0.0,0.0,0.0,0.0,0.0,0.0,0.0,0.0,0.0,0.0,0.0,0.0,0.0,0.0,0.0,0.0,0.0,0.0,0.0,0.0,0.0,0.0,0.0,0.0,0.0,0.0,0.0,0.0,0.0,0.0,0.0,0.0,0.0,0.0,0.0,0.0,0.0,0.0,0.0,0.0,0.0,0.0,0.0,0.0,0.0,0.0,0.0,0.0,0.0,0.0,0.0,0.0,0.0,0.0,0.0,0.0,0.0,0.0,0.0,0.0,0.0,0.0,0.0,0.0,0.0,0.0,0.0,0.0,0.0,0.0,0.0,0.0,0.0,0.0,0.0,0.0,0.0,0.0,0.0,0.0,0.0,0.0,0.0,0.0,0.0,0.0,0.0,0.0,0.0,0.0,0.0,0.0,0.0,0.0,0.0,0.0,0.0,0.0,0.0,0.0,0.0,0.0,0.0,0.0,0.0,0.0,0.0,0.0,0.0,0.0,0.0,0.0,0.0,0.0,0.0,0.0,0.0,0.0,0.0,0.0,0.0,0.0,0.0,0.0,0.0,0.0,0.0,0.0,0.0,0.0,0.0,0.0,0.0,0.0,0.0,0.0,0.0,0.0,0.0,0.0,0.0,0.0,0.0,0.0,0.0,0.0,0.0,0.0,0.0,0.0,0.0,0.0,0.0,0.0,0.0,0.0,0.0,0.0,0.0,0.0,0.0,0.0,0.0,0.0,0.0,0.0,0.0,0.0,0.0,0.0,0.0,0.0,0.0,0.0,0.0,0.0,0.0,0.0,0.0,0.0,0.0,0.0,0.0,0.0,0.0,0.0,0.0,0.0,0.0,0.0,0.0,0.0,0.0,0.0,0.0,0.0,0.0,0.0,0.0,0.0,0.0,0.0,0.0,0.0,0.0,0.0,0.0,0.0,0.0,0.0,0.0,0.0,0.0,0.0,0.0,0.0,0.0,0.0,0.0,0.0,0.0,0.0,0.0,0.0,0.0,0.0,0.0,0.0,0.0,0.0,0.0,0.0,0.0,0.0,0.0,0.0,0.0,0.0,0.0,0.0,0.0,0.0,0.0,0.0,0.0,0.0,0.0,0.0,0.0,0.0,0.0,0.0,0.0,0.0,0.0,0.0,0.0,0.0,0.0,0.0,0.0,0.0,0.0,0.0,0.0,0.0,0.0,0.0,0.0,0.0,0.0,0.0,0.0,0.0,0.0,0.0,0.0,0.0,0.0,0.0,0.0,0.0,0.0,0.0,0.0,0.0,0.0,0.0,0.0,0.0,0.0,0.0,0.0,0.0,0.0,0.0,0.0,0.0,0.0,0.0,0.0,0.0,0.0,0.0,0.0,0.0,0.0,0.0,0.0,0.0,0.0,0.0,0.0,0.0,0.0,0.0,0.0,0.0,0.0,0.0,0.0,0.0,0.0,0.0,0.0,0.0,0.0,0.0,0.0,0.0,0.0,0.0,0.0,0.0,0.0,0.0,0.0,0.0,0.0,0.0,0.0,0.0,0.0,0.0,0.0,0.0,0.0,0.0,0.0,0.0,0.0,0.0,0.0,0.0,0.0,0.0,0.0,0.0,0.0,0.0,0.0,0.0,0.0,0.0,0.0,0.0,0.0,0.0,0.0,0.0,0.0,0.0,0.0,0.0,0.0,0.0,0.0,0.0,0.0,0.0,0.0,0.0,0.0,0.0,0.0,0.0,0.0,0.0,0.0,0.0,0.0,0.0,0.0,0.0,0.0,0.0,0.0,0.0,0.0,0.0,0.0,0.0,0.0,0.0,0.0,0.0,0.0,0.0,0.0,0.0,0.0,0.0,0.0,0.0,0.0,0.0,0.0,0.0,0.0,0.0,0.0,0.0,0.0,0.0,0.0,0.0,0.0,0.0,0.0,0.0,0.0,0.0,0.0,0.0,0.0,0.0,0.0,0.0,0.0,0.0,0.0,0.0,0.0,0.0,0.0,0.0,0.0,0.0,0.0,0.0,0.0,0.0,0.0,0.0,0.0,0.0,0.0,0.0,0.0,0.0,0.0,0.0,0.0,0.0,0.0,0.0,0.0,0.0,0.0,0.0,0.0,0.0,0.0,0.0,0.0,0.0,0.0,0.0,0.0,0.0,0.0,0.0,0.0,0.0,0.0,0.0,0.0,0.0,0.0,0.0,0.0,0.0,0.0,0.0,0.0,0.0,0.0,0.0,0.0,0.0,0.0,0.0,0.0,0.0,0.0,0.0,0.0,0.0,0.0,0.0,0.0,0.0,0.0,0.0,0.0,0.0,0.0,0.0,0.0,0.0,0.0,0.0,0.0,0.0,0.0,0.0,0.0,0.0,0.0,0.0,0.0,0.0,0.0,0.0,0.0,0.0,0.0,0.0,0.0,0.0,0.0,0.0,0.0,0.0,0.0,0.0,0.0,0.0,0.0,0.0,0.0,0.0,0.0,0.0,0.0,0.0,-3.1869,0.0,0.0,0.0,0.0,0.0,0.0,0.0,0.0,0.0,0.0,0.0,0.0,0.0,0.0,0.0,0.0,0.0,0.0,0.0,0.0,0.0,0.0,0.0,0.0,0.0,0.0,0.0,0.0,0.0,0.0,0.0,0.0,0.0,0.0,0.0,0.0,0.0,0.0,0.0,0.0,0.0,0.0,0.0,0.0,0.0,0.0,0.0,0.0,0.0,0.0,0.0,0.0,0.0,0.0,0.0,0.0,0.0,0.0,0.0,0.0,0.0,0.0,0.0,0.0,0.0,0.0,0.0,0.0,0.0,0.0,0.0,0.0,0.0,0.0,0.0,0.0,0.0,0.0,0.0,0.0,0.0,0.0,0.0,0.0,0.0,0.0,0.0,0.0,0.0,0.0,0.0,0.0,0.0,0.0,0.0,0.0,0.0,0.0,0.0,0.0,0.0,0.0,0.0,0.0,0.0,0.0,0.0,0.0,0.0,0.0,-3.4306,-3.3637,-3.3978,-3.3706,-3.2628,0.0,0.0,0.0,0.0,0.0,0.0,0.0,0.0,0.0,0.0,0.0,0.0,0.0,0.0,0.0,0.0,0.0,0.0,0.0,0.0,0.0,0.0,0.0,0.0,0.0,0.0,0.0,0.0,0.0,0.0,0.0,0.0,0.0,0.0,0.0,0.0,0.0,0.0,0.0,0.0,0.0,0.0,0.0,0.0,0.0,0.0,0.0,0.0,0.0,0.0,0.0,0.0,0.0,0.0,0.0,0.0,0.0,0.0,0.0,0.0,0.0,0.0,0.0,0.0,0.0,0.0,0.0,0.0,0.0,0.0,0.0,0.0,0.0,0.0,0.0,0.0,0.0,0.0,0.0,0.0,0.0,0.0,0.0,0.0,0.0,0.0,0.0,0.0,0.0,0.0,0.0,0.0,0.0,0.0,0.0,0.0,0.0,0.0,0.0,0.0,0.0,0.0,0.0,0.0,0.0,0.0,0.0,0.0,0.0,0.0,0.0,0.0,-3.4582,-3.4261,-3.3088,0.0,0.0,0.0,0.0,0.0,0.0,0.0,0.0,0.0,0.0,0.0,0.0,0.0,0.0,0.0,0.0,0.0,0.0,0.0,0.0,0.0,0.0,0.0,0.0,0.0,0.0,0.0,0.0,0.0,0.0,0.0,0.0,0.0,0.0,0.0,0.0,0.0,0.0,0.0,0.0,0.0,0.0,0.0,0.0,0.0,0.0,0.0,0.0,0.0,0.0,0.0,0.0,0.0,0.0,0.0,0.0,0.0,0.0,0.0,0.0,0.0,0.0,0.0,0.0,0.0,0.0,0.0,0.0,0.0,0.0,0.0,0.0,0.0,0.0,0.0,0.0,0.0,0.0,0.0,0.0,0.0,0.0,0.0,0.0,0.0,0.0,0.0,0.0,0.0,0.0,0.0,0.0,0.0,0.0,0.0,0.0,0.0,0.0,0.0,0.0,0.0,0.0,0.0,0.0,0.0,0.0,0.0,0.0,0.0,0.0,-3.5542,-3.6032,-3.5224,0.0,-3.2948,0.0,0.0,0.0,0.0,0.0,0.0,0.0,0.0,0.0,0.0,0.0,0.0,0.0,0.0,0.0,0.0,0.0,0.0,0.0,0.0,0.0,0.0,0.0,0.0,0.0,0.0,0.0,0.0,0.0,0.0,0.0,0.0,0.0,0.0,0.0,0.0,0.0,0.0,0.0,0.0,0.0,0.0,0.0,0.0,0.0,0.0,0.0,0.0,0.0,0.0,0.0,0.0,0.0,0.0,0.0,0.0,0.0,0.0,0.0,0.0,0.0,0.0,0.0,0.0,0.0,0.0,0.0,0.0,0.0,0.0,0.0,0.0,0.0,0.0,0.0,0.0,0.0,0.0,0.0,0.0,0.0,0.0,0.0,0.0,0.0,0.0,0.0,0.0,0.0,0.0,0.0,0.0,0.0,0.0,0.0,0.0,0.0,0.0,0.0,0.0,0.0,0.0,0.0,0.0,0.0,0.0,0.0,0.0,0.0,0.0,-3.6574,-3.6317,-3.5217,-3.4333,0.0,0.0,0.0,0.0,0.0,0.0,0.0,0.0,0.0,0.0,0.0,0.0,0.0,0.0,0.0,0.0,0.0,0.0,0.0,0.0,0.0,0.0,0.0,0.0,0.0,0.0,0.0,0.0,0.0,0.0,0.0,0.0,0.0,0.0,0.0,0.0,0.0,0.0,0.0,0.0,0.0,0.0,0.0,0.0,0.0,0.0,0.0,0.0,0.0,0.0,0.0,0.0,0.0,0.0,0.0,0.0,0.0,0.0,0.0,0.0,0.0,0.0,0.0,0.0,0.0,0.0,0.0,0.0,0.0,0.0,0.0,0.0,0.0,0.0,0.0,0.0,0.0,0.0,0.0,0.0,0.0,0.0,0.0,0.0,0.0,0.0,0.0,0.0,0.0,0.0,0.0,0.0,0.0,0.0,0.0,0.0,0.0,0.0,0.0,0.0,0.0,0.0,0.0,0.0,0.0,0.0,0.0,0.0,0.0,0.0,-3.7224,-3.7315,-3.6556,-3.5439,-3.465,-3.4207,0.0,0.0,0.0,0.0,0.0,0.0,0.0,0.0,0.0,0.0,0.0,0.0,0.0,0.0,0.0,0.0,0.0,0.0,0.0,0.0,0.0,0.0,0.0,0.0,0.0,0.0,0.0,0.0,0.0,0.0,0.0,0.0,0.0,0.0,0.0,0.0,0.0,0.0,0.0,0.0,0.0,0.0,0.0,0.0,0.0,0.0,0.0,0.0,0.0,0.0,0.0,0.0,0.0,0.0,0.0,0.0,0.0,0.0,0.0,0.0,0.0,0.0,0.0,0.0,0.0,0.0,0.0,0.0,0.0,0.0,0.0,0.0,0.0,0.0,0.0,0.0,0.0,0.0,0.0,0.0,0.0,0.0,0.0,0.0,0.0,0.0,0.0,0.0,0.0,0.0,0.0,0.0,0.0,0.0,0.0,0.0,0.0,0.0,0.0,0.0,0.0,0.0,0.0,0.0,0.0,0.0,0.0,0.0,-3.7891,-3.7812,-3.7529,-3.7158,-3.6256,-3.5273,0.0,0.0,0.0,0.0,0.0,0.0,0.0,0.0,0.0,0.0,0.0,0.0,0.0,0.0,0.0,0.0,0.0,0.0,0.0,0.0,0.0,0.0,0.0,0.0,0.0,0.0,0.0,0.0,0.0,0.0,0.0,0.0,0.0,0.0,0.0,0.0,0.0,0.0,0.0,0.0,0.0,0.0,0.0,0.0,0.0,0.0,0.0,0.0,0.0,0.0,0.0,0.0,0.0,0.0,0.0,0.0,0.0,0.0,0.0,0.0,0.0,0.0,0.0,0.0,0.0,0.0,0.0,0.0,0.0,0.0,0.0,0.0,0.0,0.0,0.0,0.0,0.0,0.0,0.0,0.0,0.0,0.0,0.0,0.0,0.0,0.0,0.0,0.0,0.0,0.0,0.0,0.0,0.0,0.0,0.0,0.0,0.0,0.0,0.0,0.0,0.0,0.0,0.0,0.0,0.0,0.0,0.0,0.0,0.0,-3.7928,-3.8266,-3.8275,-3.7961,-3.7055,-3.6065,0.0,0.0,0.0,0.0,0.0,0.0,0.0,0.0,0.0,0.0,0.0,0.0,0.0,0.0,0.0,0.0,0.0,0.0,0.0,0.0,0.0,0.0,0.0,0.0,0.0,0.0,0.0,0.0,0.0,0.0,0.0,0.0,0.0,0.0,0.0,0.0,0.0,0.0,0.0,0.0,0.0,0.0,0.0,0.0,0.0,0.0,0.0,0.0,0.0,0.0,0.0,0.0,0.0,0.0,0.0,0.0,0.0,0.0,0.0,0.0,0.0,0.0,0.0,0.0,0.0,0.0,0.0,0.0,0.0,0.0,0.0,0.0,0.0,0.0,0.0,0.0,0.0,0.0,0.0,0.0,0.0,0.0,0.0,0.0,0.0,0.0,0.0,0.0,0.0,0.0,0.0,0.0,0.0,0.0,0.0,0.0,0.0,0.0,0.0,0.0,0.0,0.0,0.0,0.0,0.0,0.0,0.0,0.0,0.0,-3.8201,0.0,-3.8683,-3.838,-3.7509,-3.6533,0.0,0.0,0.0,0.0,0.0,0.0,0.0,0.0,0.0,0.0,0.0,0.0,0.0,0.0,0.0,0.0,0.0,0.0,0.0,0.0,0.0,0.0,0.0,0.0,0.0,0.0,0.0,0.0,0.0,0.0,0.0,0.0,0.0,0.0,0.0,0.0,0.0,0.0,0.0,0.0,0.0,0.0,0.0,0.0,0.0,0.0,0.0,0.0,0.0,0.0,0.0,0.0,0.0,0.0,0.0,0.0,0.0,0.0,0.0,0.0,0.0,0.0,0.0,0.0,0.0,0.0,0.0,0.0,0.0,0.0,0.0,0.0,0.0,0.0,0.0,0.0,0.0,0.0,0.0,0.0,0.0,0.0,0.0,0.0,0.0,0.0,0.0,0.0,0.0,0.0,0.0,0.0,0.0,0.0,0.0,0.0,0.0,0.0,0.0,0.0,0.0,0.0,0.0,0.0,0.0,0.0,0.0,0.0,-3.8307,-3.8888,-3.8892,-3.8778,-3.8399,-3.7564,-3.657,0.0,0.0,0.0,0.0,0.0,0.0,0.0,0.0,0.0,0.0,0.0,0.0,0.0,0.0,0.0,0.0,0.0,0.0,0.0,0.0,0.0,0.0,0.0,0.0,0.0,0.0,0.0,0.0,0.0,0.0,0.0,0.0,0.0,0.0,0.0,0.0,0.0,0.0,0.0,0.0,0.0,0.0,0.0,0.0,0.0,0.0,0.0,0.0,0.0,0.0,0.0,0.0,0.0,0.0,0.0,0.0,0.0,0.0,0.0,0.0,0.0,0.0,0.0,0.0,0.0,0.0,0.0,0.0,0.0,0.0,0.0,0.0,0.0,0.0,0.0,0.0,0.0,0.0,0.0,0.0,0.0,0.0,0.0,0.0,0.0,0.0,0.0,0.0,0.0,0.0,0.0,0.0,0.0,0.0,0.0,0.0,0.0,0.0,0.0,0.0,0.0,0.0,0.0,0.0,0.0,0.0,0.0,0.0,0.0,-3.9651,-4.0044,-3.9916,-3.9258,-3.8768,-3.7805,0.0,0.0,0.0,0.0,0.0,0.0,0.0,0.0,0.0,0.0,0.0,0.0,0.0,0.0,0.0,0.0,0.0,0.0,0.0,0.0,0.0,0.0,0.0,0.0,0.0,0.0,0.0,0.0,0.0,0.0,0.0,0.0,0.0,0.0,0.0,0.0,0.0,0.0,0.0,0.0,0.0,0.0,0.0,0.0,0.0,0.0,0.0,0.0,0.0,0.0,0.0,0.0,0.0,0.0,0.0,0.0,0.0,0.0,0.0,0.0,0.0,0.0,0.0,0.0,0.0,0.0,0.0,0.0,0.0,0.0,0.0,0.0,0.0,0.0,0.0,0.0,0.0,0.0,0.0,0.0,0.0,0.0,0.0,0.0,0.0,0.0,0.0,0.0,0.0,0.0,0.0,0.0,0.0,0.0,0.0,0.0,0.0,0.0,0.0,0.0,0.0,0.0,0.0,0.0,0.0,0.0,0.0,0.0,0.0,-4.0827,-4.0881,-4.0637,-4.0042,-3.9495,-3.8491,-3.7058,0.0,0.0,0.0,0.0,0.0,0.0,0.0,0.0,0.0,0.0,0.0,0.0,0.0,0.0,0.0,0.0,0.0,0.0,0.0,0.0,0.0,0.0,0.0,0.0,0.0,0.0,0.0,0.0,0.0,0.0,0.0,0.0,0.0,0.0,0.0,0.0,0.0,0.0,0.0,0.0,0.0,0.0,0.0,0.0,0.0,0.0,0.0,0.0,0.0,0.0,0.0,0.0,0.0,0.0,0.0,0.0,0.0,0.0,0.0,0.0,0.0,0.0,0.0,0.0,0.0,0.0,0.0,0.0,0.0,0.0,0.0,0.0,0.0,0.0,0.0,0.0,0.0,0.0,0.0,0.0,0.0,0.0,0.0,0.0,0.0,0.0,0.0,0.0,0.0,0.0,0.0,0.0,0.0,0.0,0.0,0.0,0.0,0.0,0.0,0.0,0.0,0.0,0.0,0.0,0.0,0.0,0.0,0.0,-4.2359,-4.147,-4.1002,-4.0863,-3.9822,-3.8797,0.0,0.0,0.0,0.0,0.0,0.0,0.0,0.0,0.0,0.0,0.0,0.0,0.0,0.0,0.0,0.0,0.0,0.0,0.0,0.0,0.0,0.0,0.0,0.0,0.0,0.0,0.0,0.0,0.0,0.0,0.0,0.0,0.0,0.0,0.0,0.0,0.0,0.0,0.0,0.0,0.0,0.0,0.0,0.0,0.0,0.0,0.0,0.0,0.0,0.0,0.0,0.0,0.0,0.0,0.0,0.0,0.0,0.0,0.0,0.0,0.0,0.0,0.0,0.0,0.0,0.0,0.0,0.0,0.0,0.0,0.0,0.0,0.0,0.0,0.0,0.0,0.0,0.0,0.0,0.0,0.0,0.0,0.0,0.0,0.0,0.0,0.0,0.0,0.0,0.0,0.0,0.0,0.0,0.0,0.0,0.0,0.0,0.0,0.0,0.0,0.0,0.0,0.0,0.0,0.0,0.0,0.0,0.0,0.0,-4.3094,-4.2791,-4.2302,-4.1701,-4.0601,-3.9535,0.0,0.0,0.0,0.0,0.0,0.0,0.0,0.0,0.0,0.0,0.0,0.0,0.0,0.0,0.0,0.0,0.0,0.0,0.0,0.0,0.0,0.0,0.0,0.0,0.0,0.0,0.0,0.0,0.0,0.0,0.0,0.0,0.0,0.0,0.0,0.0,0.0,0.0,0.0,0.0,0.0,0.0,0.0,0.0,0.0,0.0,0.0,0.0,0.0,0.0,0.0,0.0,0.0,0.0,0.0,0.0,0.0,0.0,0.0,0.0,0.0,0.0,0.0,0.0,0.0,0.0,0.0,0.0,0.0,0.0,0.0,0.0,0.0,0.0,0.0,0.0,0.0,0.0,0.0,0.0,0.0,0.0,0.0,0.0,0.0,0.0,0.0,0.0,0.0,0.0,0.0,0.0,0.0,0.0,0.0,0.0,0.0,0.0,0.0,0.0,0.0,0.0,0.0,0.0,0.0,0.0,0.0,0.0,-4.2196,-4.3427,-4.3286,-4.2941,-4.2396,-4.1341,-4.0305,0.0,0.0,0.0,0.0,0.0,0.0,0.0,0.0,0.0,0.0,0.0,0.0,0.0,0.0,0.0,0.0,0.0,0.0,0.0,0.0,0.0,0.0,0.0,0.0,0.0,0.0,0.0,0.0,0.0,0.0,0.0,0.0,0.0,0.0,0.0,0.0,0.0,0.0,0.0,0.0,0.0,0.0,0.0,0.0,0.0,0.0,0.0,0.0,0.0,0.0,0.0,0.0,0.0,0.0,0.0,0.0,0.0,0.0,0.0,0.0,0.0,0.0,0.0,0.0,0.0,0.0,0.0,0.0,0.0,0.0,0.0,0.0,0.0,0.0,0.0,0.0,0.0,0.0,0.0,0.0,0.0,0.0,0.0,0.0,0.0,0.0,0.0,0.0,0.0,0.0,0.0,0.0,0.0,0.0,0.0,0.0,0.0,0.0,0.0,0.0,0.0,0.0,0.0,0.0,0.0,0.0,0.0,0.0,-4.2657,-4.3375,-4.3251,-4.3087,-4.2883,-4.1933,-4.0949,0.0,0.0,0.0,0.0,0.0,0.0,0.0,0.0,0.0,0.0,0.0,0.0,0.0,0.0,0.0,0.0,0.0,0.0,0.0,0.0,0.0,0.0,0.0,0.0,0.0,0.0,0.0,0.0,0.0,0.0,0.0,0.0,0.0,0.0,0.0,0.0,0.0,0.0,0.0,0.0,0.0,0.0,0.0,0.0,0.0,0.0,0.0,0.0,0.0,0.0,0.0,0.0,0.0,0.0,0.0,0.0,0.0,0.0,0.0,0.0,0.0,0.0,0.0,0.0,0.0,0.0,0.0,0.0,0.0,0.0,0.0,0.0,0.0,0.0,0.0,0.0,0.0,0.0,0.0,0.0,0.0,0.0,0.0,0.0,0.0,0.0,0.0,0.0,0.0,0.0,0.0,0.0,0.0,0.0,0.0,0.0,0.0,0.0,0.0,0.0,0.0,0.0,0.0,0.0,0.0,0.0,0.0,0.0,-4.2607,-4.3358,-4.3233,-4.3068,-4.2901,-4.1933,-4.0893,0.0,0.0,0.0,0.0,0.0,0.0,0.0,0.0,0.0,0.0,0.0,0.0,0.0,0.0,0.0,0.0,0.0,0.0,0.0,0.0,0.0,0.0,0.0,0.0,0.0,0.0,0.0,0.0,0.0,0.0,0.0,0.0,0.0,0.0,0.0,0.0,0.0,0.0,0.0,0.0,0.0,0.0,0.0,0.0,0.0,0.0,0.0,0.0,-3.7898,0.0,0.0,0.0,0.0,0.0,0.0,0.0,0.0,0.0,0.0,0.0,0.0,0.0,0.0,0.0,0.0,0.0,0.0,0.0,0.0,0.0,0.0,0.0,0.0,0.0,0.0,0.0,0.0,0.0,0.0,0.0,0.0,0.0,0.0,0.0,0.0,0.0,0.0,0.0,0.0,0.0,0.0,0.0,0.0,0.0,0.0,0.0,0.0,0.0,0.0,0.0,0.0,0.0,0.0,0.0,0.0,0.0,0.0,0.0,-4.2849,-4.3233,-4.3086,-4.2937,-4.2749,-4.2139,-4.1169,0.0,0.0,0.0,0.0,0.0,0.0,0.0,0.0,0.0,0.0,0.0,0.0,0.0,0.0,0.0,0.0,0.0,0.0,0.0,0.0,0.0,0.0,0.0,0.0,0.0,0.0,0.0,0.0,0.0,0.0,0.0,0.0,0.0,0.0,0.0,0.0,0.0,0.0,0.0,0.0,0.0,0.0,0.0,0.0,0.0,0.0,0.0,0.0,0.0,0.0,0.0,0.0,0.0,0.0,0.0,0.0,0.0,0.0,0.0,0.0,0.0,0.0,0.0,0.0,0.0,0.0,0.0,0.0,0.0,0.0,0.0,0.0,0.0,0.0,0.0,0.0,0.0,0.0,0.0,0.0,0.0,0.0,0.0,0.0,0.0,0.0,0.0,0.0,0.0,0.0,0.0,0.0,0.0,0.0,0.0,0.0,0.0,0.0,0.0,0.0,0.0,0.0,0.0,0.0,0.0,0.0,0.0,-4.2376,-4.3142,-4.3086,-4.2956,-4.2786,-4.257,-4.2369,-4.1457,-3.9787,0.0,0.0,0.0,0.0,0.0,0.0,0.0,0.0,0.0,0.0,0.0,0.0,0.0,0.0,0.0,0.0,0.0,0.0,0.0,0.0,0.0,0.0,0.0,0.0,0.0,0.0,0.0,0.0,0.0,0.0,0.0,0.0,0.0,0.0,0.0,0.0,0.0,0.0,-3.6931,-3.8193,0.0,0.0,0.0,0.0,0.0,0.0,0.0,0.0,-4.034,0.0,0.0,0.0,0.0,0.0,0.0,0.0,0.0,0.0,0.0,0.0,0.0,0.0,0.0,0.0,0.0,0.0,0.0,0.0,0.0,0.0,0.0,0.0,0.0,0.0,0.0,0.0,0.0,0.0,0.0,0.0,0.0,0.0,0.0,0.0,0.0,0.0,0.0,0.0,0.0,0.0,0.0,0.0,0.0,0.0,0.0,0.0,0.0,0.0,0.0,0.0,0.0,0.0,0.0,0.0,0.0,-4.0809,-4.2323,-4.3068,-4.292,-4.2861,-4.2668,-4.2369,-4.2207,-4.1271,-3.95,0.0,0.0,0.0,0.0,0.0,0.0,0.0,0.0,0.0,0.0,0.0,0.0,0.0,0.0,0.0,0.0,0.0,0.0,0.0,0.0,0.0,0.0,0.0,0.0,0.0,0.0,0.0,0.0,0.0,0.0,0.0,0.0,0.0,0.0,0.0,0.0,0.0,0.0,0.0,-3.8836,-3.9208,0.0,0.0,0.0,0.0,0.0,0.0,0.0,0.0,-4.1379,0.0,0.0,0.0,0.0,0.0,0.0,0.0,0.0,0.0,0.0,0.0,0.0,0.0,0.0,0.0,0.0,0.0,0.0,0.0,0.0,0.0,0.0,0.0,0.0,0.0,0.0,0.0,0.0,0.0,0.0,0.0,0.0,0.0,0.0,0.0,0.0,0.0,0.0,0.0,0.0,0.0,0.0,0.0,0.0,0.0,0.0,0.0,0.0,0.0,0.0,0.0,0.0,0.0,0.0,0.0,-4.0565,-4.2029,-4.2804,-4.2765,-4.2609,-4.245,-4.2308,-4.1998,-4.1018,0.0,0.0,0.0,0.0,0.0,0.0,0.0,0.0,0.0,0.0,0.0,0.0,0.0,0.0,0.0,0.0,0.0,0.0,0.0,0.0,0.0,0.0,0.0,0.0,0.0,0.0,0.0,0.0,0.0,0.0,0.0,0.0,0.0,0.0,0.0,0.0,0.0,0.0,0.0,0.0,-3.9334,-3.9842,-4.0544,0.0,0.0,0.0,0.0,0.0,0.0,-4.2078,-4.1841,0.0,0.0,0.0,0.0,0.0,0.0,0.0,0.0,0.0,0.0,0.0,0.0,0.0,0.0,0.0,0.0,0.0,0.0,0.0,0.0,0.0,0.0,0.0,0.0,0.0,0.0,0.0,0.0,0.0,0.0,0.0,0.0,0.0,0.0,0.0,0.0,0.0,0.0,0.0,0.0,0.0,0.0,0.0,0.0,0.0,0.0,0.0,0.0,0.0,0.0,0.0,0.0,0.0,0.0,0.0,-4.0179,-4.158,-4.2368,-4.2492,-4.2331,-4.2225,-4.2163,-4.1784,-4.0801,0.0,0.0,0.0,0.0,0.0,0.0,0.0,0.0,0.0,0.0,0.0,0.0,0.0,0.0,0.0,0.0,0.0,0.0,0.0,0.0,0.0,0.0,0.0,0.0,0.0,0.0,0.0,0.0,0.0,0.0,0.0,0.0,0.0,0.0,0.0,0.0,0.0,0.0,0.0,0.0,0.0,-4.0553,-4.1136,-4.1457,0.0,0.0,0.0,0.0,-4.2553,-4.2395,0.0,0.0,0.0,0.0,0.0,0.0,0.0,0.0,0.0,0.0,0.0,0.0,0.0,0.0,0.0,0.0,0.0,0.0,0.0,0.0,0.0,0.0,0.0,0.0,0.0,0.0,0.0,0.0,0.0,0.0,0.0,0.0,0.0,0.0,0.0,0.0,0.0,0.0,0.0,0.0,0.0,0.0,0.0,0.0,0.0,0.0,0.0,0.0,0.0,0.0,0.0,0.0,0.0,0.0,0.0,0.0,-3.9933,-4.081,-4.1556,-4.2113,-4.2124,-4.1977,-4.1675,-4.1626,-4.0714,0.0,0.0,0.0,0.0,0.0,0.0,0.0,0.0,0.0,0.0,0.0,0.0,0.0,0.0,0.0,0.0,0.0,0.0,0.0,0.0,0.0,0.0,0.0,0.0,0.0,0.0,0.0,0.0,0.0,0.0,0.0,0.0,0.0,0.0,0.0,0.0,0.0,0.0,0.0,0.0,0.0,-4.1102,-4.1204,-4.2293,-4.3156,0.0,0.0,-4.4041,-4.4041,-4.3817,0.0,0.0,0.0,0.0,0.0,0.0,0.0,0.0,0.0,0.0,0.0,0.0,0.0,0.0,0.0,0.0,0.0,0.0,0.0,0.0,0.0,0.0,0.0,0.0,0.0,0.0,0.0,0.0,0.0,0.0,0.0,0.0,0.0,0.0,0.0,0.0,0.0,0.0,0.0,0.0,0.0,0.0,0.0,0.0,0.0,0.0,0.0,0.0,0.0,0.0,0.0,0.0,0.0,0.0,0.0,-3.9011,-3.9718,-4.0537,-4.1239,-4.1878,-4.1849,-4.1714,-4.1475,-4.0939,-4.0033,0.0,0.0,0.0,0.0,0.0,0.0,0.0,0.0,0.0,0.0,0.0,0.0,0.0,0.0,0.0,0.0,0.0,0.0,0.0,0.0,0.0,0.0,0.0,0.0,0.0,0.0,0.0,0.0,0.0,0.0,0.0,0.0,0.0,0.0,0.0,0.0,0.0,0.0,0.0,0.0,0.0,0.0,-4.153,-4.2515,0.0,0.0,0.0,-4.4167,-4.4068,0.0,0.0,0.0,0.0,0.0,0.0,0.0,0.0,0.0,0.0,0.0,0.0,0.0,0.0,0.0,0.0,0.0,0.0,0.0,0.0,0.0,0.0,0.0,0.0,0.0,0.0,0.0,0.0,0.0,0.0,0.0,0.0,0.0,0.0,0.0,0.0,0.0,0.0,0.0,0.0,0.0,0.0,0.0,0.0,0.0,0.0,0.0,0.0,0.0,0.0,0.0,0.0,0.0,0.0,0.0,0.0,0.0,-3.9435,-4.0055,-4.0771,-4.1618,-4.1542,-4.1448,-4.1312,-4.04,0.0,0.0,0.0,0.0,0.0,0.0,0.0,0.0,0.0,0.0,0.0,0.0,0.0,0.0,0.0,0.0,0.0,0.0,0.0,0.0,0.0,0.0,0.0,0.0,0.0,0.0,0.0,-2.9916,0.0,0.0,0.0,0.0,0.0,0.0,0.0,0.0,0.0,0.0,0.0,0.0,0.0,0.0,-4.1335,-4.2071,-4.2808,-4.3461,0.0,0.0,-4.3998,-4.3868,-4.3658,-4.3479,0.0,0.0,0.0,0.0,0.0,0.0,0.0,0.0,0.0,0.0,0.0,0.0,0.0,0.0,0.0,0.0,0.0,0.0,0.0,0.0,0.0,0.0,0.0,0.0,0.0,0.0,0.0,0.0,0.0,0.0,0.0,0.0,0.0,0.0,0.0,0.0,0.0,0.0,0.0,0.0,0.0,0.0,0.0,0.0,0.0,0.0,0.0,0.0,0.0,0.0,0.0,0.0,0.0,0.0,-3.7565,-3.8998,-3.9081,-3.9813,-4.1162,-4.1232,-4.118,-4.1099,-4.0274,-3.9348,0.0,0.0,0.0,0.0,0.0,0.0,0.0,0.0,0.0,0.0,0.0,0.0,0.0,0.0,0.0,0.0,0.0,0.0,0.0,0.0,0.0,0.0,0.0,0.0,0.0,0.0,0.0,0.0,0.0,0.0,0.0,0.0,0.0,0.0,0.0,0.0,0.0,0.0,0.0,0.0,0.0,-4.2088,-4.2808,-4.3545,-4.4047,0.0,-4.3998,-4.3868,-4.3658,-4.3509,-4.3221,-4.2711,0.0,0.0,0.0,0.0,0.0,0.0,0.0,0.0,0.0,0.0,0.0,0.0,0.0,0.0,0.0,0.0,0.0,0.0,0.0,0.0,0.0,0.0,0.0,0.0,0.0,0.0,0.0,0.0,0.0,0.0,0.0,0.0,0.0,0.0,0.0,0.0,0.0,0.0,0.0,0.0,0.0,0.0,0.0,0.0,0.0,0.0,0.0,0.0,0.0,0.0,0.0,0.0,0.0,-3.745,-3.8951,-3.9003,-3.9651,-4.0949,-4.1035,-4.0918,-4.0745,-3.9472,-3.8614,0.0,0.0,0.0,0.0,0.0,0.0,0.0,0.0,0.0,0.0,0.0,0.0,0.0,0.0,0.0,0.0,0.0,0.0,0.0,0.0,0.0,0.0,0.0,0.0,0.0,0.0,0.0,0.0,-3.1428,-3.2323,-3.3509,0.0,0.0,0.0,0.0,0.0,0.0,0.0,0.0,0.0,0.0,-4.2072,-4.2352,-4.3013,0.0,0.0,-4.3462,-4.3372,-4.3295,-4.3068,-4.2836,-4.2634,-4.2238,0.0,0.0,0.0,0.0,0.0,0.0,0.0,0.0,0.0,0.0,0.0,0.0,0.0,0.0,0.0,0.0,0.0,0.0,0.0,0.0,0.0,0.0,0.0,0.0,0.0,0.0,0.0,0.0,0.0,0.0,0.0,0.0,0.0,0.0,0.0,0.0,0.0,0.0,0.0,0.0,0.0,0.0,0.0,0.0,0.0,0.0,0.0,0.0,0.0,0.0,0.0,0.0,-3.7226,-3.8733,-3.8767,-3.9427,-4.0741,-4.0776,-4.068,-4.0458,-3.8993,-3.8138,0.0,0.0,0.0,0.0,0.0,0.0,0.0,0.0,0.0,0.0,0.0,0.0,0.0,0.0,0.0,0.0,0.0,0.0,0.0,0.0,0.0,0.0,0.0,0.0,0.0,0.0,0.0,0.0,-3.2029,-3.298,-3.4077,0.0,0.0,0.0,0.0,0.0,0.0,0.0,0.0,0.0,0.0,-4.2054,-4.231,-4.2769,-4.3113,-4.3052,-4.3021,-4.3021,-4.2898,-4.2696,-4.2476,-4.2333,0.0,0.0,0.0,0.0,0.0,0.0,0.0,0.0,0.0,0.0,0.0,0.0,0.0,0.0,0.0,0.0,0.0,0.0,0.0,0.0,0.0,0.0,0.0,0.0,0.0,0.0,0.0,-3.285,0.0,0.0,-3.138,0.0,0.0,0.0,0.0,0.0,0.0,0.0,0.0,0.0,0.0,0.0,0.0,0.0,0.0,0.0,0.0,0.0,0.0,0.0,0.0,0.0,0.0,-3.6754,-3.8219,-3.8236,-3.8971,-4.0441,-4.051,-4.051,-4.0451,-3.8955,-3.8101,-3.8067,0.0,0.0,0.0,0.0,0.0,0.0,0.0,0.0,0.0,0.0,0.0,0.0,0.0,0.0,0.0,0.0,0.0,0.0,0.0,0.0,0.0,0.0,0.0,0.0,0.0,0.0,-3.1768,-3.301,-3.3852,0.0,0.0,0.0,0.0,0.0,0.0,0.0,0.0,0.0,0.0,-4.1232,-4.2129,-4.2935,-4.3096,-4.3037,-4.293,-4.2899,-4.2806,-4.2476,-4.2413,-4.2222,0.0,0.0,0.0,0.0,0.0,0.0,0.0,0.0,0.0,0.0,0.0,0.0,0.0,0.0,0.0,0.0,0.0,0.0,0.0,0.0,0.0,0.0,0.0,0.0,0.0,0.0,0.0,-3.4154,-3.374,0.0,0.0,0.0,0.0,0.0,0.0,0.0,0.0,0.0,0.0,0.0,-3.4856,-3.4873,0.0,0.0,0.0,0.0,0.0,0.0,0.0,0.0,0.0,0.0,0.0,0.0,-3.671,-3.8128,-3.819,-3.8901,-4.0311,-4.0379,-4.0313,-4.0221,-3.9221,-3.8231,-3.7254,0.0,0.0,0.0,0.0,0.0,0.0,0.0,0.0,0.0,0.0,0.0,0.0,0.0,0.0,0.0,0.0,0.0,0.0,0.0,0.0,0.0,0.0,0.0,0.0,0.0,-3.2053,0.0,0.0,0.0,0.0,0.0,0.0,0.0,0.0,0.0,0.0,0.0,-3.9766,-4.0574,-4.1435,-4.2092,-4.238,-4.246,-4.2412,0.0,0.0,0.0,0.0,0.0,0.0,0.0,0.0,0.0,0.0,0.0,0.0,0.0,0.0,-3.8942,-3.8217,-3.7539,-3.7071,-3.6901,0.0,0.0,0.0,0.0,0.0,0.0,0.0,0.0,0.0,0.0,0.0,0.0,0.0,0.0,-3.5053,0.0,-3.4438,0.0,0.0,0.0,0.0,0.0,0.0,0.0,0.0,-3.5165,-3.5554,-3.6028,-3.6282,-3.6394,0.0,-3.6394,-3.5774,0.0,0.0,0.0,0.0,0.0,0.0,0.0,0.0,-3.6888,-3.804,-3.8346,-3.903,-4.017,-4.0213,-4.0188,-4.0079,-3.9123,-3.8017,-3.676,-3.5374,-3.4488,0.0,0.0,0.0,0.0,0.0,0.0,0.0,0.0,0.0,0.0,0.0,0.0,0.0,0.0,0.0,0.0,0.0,0.0,0.0,0.0,0.0,0.0,0.0,-3.2604,0.0,0.0,0.0,0.0,0.0,0.0,0.0,0.0,0.0,-3.8075,-3.9047,-3.996,-4.0546,-4.1308,-4.1851,-4.1916,0.0,0.0,0.0,0.0,0.0,0.0,0.0,-4.1355,-4.1055,-4.0833,-4.0593,-4.0281,-3.9945,-3.9681,-3.9625,0.0,0.0,-3.8826,-3.8142,-3.7625,-3.7451,-3.7183,-3.6866,-3.6641,-3.6408,-3.6216,0.0,0.0,0.0,0.0,0.0,0.0,0.0,0.0,-3.712,-3.6486,0.0,-3.5351,0.0,0.0,0.0,0.0,0.0,-3.5318,0.0,0.0,-3.6434,-3.6829,-3.688,-3.7533,-3.7889,-3.7898,-3.7872,-3.7483,-3.6795,-3.6045,0.0,0.0,0.0,0.0,0.0,0.0,-3.7218,-3.7939,-3.8616,-3.9343,-4.0062,-4.0096,-4.0113,-4.0062,-3.8717,-3.7554,-3.666,-3.582,-3.4944,-3.4078,-3.3627,0.0,0.0,0.0,0.0,0.0,0.0,0.0,0.0,0.0,0.0,0.0,0.0,0.0,0.0,0.0,0.0,0.0,0.0,0.0,0.0,-3.2562,0.0,0.0,0.0,0.0,0.0,0.0,0.0,0.0,0.0,0.0,-3.7996,-3.9165,-4.0074,-4.0286,0.0,0.0,0.0,0.0,-4.1538,-4.1323,-4.129,-4.1223,-4.1102,-4.1068,-4.0932,-4.0574,0.0,0.0,-3.9803,-3.9696,-3.9625,-3.9409,-3.9373,-3.9388,-3.9373,-3.8692,-3.8148,-3.8083,-3.7355,-3.6645,-3.6409,-3.631,-3.6135,-4.1874,0.0,0.0,0.0,0.0,-3.9423,-3.9289,-3.9159,-3.8239,-3.7647,-3.7242,-3.646,0.0,0.0,0.0,0.0,0.0,0.0,-3.6474,-3.6485,-3.7229,-3.7584,-3.7584,-3.7804,-3.7898,-3.7898,-3.7898,-3.7787,-3.7584,-3.7364,-3.6688,-3.5616,0.0,0.0,0.0,0.0,-3.7939,-3.865,-3.8886,-3.9343,-4.0096,-4.0113,-4.0113,-4.0096,-3.9199,-3.828,-3.7417,-3.6558,-3.5639,-3.4688,-3.3837,0.0,0.0,0.0,0.0,0.0,0.0,0.0,0.0,0.0,0.0,0.0,0.0,0.0,0.0,0.0,0.0,0.0,0.0,0.0,-3.2961,-3.3231,-3.3622,0.0,0.0,0.0,0.0,0.0,0.0,0.0,0.0,0.0,-3.8669,-3.9244,-3.9895,0.0,0.0,-4.1203,-4.1221,-4.1236,-4.1236,-4.1153,-4.1169,0.0,-4.0712,-4.0677,-4.0539,-4.0207,-4.0016,-3.9895,-3.9717,-3.9589,-3.9409,-3.9228,-3.9192,-3.9141,-3.9002,-3.8883,-3.8677,-3.8443,-3.804,-3.7665,-3.7457,-3.7068,-3.6731,-4.3337,-4.2229,-4.1449,-4.0835,-4.042,-4.018,-4.0046,-3.9933,-3.9135,-3.8681,-3.8464,-3.7802,-3.7378,-3.7145,-3.6925,0.0,0.0,0.0,-3.7229,-3.7286,-3.799,-3.8328,-3.8345,-3.8616,-3.8768,-3.8768,-3.8768,-3.8616,-3.8345,-3.8345,-3.7719,-3.6546,0.0,0.0,-3.7246,-3.7956,-3.8565,-3.8988,-3.93,-3.9673,-4.0096,-4.0113,-4.0113,-4.0096,-3.9327,-3.8503,-3.764,-3.6764,-3.5837,-3.4844,-3.416,-3.3518,0.0,0.0,0.0,0.0,0.0,0.0,0.0,0.0,0.0,0.0,0.0,-3.0627,-3.0896,0.0,0.0,0.0,-3.2751,-3.317,-3.3829,-3.3888,0.0,0.0,0.0,0.0,0.0,0.0,0.0,-3.7871,-3.8327,-3.8757,-3.9204,-3.9443,-3.9788,-4.0409,-4.0589,-4.0658,-4.0658,0.0,-4.0674,-4.0658,-4.0674,-4.0589,-4.0331,-4.0296,-4.0191,-3.9925,-3.9747,-3.9589,-3.9589,-3.9409,-3.9213,-3.9141,-3.9031,-3.887,-3.8598,-3.8649,-3.8701,-3.8441,-3.8217,-3.7953,-3.7625,-3.7264,-3.69,-4.4765,-4.4565,-4.2976,-4.1686,-4.0709,-4.0491,-4.0341,-4.0185,-3.986,-3.9602,-3.9378,-3.9111,-3.8855,-3.855,-3.8247,0.0,-3.7898,-3.7973,-3.8007,-3.8024,-3.8734,-3.9073,-3.9123,-3.9791,-4.0113,-4.0096,-4.0113,-3.9757,-3.9106,-3.9097,-3.8734,-3.8108,-3.8075,-3.8058,-3.8017,-3.8717,-3.9073,-3.9089,-3.9757,-4.0096,-4.0113,-4.0113,-4.0113,-4.0096,-3.932,-3.848,-3.7626,-3.676,-3.5792,-3.4839,-3.4456,-3.3867,-3.3006,0.0,0.0,0.0,0.0,0.0,0.0,0.0,0.0,0.0,0.0,0.0,0.0,0.0,0.0,0.0,-3.3275,0.0,-3.4533,-3.4638,0.0,0.0,0.0,-3.6582,-3.6626,-3.7135,-3.7749,-3.8392,0.0,0.0,-3.957,-3.9681,-3.9768,-3.994,-3.996,-4.0011,-4.0011,-4.0046,-4.0011,-4.0046,-4.0011,-3.9996,-3.9996,-3.996,-3.9889,-3.9696,-3.9502,-3.9424,-3.9388,-3.9228,-3.9104,-3.9031,-3.8907,-3.8649,-3.824,-3.8165,-3.8127,-3.8075,-3.7915,-3.7649,-3.7187,-3.6915,-3.6587,-4.5608,-4.5553,-4.5096,-4.3962,-4.2486,-4.2339,-4.2169,-4.192,-4.1032,-4.0521,-4.0239,-3.9381,-3.8745,-3.8282,-3.8213,-3.8084,-3.7922,-3.8481,-3.8734,-3.8785,-3.952,-3.9842,-3.9859,-4.0028,-4.0113,-4.0113,-4.0113,-4.0011,-3.9842,-3.9842,-3.9757,-3.9605,-3.9588,-3.9292,-3.8785,-3.9462,-3.9842,-3.9842,-4.0028,-4.0113,-4.0113,-4.0113,-4.0113,-4.0096,-3.9809,-3.9219,-3.8372,-3.7419,-3.6423,-3.5415,-3.4593,-3.391,-3.3393,-3.304,0.0,0.0,0.0,0.0,0.0,0.0,0.0,0.0,0.0,-3.2079,-3.2258,0.0,-3.3469,0.0,-3.4637,-3.51,-3.5235,-3.5714,0.0,0.0,-3.6821,-3.7389,-3.7868,-3.8078,-3.8422,-3.9095,-3.917,-3.923,-3.943,-3.9445,-3.9496,-3.9532,-3.9818,-4.0011,-4.0011,-4.0011,-4.0011,-4.0011,-3.9975,-3.996,-3.9803,-3.9625,-3.9532,-3.9496,-3.9409,-3.9352,-3.9192,-3.9141,-3.8995,-3.8701,-3.8464,-3.8254,-3.8005,-3.7725,-3.7495,-3.7327,-3.7264,-3.7187,-3.7017,-3.6468,-3.5951,-4.6434,-4.6397,-4.5993,-4.5242,-4.4272,-4.3684,-4.3111,-4.2554,-4.1864,-4.144,-4.1174,-4.0346,-3.9732,-3.9292,-3.9245,-3.9119,-3.9001,-3.9359,-3.9503,-3.952,-3.991,-4.0113,-4.0113,-4.0113,-4.0113,-4.0113,-4.0113,-4.0113,-4.0113,-4.0113,-4.0113,-4.0113,-4.0113,-3.991,-3.9537,-3.991,-4.0113,-4.0113,-4.0113,-4.0113,-4.0113,-4.0113,-4.0087,-4.0011,-3.9884,-3.9394,-3.8547,-3.7875,-3.6882,-3.5567,-3.4873,-3.4169,-3.344,-3.315,-3.2881,0.0,0.0,0.0,0.0,0.0,0.0,0.0,0.0,0.0,0.0,0.0,-3.4337,-3.5312,-3.5729,-3.6043,-3.6327,-3.6686,-3.6896,-3.6896,-3.7464,-3.7988,-3.8347,-3.8661,-3.9005,-3.9343,-3.9388,-3.9388,-3.9388,-3.9388,-3.9388,-3.9388,-3.9604,-3.9747,-3.9711,-3.9747,-3.9747,-3.9711,-3.9747,-3.9711,-3.9589,-3.9481,-3.9388,-3.9388,-3.9301,-3.9228,-3.9104,-3.8943,-3.8738,-3.8441,-3.8202,-3.7967,-3.7572,-3.7341,-3.7056,-3.6665,-3.6468,-3.6429,-3.6443,-3.6031,-3.5629,-4.7241,-4.7186,-4.6507,-4.6122,-4.59,-4.4886,-4.38,-4.2773,-4.2445,-4.2181,-4.1902,-4.1431,-4.1018,-4.0704,-4.0558,-4.0436,-4.0305,-4.0163,-4.0113,-4.0113,-4.0113,-4.0113,-4.0113,-4.0113,-4.0113,-4.0113,-4.0113,-4.0113,-4.0113,-4.0113,-4.0113,-4.0113,-4.0113,-4.0113,-4.0113,-4.0113,-4.0113,-4.0113,-4.0113,-4.0113,-4.0113,-4.0113,-4.0037,-3.9901,-3.9772,-3.9324,-3.8569,-3.8166,-3.7252,-3.575,-3.5285,-3.4579,-3.3609,-3.3282,-3.2982,0.0,-3.2944,0.0,0.0,0.0,0.0,0.0,0.0,0.0,0.0,-3.4339,-3.5282,-3.654,-3.6596,-3.6821,-3.736,-3.7479,-3.7539,-3.7554,-3.8123,-3.8512,-3.8542,-3.905,-3.9388,-3.9388,-3.9388,-3.9388,-3.9388,-3.9388,-3.9388,-3.9388,-3.9424,-3.9424,-3.9424,-3.9424,-3.9424,-3.9388,-3.9388,-3.9424,-3.9424,-3.9424,-3.9388,-3.9388,-3.9228,-3.909,-3.9053,-3.8738,-3.8404,-3.8202,-3.7953,-3.7625,-3.7095,-3.694,-3.6626,-3.6111,-3.5831,-3.5683,-3.571,-3.5629,-3.5399,-4.8086,-4.8067,-4.7921,-4.7423,-4.6742,-4.6405,-4.5356,-4.3764,-4.2801,-4.2124,-4.1666,-4.1363,-4.1065,-4.0864,-4.0607,-4.0453,-4.0288,-4.0163,-4.0113,-4.0113,-4.0113,-4.0113,-4.0113,-4.0113,-4.0113,-4.0113,-4.0113,-4.0113,-4.0113,-4.0113,-4.0113,-4.0113,-4.0113,-4.0113,-4.0113,0.0,0.0,0.0,-4.0113,-4.0113,-4.0113,-4.0113,-4.0037,-3.9901,-3.9755,0.0,-3.9136,-3.8298,-3.7578,-3.6945,-3.6016,0.0,0.0,0.0,0.0,0.0,0.0,0.0,0.0,0.0,0.0,0.0,-3.5295,-3.5459,-3.4459,-3.5432,-3.6417,-3.715,-3.724,-3.7285,-3.7404,-3.7898,-3.8197,-3.8227,-3.8811,-3.923,-3.9194,-3.9313,-3.9388,-3.9388,-3.9388,-3.9388,-3.9388,-3.9388,-3.9388,-3.9388,-3.9388,-3.9388,-3.9388,-3.9388,-3.9388,-3.9388,-3.9388,-3.9388,-3.9388,-3.9388,-3.9388,-3.9373,-3.9213,-3.9068,-3.887,-3.8523,-3.8179,-3.7953,-3.7534,-3.7134,-3.6978,-3.6429,-3.5951,-3.5804,-3.548,-3.5236,-3.5399,-3.5195,-3.488,-4.8324,0.0,-4.8324,-4.8029,0.0,-4.7029,-4.6273,-4.5338,-4.3768,-4.2582,-4.1692,-4.1408,-4.118,-4.1,-4.0655,-4.0461,-4.037,-4.0171,-4.0113,-4.0113,-4.0113,-4.0113,-4.0113,-4.0113,-4.0113,-4.0113,-4.0113,-4.0113,-4.0113,-4.0113,-4.0113,-4.0113,-4.0113,-4.0113,-4.0113,-4.0113,-4.0113,-4.0113,-4.0113,-4.0113,-4.0113,-4.0037,-3.9935,-3.9807,-3.9599,0.0,0.0,0.0,0.0,0.0,0.0,0.0,0.0,0.0,0.0,-3.4119,-3.4258,-3.4272,-3.4148,-3.4655,-3.513,-3.5492,-3.6372,-3.6656,-3.5968,-3.6552,-3.721,-3.7823,-3.7898,-3.8033,-3.8342,-3.8706,-3.8916,-3.8916,-3.9215,-3.9388,-3.9388,-3.9388,-3.9388,-3.9388,-3.9388,-3.9388,-3.9388,-3.9388,-3.9388,-3.9388,-3.9388,-3.9388,-3.9388,-3.9388,-3.9388,-3.9388,-3.9388,-3.9388,-3.9388,-3.9388,-3.9352,-3.9265,-3.9068,-3.8833,-3.8575,-3.8254,-3.7915,-3.7534,-3.7187,-3.69,-3.6429,-3.5991,-3.5629,-3.5318,-3.499,-3.4743,-3.4784,-3.466,-3.4481,-4.8324,-4.8324,-4.8324,-4.8324,-4.825,-4.7379,-4.6915,-4.6618,0.0,0.0,0.0,-4.1542,-4.1312,-4.1076,-4.0728,-4.0558,-4.0485,-4.0263,-4.0138,-4.0113,-4.0113,-4.0113,-4.0113,-4.0113,-4.0113,-4.0113,-4.0113,-4.0113,-4.0113,-4.0113,-4.0113,-4.0113,-4.0113,-4.0113,-4.0113,-4.0113,-4.0113,-4.0113,-4.0113,-4.0113,-4.0096,-3.9961,-3.9833,-3.9703,-3.9441,-3.9175,-3.8942,-3.8588,-3.8004,-3.7199,-3.6769,-3.6124,-3.5256,-3.4872,-3.4605,-3.4349,-3.468,-3.487,-3.4863,-3.5355,-3.6013,-3.681,-3.7285,-3.7584,-3.7584,-3.7569,-3.7853,-3.8512,-3.8571,-3.8811,-3.9328,-3.9388,-3.9388,-3.9388,-3.9388,-3.9388,-3.9388,-3.9388,-3.9388,-3.9388,-3.9388,-3.9388,-3.9388,-3.9388,-3.9388,-3.9388,-3.9388,-3.9388,-3.9388,-3.9388,-3.9388,-3.9388,-3.9388,-3.9388,-3.9388,-3.9388,-3.9316,-3.9141,-3.8943,-3.8686,-3.8263,-3.7991,-3.761,-3.7148,-3.69,-3.6468,-3.5871,-3.5588,-3.5358,-3.4839,-3.4548,-3.4272,-3.4063,-3.4118,-3.4105,-4.8324,-4.8324,-4.8324,-4.8324,-4.8268,-4.8098,-4.7463,-4.6382,-4.4484,-4.3045,-4.2058,-4.1697,-4.1431,-4.1163,-4.0948,-4.0704,-4.051,-4.0337,-4.0213,-4.0096,-4.0113,-4.0113,-4.0113,-4.0113,-4.0113,-4.0113,-4.0113,-4.0113,-4.0113,-4.0113,-4.0113,-4.0113,-4.0113,-4.0113,-4.0113,-4.0113,-4.0113,-4.0113,-4.0113,-4.0113,-4.0113,-3.9961,-3.9849,-3.9703,-3.9415,-3.9094,-3.865,-3.8504,-3.8071,-3.7408,-3.7186,-3.6826,-3.6292,-3.606,-3.5795,-3.5512,-3.5539,-3.5759,-3.6181,-3.6297,-3.6866,-3.7988,-3.8212,-3.8257,-3.8257,-3.8257,-3.8542,-3.9185,-3.9209,-3.9305,-3.9409,-3.9388,-3.9388,-3.9388,-3.9388,-3.9388,-3.9388,-3.9388,-3.9388,-3.9388,-3.9388,-3.9388,-3.9388,-3.9388,-3.9388,-3.9388,-3.9388,-3.9388,-3.9388,-3.9388,-3.9388,-3.9388,-3.9388,-3.9388,-3.9388,-3.9388,-3.9301,-3.9141,-3.8907,-3.8612,-3.8188,-3.7763,-3.7341,-3.7031,-3.6443,-3.5911,-3.5669,-3.5236,-3.4867,-3.4535,-3.4272,-3.4004,-3.3598,-3.3569,-3.3526,-4.8324,-4.8324,-4.8324,-4.8324,-4.8287,-4.8131,-4.7532,-4.6549,-4.5498,-4.4142,-4.2775,-4.2445,-4.1888,-4.1186,-4.0989,-4.0752,-4.051,-4.0379,-4.0213,-4.0096,-4.0113,-4.0113,-4.0113,-4.0113,-4.0113,-4.0113,-4.0113,-4.0113,-4.0113,-4.0113,-4.0113,-4.0113,-4.0113,-4.0113,-4.0113,-4.0113,-4.0113,-4.0113,-4.0113,-4.0062,-3.9986,-3.9858,-3.9677,-3.9484,-3.9202,-3.8849,-3.85,-3.8193,-3.7831,-3.7417,-3.7088,-3.68,-3.6523,-3.6258,-3.599,-3.5735,-3.5984,-3.6247,-3.6495,-3.7135,-3.7764,-3.8347,-3.8721,-3.8945,-3.896,-3.896,-3.908,-3.9358,-3.9388,-3.9388,-3.9388,-3.9388,-3.9388,-3.9388,-3.9388,-3.9388,-3.9388,-3.9388,-3.9388,-3.9388,-3.9388,-3.9388,-3.9388,-3.9388,-3.9388,-3.9388,-3.9388,-3.9388,-3.9388,-3.9388,-3.9388,-3.9388,-3.9388,-3.9388,-3.9388,-3.9301,-3.9177,-3.898,-3.8686,-3.83,-3.7938,-3.7457,-3.707,-3.6733,-3.6111,-3.5669,-3.544,-3.4949,-3.4535,-3.4285,-3.3937,-3.3654,-3.3441,-3.3326,-3.324,-4.8325,-4.8324,-4.8324,-4.8324,-4.8287,-4.813,-4.7644,-4.6995,-4.6651,-4.5541,-4.395,-4.3244,-4.2422,-4.1551,-4.1128,-4.0799,-4.051,-4.0387,-4.0246,-4.0113,-4.0113,-4.0113,-4.0113,-4.0113,-4.0113,-4.0113,-4.0113,-4.0113,-4.0113,-4.0113,-4.0113,-4.0113,-4.0113,-4.0113,-4.0113,-4.0113,-4.0113,-4.0113,-4.0087,-4.0011,-3.9901,-3.9781,-3.959,-3.9315,-3.8942,-3.8611,-3.8335,-3.7889,-3.7537,-3.7314,-3.6892,-3.6585,-3.6383,-3.61,-3.5831,-3.5731,-3.6202,-3.6626,-3.6956,-3.7973,-3.8631,-3.8631,-3.911,-3.9388,-3.9388,-3.9388,-3.9388,-3.9388,-3.9388,-3.9388,-3.9388,-3.9388,-3.9388,-3.9388,-3.9388,-3.9388,-3.9388,-3.9388,-3.9388,-3.9388,-3.9388,-3.9388,-3.9388,-3.9388,-3.9388,-3.9388,-3.9388,-3.9388,-3.9388,-3.9388,-3.9388,-3.9388,-3.9388,-3.9388,-3.9337,-3.9228,-3.9031,-3.8797,-3.8464,-3.8052,-3.7649,-3.7211,-3.6758,-3.6338,-3.5858,-3.5399,-3.5031,-3.4618,-3.4243,-3.3992,-3.3654,-3.3398,-3.3326,-3.3197,-3.3124,-4.8419,-4.8306,-4.8324,-4.8324,-4.8305,-4.8208,-4.8035,-4.7842,-4.7653,-4.6891,-4.5598,-4.3877,-4.2886,-4.2369,-4.158,-4.0965,-4.0534,-4.0485,-4.0337,-4.0121,-4.0113,-4.0113,-4.0113,-4.0113,-4.0113,-4.0113,-4.0113,-4.0113,-4.0113,-4.0113,-4.0113,-4.0113,-4.0113,-4.0113,-4.0113,-4.0113,-4.0113,-4.0113,-4.0003,-3.9926,-3.9901,-3.9755,-3.9573,-3.9315,-3.8876,-3.8455,-3.8144,-3.7682,-3.7314,-3.703,-3.6708,-3.6367,-3.6084,-3.5863,-3.5686,-3.5582,-3.6148,-3.6971,-3.8108,-3.8901,-3.929,-3.932,-3.9328,-3.9388,-3.9388,-3.9388,-3.9388,-3.9388,-3.9388,-3.9388,-3.9388,-3.9388,-3.9388,-3.9388,-3.9388,-3.9388,-3.9388,-3.9388,-3.9388,-3.9388,-3.9388,-3.9388,-3.9388,-3.9388,-3.9388,-3.9388,-3.9388,-3.9388,-3.9388,-3.9388,-3.9388,-3.9388,-3.9388,-3.9316,-3.9192,-3.9104,-3.8907,-3.859,-3.8366,-3.7938,-3.7443,-3.6978,-3.6547,-3.6005,-3.548,-3.5031,-3.466,-3.4285,-3.3992,-3.3654,-3.3441,-3.3356,-3.3197,-3.3124,-3.3124,-4.8438,-4.8324,-4.8324,-4.8324,-4.8305,-4.8226,-4.811,-4.801,-4.7783,-4.7334,-4.6639,-4.528,-4.3965,-4.2694,-4.2137,-4.1492,-4.0745,-4.0583,-4.0412,-4.023,-4.0138,-4.0113,-4.0113,-4.0113,-4.0113,-4.0113,-4.0113,-4.0113,-4.0113,-4.0113,-4.0113,-4.0113,-4.0113,-4.0113,-4.0113,-4.0113,-4.0113,-4.0113,-3.9977,-3.9875,-3.9755,-3.959,-3.9325,-3.9013,-3.8655,-3.829,-3.7889,-3.7492,-3.7134,-3.6816,-3.6507,-3.6226,-3.6005,-3.5784,-3.5819,-3.6121,-3.706,-3.8018,-3.8945,-3.9275,-3.9388,-3.9388,-3.9388,-3.9388,-3.9388,-3.9388,-3.9388,-3.9388,-3.9388,-3.9388,-3.9388,-3.9388,-3.9388,-3.9388,-3.9388,-3.9388,-3.9388,-3.9388,-3.9388,-3.9388,-3.9388,-3.9388,-3.9388,-3.9388,-3.9388,-3.9388,-3.9388,-3.9388,-3.9388,-3.9388,-3.9337,-3.9265,-3.9213,-3.9192,-3.9104,-3.8885,-3.8649,-3.8352,-3.8066,-3.7649,-3.7226,-3.6626,-3.6151,-3.575,-3.5277,-3.4825,-3.4481,-3.4105,-3.3768,-3.3441,-3.3283,-3.3197,-3.3124,-3.3124,-3.3124,-4.8457,-4.8363,-4.8306,-4.8324,-4.8305,-4.8247,-4.8149,-4.7992,-4.7847,-4.76,-4.7288,-4.6511,-4.5218,-4.3608,-4.2812,-4.1881,-4.0963,-4.0655,-4.0461,-4.0288,-4.0188,-4.0121,-4.0096,-4.0113,-4.0113,-4.0113,-4.0113,-4.0113,-4.0113,-4.0113,-4.0113,-4.0113,-4.0113,-4.0113,-4.0113,-4.0113,-4.0113,-4.007,-3.9935,-3.9781,-3.9694,-3.9352,-3.904,-3.8805,-3.8472,-3.8119,-3.77,-3.7359,-3.6983,-3.6662,-3.6305,-3.6085,-3.5941,-3.5916,-3.6235,-3.6989,-3.7868,-3.8691,-3.9343,-3.9388,-3.9388,-3.9388,-3.9388,-3.9388,-3.9388,-3.9388,-3.9388,-3.9388,-3.9388,-3.9388,-3.9388,-3.9388,-3.9388,-3.9388,-3.9388,-3.9388,-3.9388,-3.9388,-3.9388,-3.9388,-3.9388,-3.9388,-3.9388,-3.9388,-3.9388,-3.9388,-3.9388,-3.9388,-3.9388,-3.9337,-3.9265,-3.9104,-3.9031,-3.8922,-3.8922,-3.8664,-3.8366,-3.8066,-3.7763,-3.7341,-3.6954,-3.635,-3.579,-3.548,-3.5003,-3.459,-3.4189,-3.3852,-3.3556,-3.3356,-3.3185,-3.3111,-3.3124,-3.3124,-3.3124,-4.855,-4.8457,-4.8344,-4.8324,-4.8305,-4.8305,-4.819,-4.8012,-4.7992,-4.7788,-4.749,-4.7196,-4.6507,-4.5252,-4.3476,-4.2009,-4.1022,-4.0769,-4.0551,-4.0313,-4.0305,-4.0213,-4.0096,-4.0113,-4.0113,-4.0113,-4.0113,-4.0113,-4.0113,-4.0113,-4.0113,-4.0113,-4.0113,-4.0113,-4.0113,-4.0113,-4.0113,-4.0087,-3.9858,-3.9703,-3.9625,-3.9131,-3.8832,-3.875,-3.8343,-3.7972,-3.7671,-3.7241,-3.6847,-3.6507,-3.6195,-3.5926,-3.578,-3.619,-3.7004,-3.8078,-3.8347,-3.8721,-3.9269,-3.9388,-3.9388,-3.9388,-3.9388,-3.9388,-3.9388,-3.9388,-3.9388,-3.9388,-3.9388,-3.9388,-3.9388,-3.9388,-3.9388,-3.9388,-3.9388,-3.9388,-3.9388,-3.9388,-3.9388,-3.9388,-3.9388,-3.9388,-3.9388,-3.9388,-3.9388,-3.9388,-3.9388,-3.9388,-3.9352,-3.9228,-3.9141,-3.8995,-3.8775,-3.8516,-3.8516,-3.8366,-3.8142,-3.7839,-3.7419,-3.694,-3.6601,-3.6204,-3.5683,-3.5195,-3.4743,-3.4314,-3.3894,-3.3556,-3.3356,-3.324,-3.3154,-3.3124,-3.3124,-3.3124,-3.3124,-4.8513,-4.8382,-4.8343,-4.8324,-4.8324,-4.8324,-4.8247,-4.8128,-4.805,-4.7868,-4.7597,-4.7363,-4.669,-4.5659,-4.4211,-4.294,-4.1857,-4.116,-4.068,-4.0419,-4.0337,-4.0238,-4.0096,-4.0113,-4.0113,-4.0113,-4.0113,-4.0113,-4.0113,-4.0113,-4.0113,-4.0113,-4.0113,-4.0113,-4.0113,-4.0113,-4.0113,-4.0087,-3.9816,-3.9703,-3.9651,-3.9104,-3.8761,-3.8667,-3.8217,-3.7786,-3.7419,-3.7121,-3.677,-3.6305,-3.6132,-3.5894,-3.5825,-3.6577,-3.7449,-3.8302,-3.8811,-3.9155,-3.9343,-3.9388,-3.9388,-3.9388,-3.9388,-3.9388,-3.9388,-3.9388,-3.9388,-3.9388,-3.9388,-3.9388,-3.9388,-3.9388,-3.9388,-3.9388,-3.9388,-3.9388,-3.9388,-3.9388,-3.9388,-3.9388,-3.9388,-3.9388,-3.9388,-3.9388,-3.9388,-3.9388,-3.9388,-3.9337,-3.9213,-3.9141,-3.9031,-3.8738,-3.8478,-3.8254,-3.8118,-3.8066,-3.7877,-3.7457,-3.707,-3.6626,-3.623,-3.5844,-3.5358,-3.4853,-3.4439,-3.4063,-3.3654,-3.3398,-3.3197,-3.3167,-3.3124,-3.3124,-3.3124,-3.3124,-3.3124,-4.8495,-4.8363,-4.8324,-4.8324,-4.8324,-4.8324,-4.8248,-4.8187,-4.8128,-4.7968,-4.7759,-4.7533,-4.697,-4.6114,-4.4822,-4.3756,-4.2789,-4.1585,-4.084,-4.0576,-4.0412,-4.0305,-4.0188,-4.0121,-4.0113,-4.0113,-4.0113,-4.0113,-4.0113,-4.0113,-4.0113,-4.0113,-4.0113,-4.0113,-4.0113,-4.0113,-4.0113,-4.0045,-3.9833,-3.9703,-3.9625,-3.9104,-3.8738,-3.85,-3.8119,-3.7685,-3.7224,-3.7075,-3.6708,-3.6211,-3.6037,-3.6059,-3.63,-3.6978,-3.7808,-3.8646,-3.914,-3.9388,-3.9388,-3.9388,-3.9388,-3.9388,-3.9388,-3.9388,-3.9388,-3.9388,-3.9388,-3.9388,-3.9388,-3.9388,-3.9388,-3.9388,-3.9388,-3.9388,-3.9388,-3.9388,-3.9388,-3.9388,-3.9388,-3.9388,-3.9388,-3.9388,-3.9388,-3.9388,-3.9388,-3.9388,-3.9388,-3.9337,-3.9141,-3.9017,-3.8885,-3.8478,-3.8254,-3.7953,-3.7687,-3.7534,-3.7534,-3.7187,-3.664,-3.6191,-3.5871,-3.548,-3.5031,-3.4522,-3.4118,-3.3781,-3.3484,-3.324,-3.3111,-3.3124,-3.3124,-3.3124,-3.3124,-3.3124,-3.3124,-4.8569,-4.8494,-4.8363,-4.8324,-4.8324,-4.8324,-4.8267,-4.8207,-4.8187,-4.8067,-4.7884,-4.772,-4.7432,-4.6842,-4.5343,-4.4289,-4.353,-4.2009,-4.1045,-4.0697,-4.0558,-4.0412,-4.028,-4.0163,-4.0113,-4.0113,-4.0113,-4.0113,-4.0113,-4.0113,-4.0113,-4.0113,-4.0113,-4.0113,-4.0113,-4.0113,-4.0113,-4.0062,-3.9833,-3.9703,-3.9625,-3.9104,-3.8667,-3.842,-3.8078,-3.7685,-3.7224,-3.7075,-3.6708,-3.6115,-3.6005,-3.6449,-3.7113,-3.7375,-3.7988,-3.9095,-3.9409,-3.9388,-3.9388,-3.9388,-3.9388,-3.9388,-3.9388,-3.9388,-3.9388,-3.9388,-3.9388,-3.9388,-3.9388,-3.9388,-3.9388,-3.9388,-3.9388,-3.9388,-3.9388,-3.9388,-3.9388,-3.9388,-3.9388,-3.9388,-3.9388,-3.9388,-3.9388,-3.9388,-3.9388,-3.9388,-3.9388,-3.9301,-3.9068,-3.887,-3.8612,-3.8277,-3.7953,-3.761,-3.7303,-3.6978,-3.6978,-3.6861,-3.623,-3.575,-3.5521,-3.5154,-3.4743,-3.4285,-3.3865,-3.3526,-3.3368,-3.3111,-3.3124,-3.3124,-3.3124,-3.3124,-3.3124,-3.3124,-3.3124,-4.8569,-4.8476,-4.8363,-4.8324,-4.8324,-4.8324,-4.8305,-4.8267,-4.8226,-4.809,-4.7968,-4.7783,-4.7551,-4.7038,-4.594,-4.488,-4.3973,-4.2707,-4.169,-4.0933,-4.0607,-4.0436,-4.0305,-4.0163,-4.0113,-4.0113,-4.0113,-4.0113,-4.0113,-4.0113,-4.0113,-4.0113,-4.0113,-4.0113,-4.0113,-4.0113,-4.0113,-4.0087,-3.9816,-3.9703,-3.9651,-3.9104,-3.8683,-3.8391,-3.8078,-3.7642,-3.7105,-3.703,-3.6677,-3.6052,-3.602,-3.6451,-3.7188,-3.7404,-3.8013,-3.9179,-3.9388,-3.9388,-3.9388,-3.9388,-3.9388,-3.9388,-3.9388,-3.9388,-3.9388,-3.9388,-3.9388,-3.9388,-3.9388,-3.9388,-3.9388,-3.9388,-3.9388,-3.9388,-3.9388,-3.9388,-3.9388,-3.9388,-3.9388,-3.9388,-3.9388,-3.9388,-3.9388,-3.9388,-3.9388,-3.9373,-3.9286,-3.9141,-3.8907,-3.8612,-3.8315,-3.8043,-3.7649,-3.7264,-3.694,-3.6547,-3.631,-3.623,-3.579,-3.5386,-3.5154,-3.4867,-3.4452,-3.4034,-3.3611,-3.3368,-3.3167,-3.3124,-3.3124,-3.3124,-3.3124,-3.3124,-3.3124,-3.3124,-3.3124,-4.8624,-4.8532,-4.842,-4.8343,-4.8324,-4.8324,-4.8324,-4.8287,-4.8229,-4.8149,-4.7992,-4.7886,-4.7639,-4.7201,-4.6319,-4.5285,-4.4208,-4.316,-4.2068,-4.1099,-4.0655,-4.0461,-4.0337,-4.0188,-4.0113,-4.0113,-4.0113,-4.0113,-4.0113,-4.0113,-4.0113,-4.0113,-4.0113,-4.0113,-4.0113,-4.0113,-4.0113,-4.0045,-3.9858,-3.9703,-3.9573,-3.9104,-3.8667,-3.8408,-3.8078,-3.7583,-3.706,-3.6999,-3.6677,-3.61,-3.5878,-3.6333,-3.7255,-3.7434,-3.8003,-3.9059,-3.9388,-3.9388,-3.9388,-3.9388,-3.9388,-3.9388,-3.9388,-3.9388,-3.9388,-3.9388,-3.9388,-3.9388,-3.9388,-3.9388,-3.9388,-3.9388,-3.9388,-3.9388,-3.9388,-3.9388,-3.9388,-3.9388,-3.9388,-3.9388,-3.9388,-3.9388,-3.9388,-3.9388,-3.9352,-3.9301,-3.9177,-3.8958,-3.8723,-3.8427,-3.8142,-3.7815,-3.7394,-3.7031,-3.6626,-3.6151,-3.5683,-3.5521,-3.5318,-3.5031,-3.4784,-3.4535,-3.4202,-3.3781,-3.3368,-3.3283,-3.3124,-3.3124,-3.3124,-3.3124,-3.3124,-3.3124,-3.3124,-3.3124,-3.3124,-4.8732,-4.8587,-4.8513,-4.8419,-4.8324,-4.8324,-4.8324,-4.8324,-4.8305,-4.819,-4.8032,-4.7992,-4.7809,-4.737,-4.6575,-4.5583,-4.4449,-4.3477,-4.2316,-4.1349,-4.0782,-4.0534,-4.0436,-4.0213,-4.0113,-4.0113,-4.0113,-4.0113,-4.0113,-4.0113,-4.0113,-4.0113,-4.0113,-4.0113,-4.0113,-4.0113,-4.0113,-4.0045,-3.9833,-3.9703,-3.9661,-3.9104,-3.8683,-3.8391,-3.8062,-3.7612,-3.709,-3.6877,-3.6585,-3.6037,-3.5716,-3.6076,-3.7075,-3.7375,-3.8003,-3.9149,-3.9343,-3.9388,-3.9388,-3.9388,-3.9388,-3.9388,-3.9388,-3.9388,-3.9388,-3.9388,-3.9388,-3.9388,-3.9388,-3.9388,-3.9388,-3.9388,-3.9388,-3.9388,-3.9388,-3.9388,-3.9388,-3.9388,-3.9388,-3.9388,-3.9388,-3.9388,-3.9388,-3.9388,-3.9265,-3.9156,-3.9068,-3.8811,-3.8538,-3.824,-3.7976,-3.7558,-3.7148,-3.6719,-3.627,-3.5871,-3.5399,-3.5031,-3.4867,-3.466,-3.441,-3.416,-3.3907,-3.3539,-3.3283,-3.3167,-3.3124,-3.3124,-3.3124,-3.3124,-3.3124,-3.3124,-3.3124,-3.3111,-3.3074,-4.8767,-4.8605,-4.8513,-4.8419,-4.8324,-4.8324,-4.8324,-4.8324,-4.8324,-4.8229,-4.8168,-4.8032,-4.7868,-4.76,-4.7169,-4.6082,-4.4667,-4.3991,-4.277,-4.1366,-4.0924,-4.0631,-4.0362,-4.0188,-4.0113,-4.0113,-4.0113,-4.0113,-4.0113,-4.0113,-4.0113,-4.0113,-4.0113,-4.0113,-4.0113,-4.0113,-4.0113,-4.0062,-3.9833,-3.9703,-3.9625,-3.9104,-3.8683,-3.8391,-3.8078,-3.7612,-3.6999,-3.6523,-3.6241,-3.6005,-3.5683,-3.5863,-3.6686,-3.715,-3.7764,-3.8571,-3.914,-3.9388,-3.9373,-3.9388,-3.9388,-3.9388,-3.9388,-3.9388,-3.9388,-3.9388,-3.9388,-3.9388,-3.9388,-3.9388,-3.9388,-3.9388,-3.9388,-3.9388,-3.9388,-3.9388,-3.9388,-3.9388,-3.9388,-3.9388,-3.9388,-3.9388,-3.9388,-3.9265,-3.9192,-3.9068,-3.8848,-3.859,-3.8292,-3.7938,-3.7596,-3.7211,-3.6797,-3.6363,-3.5924,-3.5521,-3.5072,-3.466,-3.4452,-3.4272,-3.4076,-3.3865,-3.3581,-3.324,-3.3197,-3.3124,-3.3124,-3.3124,-3.3124,-3.3124,-3.3124,-3.3124,-3.3056,-3.3043,-3.2968,-4.8875,-4.8678,-4.8587,-4.8476,-4.84,-4.8325,-4.8324,-4.8324,-4.8305,-4.8267,-4.8187,-4.8052,-4.7929,-4.7759,-4.741,-4.6287,-4.4698,-4.4311,-4.3072,-4.1377,-4.0853,-4.0558,-4.0313,-4.0163,-4.0113,-4.0113,-4.0113,-4.0113,-4.0113,-4.0113,-4.0113,-4.0113,-4.0113,-4.0113,-4.0113,-4.0113,-4.0113,-4.0045,-3.9841,-3.9703,-3.9651,-3.9088,-3.8711,-3.8391,-3.8078,-3.7612,-3.6999,-3.6352,-3.6005,-3.5925,-3.5714,-3.5804,-3.6417,-3.6806,-3.7434,-3.8287,-3.8781,-3.908,-3.9328,-3.9388,-3.9388,-3.9388,-3.9388,-3.9388,-3.9388,-3.9388,-3.9388,-3.9388,-3.9388,-3.9388,-3.9388,-3.9388,-3.9388,-3.9388,-3.9388,-3.9388,-3.9388,-3.9388,-3.9388,-3.9388,-3.9388,-3.9388,-3.9388,-3.9228,-3.9068,-3.8922,-3.8612,-3.8366,-3.8066,-3.7649,-3.7264,-3.6875,-3.6443,-3.6005,-3.5588,-3.5182,-3.4784,-3.4327,-3.3992,-3.3865,-3.3738,-3.3569,-3.3368,-3.3167,-3.3124,-3.3099,-3.3061,-3.3061,-3.3124,-3.3124,-3.3124,-3.2973,-3.2817,-3.2717,-3.2679,-4.8998,-4.8804,-4.8678,-4.8569,-4.8476,-4.8363,-4.8324,-4.8324,-4.8324,-4.8267,-4.8189,-4.8052,-4.797,-4.7881,-4.7454,-4.6348,-4.4721,-4.4423,-4.2994,-4.1592,-4.0765,-4.0461,-4.0337,-4.0171,-4.0096,-4.0113,-4.0113,-4.0113,-4.0113,-4.0113,-4.0113,-4.0113,-4.0113,-4.0113,-4.0113,-4.0113,-4.0113,-4.0062,-3.9833,-3.9703,-3.9599,-3.9131,-3.8694,-3.8448,-3.7947,-3.7524,-3.6953,-3.6383,-3.602,-3.602,-3.5683,-3.5821,-3.6312,-3.6402,-3.6985,-3.7913,-3.8302,-3.8721,-3.9149,-3.9284,-3.9388,-3.9388,-3.9388,-3.9388,-3.9388,-3.9388,-3.9388,-3.9388,-3.9388,-3.9388,-3.9388,-3.9388,-3.9388,-3.9388,-3.9388,-3.9388,-3.9388,-3.9388,-3.9388,-3.9388,-3.9388,-3.9388,-3.9352,-3.9192,-3.8995,-3.8664,-3.8366,-3.8066,-3.7763,-3.7366,-3.7017,-3.6665,-3.6191,-3.5683,-3.5277,-3.4853,-3.4439,-3.4034,-3.3654,-3.3454,-3.3441,-3.3326,-3.3197,-3.3124,-3.3124,-3.3023,-3.283,-3.288,-3.2948,-3.2747,-3.2453,-3.2353,-3.2277,-3.2177,-3.2114,-4.9046,-4.8874,-4.8678,-4.855,-4.8494,-4.8363,-4.8324,-4.8324,-4.8324,-4.8287,-4.8229,-4.8072,-4.801,-4.7949,-4.7442,-4.6374,-4.4843,-4.4267,-4.3158,-4.1325,-4.071,-4.051,-4.0412,-4.0221,-4.0096,-4.0113,-4.0113,-4.0113,-4.0113,-4.0113,-4.0113,-4.0113,-4.0113,-4.0113,-4.0113,-4.0113,-4.0113,-4.0062,-3.9833,-3.9703,-3.9599,-3.9131,-3.8722,-3.846,-3.777,-3.727,-3.6938,-3.6367,-3.602,-3.5925,-3.5716,-3.5609,-3.5833,-3.6207,-3.6626,-3.7075,-3.7883,-3.8422,-3.8676,-3.908,-3.9388,-3.9409,-3.9388,-3.9388,-3.9388,-3.9388,-3.9388,-3.9388,-3.9388,-3.9388,-3.9388,-3.9388,-3.9388,-3.9388,-3.9388,-3.9388,-3.9388,-3.9388,-3.9388,-3.9388,-3.9388,-3.9352,-3.9192,-3.8995,-3.8723,-3.8389,-3.8104,-3.7763,-3.7419,-3.7095,-3.6705,-3.631,-3.5871,-3.5358,-3.4936,-3.4483,-3.3972,-3.3601,-3.3208,-3.2924,-3.2882,-3.2945,-3.2784,-3.2923,-3.3124,-3.2923,-3.2466,-3.239,-3.234,-3.2064,-3.1838,-3.1763,-3.17,-3.1625,-3.1449,-4.9148,-4.8979,-4.8786,-4.8624,-4.8532,-4.842,-4.8363,-4.8324,-4.8324,-4.8324,-4.8248,-4.8092,-4.8012,-4.7951,-4.7464,-4.6396,-4.4764,-4.3439,-4.2349,-4.1227,-4.0734,-4.051,-4.0436,-4.0263,-4.0113,-4.0113,-4.0113,-4.0113,-4.0113,-4.0113,-4.0113,-4.0113,-4.0113,-4.0113,-4.0113,-4.0113,-4.0113,-4.0045,-3.9833,-3.9703,-3.9625,-3.9131,-3.8567,-3.8246,-3.7565,-3.715,-3.6969,-3.6352,-3.6052,-3.591,-3.5668,-3.5489,-3.5519,-3.5848,-3.6148,-3.6596,-3.7015,-3.7868,-3.8302,-3.8721,-3.908,-3.9394,-3.9388,-3.9388,-3.9388,-3.9388,-3.9388,-3.9388,-3.9388,-3.9388,-3.9388,-3.9388,-3.9388,-3.9388,-3.9388,-3.9388,-3.9388,-3.9388,-3.9388,-3.9388,-3.9316,-3.9228,-3.9068,-3.8833,-3.8575,-3.8292,-3.7915,-3.7572,-3.7134,-3.6783,-3.631,-3.5911,-3.5521,-3.5072,-3.4647,-3.4124,-3.352,-3.3073,-3.2697,-3.2332,-3.2131,-3.2244,-3.2332,-3.2495,-3.2621,-3.2215,-3.1863,-3.1825,-3.1788,-3.1675,-3.1499,-3.1286,-3.1122,-3.106,-3.0821,-4.9246,-4.9101,-4.8911,-4.8732,-4.8605,-4.8513,-4.842,-4.8324,-4.8324,-4.8324,-4.8267,-4.8111,-4.8032,-4.7911,-4.7578,-4.6385,-4.4553,-4.2679,-4.1501,-4.118,-4.0806,-4.0566,-4.0461,-4.0288,-4.0138,-4.0113,-4.0113,-4.0113,-4.0113,-4.0113,-4.0113,-4.0113,-4.0113,-4.0113,-4.0113,-4.0113,-4.0113,-4.007,-3.9858,-3.9703,-3.9599,-3.9088,-3.8528,-3.796,-3.7522,-3.718,-3.6908,-3.6398,-3.602,-3.5988,-3.5683,-3.5522,-3.5489,-3.5534,-3.5699,-3.6312,-3.6522,-3.7045,-3.7778,-3.8257,-3.8691,-3.9245,-3.9358,-3.9388,-3.9388,-3.9388,-3.9388,-3.9388,-3.9388,-3.9388,-3.9388,-3.9388,-3.9388,-3.9388,-3.9388,-3.9388,-3.9388,-3.9388,-3.9388,-3.9388,-3.9265,-3.9141,-3.8958,-3.8723,-3.8441,-3.8142,-3.7763,-3.7341,-3.69,-3.6429,-3.5991,-3.5548,-3.5141,-3.4605,-3.4147,-3.363,-3.3055,-3.26,-3.2177,-3.1863,-3.1549,-3.1524,-3.165,-3.1863,-3.1863,-3.1549,-3.1348,-3.1286,-3.126,-3.1248,-3.1035,-3.0708,-3.0557,-3.0495,-3.0281,-4.9289,-4.9181,-4.896,-4.8767,-4.8605,-4.8532,-4.8438,-4.8324,-4.8324,-4.8324,-4.8287,-4.8226,-4.809,-4.7951,-4.7762,-4.65,-4.451,-4.2622,-4.152,-4.1192,-4.0901,-4.0745,-4.0485,-4.0355,-4.023,-4.0138,-4.0113,-4.0113,-4.0113,-4.0113,-4.0113,-4.0113,-4.0113,-4.0113,-4.0113,-4.0113,-4.0214,-4.0231,-4.006,-3.9955,-3.9807,-3.9319,-3.869,-3.8075,-3.7678,-3.7333,-3.6908,-3.6398,-3.602,-3.5988,-3.5683,-3.5522,-3.5489,-3.5489,-3.5579,-3.5774,-3.6163,-3.6596,-3.703,-3.7808,-3.8302,-3.8676,-3.9035,-3.9313,-3.9343,-3.9388,-3.9388,-3.9388,-3.9388,-3.9388,-3.9388,-3.9388,-3.9388,-3.9388,-3.9388,-3.9388,-3.9388,-3.9388,-3.9388,-3.9337,-3.9177,-3.898,-3.876,-3.8501,-3.8165,-3.7839,-3.7495,-3.6993,-3.6482,-3.6085,-3.5669,-3.5223,-3.4771,-3.4189,-3.3641,-3.3113,-3.2561,-3.2167,-3.1763,-3.1474,-3.1173,-3.0934,-3.0972,-3.116,-3.1248,-3.111,-3.0947,-3.0783,-3.062,-3.052,-3.0294,-3.0093,-3.0118,-3.0143,-3.0068,-4.9402,-4.9244,-4.9064,-4.8839,-4.8605,-4.855,-4.8439,-4.8324,-4.8324,-4.8324,-4.8286,-4.8228,-4.8128,-4.799,-4.7804,-4.6518,-4.4506,-4.2634,-4.1639,-4.1232,-4.0971,-4.0752,-4.0544,-4.0413,-4.0238,-4.0138,-4.0113,-4.013,-4.0113,-4.0113,-4.0113,-4.0113,-4.0113,-4.0113,-4.0231,-4.051,-4.0612,-4.0645,-4.0723,-4.0799,-4.0762,-4.021,-3.9487,-3.863,-3.8102,-3.7646,-3.6954,-3.6367,-3.602,-3.5957,-3.5683,-3.5522,-3.5489,-3.5489,-3.5489,-3.5564,-3.5818,-3.6163,-3.6417,-3.715,-3.7464,-3.7913,-3.8512,-3.8856,-3.899,-3.9155,-3.9373,-3.9388,-3.9388,-3.9388,-3.9388,-3.9388,-3.9388,-3.9388,-3.9388,-3.9388,-3.9388,-3.9388,-3.9337,-3.925,-3.9053,-3.8833,-3.8612,-3.8277,-3.7915,-3.7534,-3.7187,-3.6652,-3.6097,-3.5642,-3.5224,-3.4643,-3.4112,-3.3527,-3.2962,-3.2431,-3.201,-3.1631,-3.1286,-3.0984,-3.0721,-3.0444,-3.0344,-3.0407,-3.0457,-3.0595,-3.0407,-3.0193,-2.9993,-2.9867,-2.9905,-2.9917,-2.9842,-2.9792,-2.9779,-4.9529,-4.9305,-4.9183,-4.8945,-4.8696,-4.8605,-4.8513,-4.8344,-4.8306,-4.8324,-4.8305,-4.8228,-4.8149,-4.786,-4.7234,-4.6079,-4.4395,-4.2682,-4.1784,-4.1609,-4.1394,-4.1116,-4.0996,-4.083,-4.0841,-4.0823,-4.0739,-4.0367,-4.013,-4.0113,-4.0113,-4.0113,-4.0113,-4.0231,-4.0426,-4.0865,-4.1187,-4.1488,-4.1671,-4.186,-4.1627,-4.121,-4.0447,-3.9273,-3.8767,-3.807,-3.7327,-3.6428,-3.6067,-3.5925,-3.5701,-3.5489,-3.5489,-3.5489,-3.5489,-3.5489,-3.5489,-3.5804,-3.6118,-3.6507,-3.6851,-3.721,-3.7838,-3.8182,-3.8586,-3.902,-3.9388,-3.9388,-3.9388,-3.9388,-3.9388,-3.9388,-3.9388,-3.9388,-3.9388,-3.9388,-3.9388,-3.9337,-3.9177,-3.9053,-3.887,-3.8605,-3.8339,-3.8104,-3.7687,-3.7211,-3.6861,-3.6219,-3.5638,-3.5117,-3.4632,-3.3973,-3.3366,-3.2777,-3.2231,-3.1697,-3.1329,-3.105,-3.0708,-3.0407,-3.0156,-2.9905,-2.9917,-3.0018,-2.998,-3.0068,-2.9842,-2.9779,-2.9804,-2.9817,-2.9792,-2.9779,-2.9779,-2.9779,-2.9779,-4.963,-4.9384,-4.9262,-4.9062,-4.8856,-4.866,-4.855,-4.8457,-4.8343,-4.8324,-4.8324,-4.8267,-4.817,-4.7678,-4.6132,-4.5213,-4.4282,-4.302,-4.2172,-4.2219,-4.2212,-4.2213,-4.2355,-4.245,-4.2014,-4.179,-4.1856,-4.1247,-4.062,-4.0333,-4.0231,-4.0282,-4.04,-4.0434,-4.1052,-4.1407,-4.1525,-4.2013,-4.2041,-4.1755,-4.1346,-4.1173,-4.0694,-3.9895,-3.9039,-3.8338,-3.7701,-3.6721,-3.6037,-3.5941,-3.5683,-3.5489,-3.5489,-3.5489,-3.5489,-3.5489,-3.5504,-3.5534,-3.5744,-3.6088,-3.6387,-3.6656,-3.7165,-3.7764,-3.8257,-3.8781,-3.92,-3.9388,-3.9343,-3.9373,-3.9373,-3.9388,-3.9388,-3.9388,-3.9388,-3.9388,-3.9388,-3.925,-3.909,-3.8715,-3.8473,-3.823,-3.8007,-3.7776,-3.7471,-3.7031,-3.6464,-3.5766,-3.5073,-3.4447,-3.3857,-3.3148,-3.2607,-3.2011,-3.1592,-3.105,-3.0758,-3.0507,-3.0269,-2.9967,-2.988,-2.9779,-2.9779,-2.9842,-2.9779,-2.9779,-2.9779,-2.9779,-2.9779,-2.9779,-2.9779,-2.9779,-2.9779,-2.9779,-2.9779,-4.9759,-4.9495,-4.9276,-4.9079,-4.8891,-4.8696,-4.8569,-4.8476,-4.8363,-4.8324,-4.8324,-4.8324,-4.819,-4.7605,-4.6015,-4.5045,-4.4527,-4.3319,-4.2666,-4.2742,-4.2869,-4.2968,-4.2825,-4.2749,-4.2576,-4.2547,-4.2323,-4.2033,-4.145,-4.1365,-4.1348,-4.1271,-4.1314,-4.1517,-4.1847,-4.2252,-4.2591,-4.2915,-4.3004,-4.2812,-4.2374,-4.2116,-4.1666,-4.0635,-3.9656,-3.881,-3.7904,-3.683,-3.6115,-3.5958,-3.5718,-3.5572,-3.5522,-3.5489,-3.5489,-3.5489,-3.5489,-3.5504,-3.5549,-3.5789,-3.5923,-3.6103,-3.6537,-3.715,-3.7734,-3.8123,-3.8527,-3.8811,-3.8826,-3.899,-3.9269,-3.9388,-3.9388,-3.9388,-3.9388,-3.9328,-3.9277,-3.9162,-3.8957,-3.8502,-3.7982,-3.7542,-3.7197,-3.6891,-3.6486,-3.5969,-3.5386,-3.4675,-3.4043,-3.345,-3.2839,-3.2239,-3.1718,-3.124,-3.0918,-3.0507,-3.0294,-3.0093,-3.0093,-2.9854,-2.9829,-2.9779,-2.9779,-2.9779,-2.9779,-2.9779,-2.9779,-2.9779,-2.9779,-2.9779,-2.9779,-2.9779,-2.9779,-2.9779,-2.9779,-4.9857,-4.9589,-4.9324,-4.9129,-4.8942,-4.8695,-4.8569,-4.8513,-4.8344,-4.8324,-4.8305,-4.8267,-4.8097,-4.7445,-4.6041,-4.5003,-4.4444,-4.3668,-4.3284,-4.3208,-4.3467,-4.3744,-4.3718,-4.3477,-4.3293,-4.3051,-4.3162,-4.299,-4.2956,-4.2838,-4.2675,-4.2337,-4.2066,-4.2337,-4.2658,-4.2997,-4.3325,-4.3597,-4.3809,-4.3652,-4.324,-4.3045,-4.24,-4.1401,-4.0292,-3.9203,-3.8263,-3.6955,-3.6241,-3.599,-3.5784,-3.5621,-3.5537,-3.5489,-3.5489,-3.5489,-3.5489,-3.5489,-3.5489,-3.5564,-3.5504,-3.5699,-3.6073,-3.6795,-3.709,-3.727,-3.7524,-3.8138,-3.8153,-3.8512,-3.896,-3.9125,-3.9194,-3.9269,-3.9388,-3.9284,-3.9113,-3.8799,-3.8366,-3.7788,-3.7142,-3.6404,-3.6055,-3.5818,-3.5391,-3.4877,-3.4262,-3.3607,-3.2972,-3.2398,-3.1861,-3.1298,-3.0987,-3.059,-3.0385,-3.008,-2.9842,-2.9779,-2.9779,-2.9779,-2.9779,-2.9779,-2.9779,-2.9779,-2.9779,-2.9779,-2.9779,-2.9779,-2.9779,-2.9779,-2.9779,-2.9779,-2.9779,-2.9779,-2.9779,-4.9885,-4.9678,-4.9402,-4.9244,-4.911,-4.8767,-4.8587,-4.8569,-4.8382,-4.8324,-4.8287,-4.8154,-4.7636,-4.6805,-4.5809,-4.472,-4.3863,-4.3476,-4.3581,-4.3962,-4.4408,-4.4755,-4.4751,-4.466,-4.4582,-4.4463,-4.4145,-4.4158,-4.4327,-4.4022,-4.3386,-4.2523,-4.2709,-4.2895,-4.3166,-4.3538,-4.3793,-4.3985,-4.4133,-4.3906,-4.3522,-4.3235,-4.2785,-4.201,-4.0735,-3.9534,-3.8966,-3.7374,-3.632,-3.6037,-3.5831,-3.5653,-3.5537,-3.5489,-3.5489,-3.5489,-3.5489,-3.5489,-3.5489,-3.5489,-3.5489,-3.5699,-3.6013,-3.6387,-3.6537,-3.7075,-3.7375,-3.7434,-3.7494,-3.7808,-3.8212,-3.8512,-3.8676,-3.8805,-3.882,-3.8701,-3.846,-3.8157,-3.7683,-3.7055,-3.6385,-3.5626,-3.4932,-3.4685,-3.4418,-3.39,-3.3314,-3.2663,-3.1938,-3.1319,-3.0855,-3.0405,-3.0173,-2.9956,-2.9943,-2.9779,-2.9779,-2.9779,-2.9779,-2.9779,-2.9779,-2.9779,-2.9779,-2.9779,-2.9779,-2.9779,-2.9779,-2.9779,-2.9779,-2.9779,-2.9779,-2.9779,-2.9779,-2.9779,-2.9779,-4.9925,-4.9678,-4.9446,-4.9289,-4.9181,-4.8767,-4.8587,-4.8569,-4.8401,-4.8324,-4.8232,-4.7753,-4.7273,-4.6515,-4.5344,-4.4421,-4.3924,-4.4145,-4.4143,-4.4442,-4.4935,-4.543,-4.5477,-4.522,-4.4934,-4.4886,-4.472,-4.4598,-4.4547,-4.4598,-4.4395,-4.3836,-4.3582,-4.3853,-4.4079,-4.4045,-4.4198,-4.4175,-4.4155,-4.3952,-4.3611,-4.3265,-4.2867,-4.23,-4.0718,-3.9676,-3.8935,-3.7452,-3.6614,-3.61,-3.5926,-3.5733,-3.5554,-3.5489,-3.5489,-3.5489,-3.5489,-3.5489,-3.5489,-3.5489,-3.5489,-3.5534,-3.5744,-3.5908,-3.5953,-3.6163,-3.6492,-3.6656,-3.6851,-3.712,-3.7644,-3.7793,-3.7898,-3.8073,-3.8147,-3.8038,-3.7749,-3.7449,-3.6913,-3.6245,-3.5613,-3.4903,-3.4221,-3.357,-3.3265,-3.2923,-3.2369,-3.1765,-3.1137,-3.0625,-3.0279,-3.0049,-2.9856,-2.9818,-2.9779,-2.9779,-2.9779,-2.9779,-2.9779,-2.9779,-2.9779,-2.9779,-2.9779,-2.9779,-2.9779,-2.9779,-2.9779,-2.9779,-2.9779,-2.9779,-2.9779,-2.9779,-2.9779,-2.9779,-2.9779,-4.9952,-4.9721,-4.951,-4.9321,-4.9146,-4.8767,-4.8587,-4.8569,-4.8383,-4.8122,-4.7901,-4.7333,-4.6651,-4.5915,-4.5038,-4.3973,-4.382,-4.4169,-4.4373,-4.4746,-4.5218,-4.574,-4.5589,-4.5291,-4.4995,-4.494,-4.4748,-4.4598,-4.4598,-4.4598,-4.4513,-4.4496,-4.4598,-4.4547,-4.4547,-4.457,-4.4525,-4.4384,-4.4184,-4.4027,-4.3717,-4.3325,-4.299,-4.2329,-4.0859,-3.9801,-3.8984,-3.7748,-3.6708,-3.6304,-3.6052,-3.5861,-3.5668,-3.5522,-3.5489,-3.5489,-3.5489,-3.5489,-3.5489,-3.5489,-3.5489,-3.5519,-3.5519,-3.5549,-3.5489,-3.5504,-3.5893,-3.6088,-3.6207,-3.6447,-3.703,-3.715,-3.736,-3.7614,-3.7669,-3.756,-3.7074,-3.6709,-3.6085,-3.5419,-3.4831,-3.4263,-3.3584,-3.2905,-3.2541,-3.2196,-3.1726,-3.1249,-3.0803,-3.0394,-3.0126,-2.9934,-2.9818,-2.9779,-2.9779,-2.9779,-2.9779,-2.9779,-2.9779,-2.9779,-2.9779,-2.9779,-2.9779,-2.9779,-2.9779,-2.9779,-2.9779,-2.9779,-2.9779,-2.9779,-2.9779,-2.9779,-2.9779,-2.9779,-2.9779,-4.9997,-4.9759,-4.9525,-4.9321,-4.9162,-4.8785,-4.8587,-4.8532,-4.8291,-4.7828,-4.7259,-4.6984,-4.6048,-4.4875,-4.4382,-4.372,-4.3302,-4.4088,-4.4549,-4.462,-4.5256,-4.5745,-4.5624,-4.5327,-4.5022,-4.494,-4.4748,-4.4598,-4.4598,-4.4598,-4.4598,-4.4598,-4.4598,-4.4598,-4.4598,-4.4598,-4.457,-4.4559,-4.4258,-4.4097,-4.3923,-4.3446,-4.3052,-4.2272,-4.0997,-3.9908,-3.8998,-3.7778,-3.6801,-3.646,-3.6163,-3.5941,-3.5703,-3.5572,-3.5522,-3.5489,-3.5489,-3.5489,-3.5489,-3.5489,-3.5489,-3.5489,-3.5489,-3.5489,-3.5489,-3.5504,-3.5519,-3.5759,-3.5684,-3.5908,-3.6252,-3.6537,-3.6806,-3.6941,-3.7015,-3.6854,-3.6323,-3.6024,-3.5419,-3.4903,-3.4324,-3.3703,-3.2986,-3.235,-3.1904,-3.1487,-3.1063,-3.0698,-3.0419,-3.019,-2.996,-2.9895,-2.9779,-2.9779,-2.9779,-2.9779,-2.9779,-2.9779,-2.9779,-2.9779,-2.9779,-2.9779,-2.9779,-2.9779,-2.9779,-2.9779,-2.9779,-2.9779,-2.9779,-2.9779,-2.9779,-2.9779,-2.9779,-2.9779,-2.9779,-4.9978,-4.9778,-4.9506,-4.9321,-4.9146,-4.8767,-4.8587,-4.8458,-4.7849,-4.7351,-4.6892,-4.6067,-4.526,-4.4492,-4.3871,-4.3341,-4.3094,-4.3526,-4.4067,-4.4502,-4.5123,-4.5481,-4.5502,-4.5327,-4.5022,-4.494,-4.4748,-4.4598,-4.4598,-4.4598,-4.4598,-4.4598,-4.4598,-4.4598,-4.4598,-4.4598,-4.4598,-4.4559,-4.4315,-4.4097,-4.4039,-4.3549,-4.2914,-4.2199,-4.0892,-3.9806,-3.898,-3.7666,-3.6924,-3.6538,-3.6289,-3.6022,-3.5784,-3.5653,-3.5557,-3.5522,-3.5489,-3.5489,-3.5489,-3.5489,-3.5489,-3.5489,-3.5489,-3.5489,-3.5489,-3.5489,-3.5489,-3.5489,-3.5489,-3.5684,-3.5789,-3.5833,-3.5983,-3.5968,-3.5965,-3.5785,-3.544,-3.5292,-3.4945,-3.4525,-3.3985,-3.3368,-3.2682,-3.2119,-3.1633,-3.1174,-3.0798,-3.0508,-3.0267,-3.0037,-2.9818,-2.9818,-2.9779,-2.9779,-2.9779,-2.9779,-2.9779,-2.9779,-2.9779,-2.9779,-2.9779,-2.9779,-2.9779,-2.9779,-2.9779,-2.9779,-2.9779,-2.9779,-2.9779,-2.9779,-2.9779,-2.9779,-2.9779,-2.9779,-2.9779,-4.9992,-4.9802,-4.9521,-4.934,-4.9146,-4.8767,-4.8439,-4.8016,-4.7352,-4.6837,-4.6104,-4.5095,-4.4472,-4.4071,-4.3543,-4.3087,-4.2973,-4.3518,-4.4002,-4.4427,-4.487,-4.5345,-4.5535,-4.538,-4.514,-4.4995,-4.4803,-4.4654,-4.4598,-4.4598,-4.4598,-4.4598,-4.4598,-4.4598,-4.4598,-4.4598,-4.4598,-4.4514,-4.4344,-4.4155,-4.391,-4.3405,-4.2703,-4.1831,-4.0737,-3.9588,-3.8672,-3.7787,-3.6984,-3.6693,-3.6414,-3.6148,-3.5926,-3.572,-3.5638,-3.5554,-3.5489,-3.5489,-3.5489,-3.5489,-3.5489,-3.5489,-3.5489,-3.5489,-3.5489,-3.5489,-3.5489,-3.5489,-3.5489,-3.5504,-3.5519,-3.5489,-3.5504,-3.5519,-3.5454,-3.5338,-3.5093,-3.496,-3.4727,-3.4244,-3.3799,-3.3157,-3.2467,-3.1973,-3.1447,-3.0986,-3.0545,-3.033,-3.0126,-2.9934,-2.9779,-2.9779,-2.9779,-2.9779,-2.9779,-2.9779,-2.9779,-2.9779,-2.9779,-2.9779,-2.9779,-2.9779,-2.9779,-2.9779,-2.9779,-2.9779,-2.9779,-2.9779,-2.9779,-2.9779,-2.9779,-2.9779,-2.9779,-2.9779,-2.9779,-5.0031,-4.9871,-4.9533,-4.9302,-4.9071,-4.8563,-4.7868,-4.7076,-4.6984,-4.6122,-4.4764,-4.4745,-4.4197,-4.354,-4.3269,-4.3123,-4.2992,-4.3484,-4.3844,-4.4307,-4.4687,-4.5218,-4.5473,-4.5442,-4.5203,-4.5005,-4.4858,-4.4709,-4.4598,-4.4598,-4.4598,-4.4598,-4.4598,-4.4598,-4.4598,-4.4598,-4.4598,-4.4542,-4.4384,-4.4112,-4.3738,-4.3107,-4.2373,-4.1471,-4.0365,-3.9443,-3.8624,-3.7884,-3.7318,-3.6938,-3.6677,-3.6352,-3.6068,-3.5831,-3.5653,-3.5522,-3.5489,-3.5489,-3.5489,-3.5489,-3.5489,-3.5489,-3.5489,-3.5489,-3.5489,-3.5489,-3.5489,-3.5489,-3.5489,-3.5489,-3.5489,-3.5489,-3.5489,-3.5504,-3.5504,-3.5294,-3.5016,-3.4783,-3.4515,-3.4142,-3.3695,-3.3065,-3.2241,-3.1669,-3.1373,-3.0836,-3.0444,-3.0305,-3.0088,-2.9946,-2.9792,-2.9779,-2.9779,-2.9779,-2.9779,-2.9779,-2.9779,-2.9779,-2.9779,-2.9779,-2.9779,-2.9779,-2.9779,-2.9779,-2.9779,-2.9779,-2.9779,-2.9779,-2.9779,-2.9779,-2.9779,-2.9779,-2.9779,-2.9779,-2.9779,-5.0031,-4.9852,-4.9551,-4.9002,-4.8247,-4.7285,-4.6652,-4.6232,-4.5663,-4.5021,-4.4673,-4.4085,-4.3737,-4.3445,-4.3268,-4.3178,-4.3085,-4.3074,-4.3297,-4.3732,-4.4314,-4.4646,-4.4993,-4.5269,-4.5188,-4.5032,-4.4858,-4.4737,-4.4626,-4.4598,-4.4598,-4.4598,-4.4598,-4.4598,-4.4598,-4.4581,-4.4547,-4.4457,-4.4294,-4.3917,-4.3456,-4.281,-4.1972,-4.0844,-4.0083,-3.9214,-3.8444,-3.7844,-3.7314,-3.7014,-3.677,-3.6445,-3.6052,-3.5941,-3.5814,-3.5522,-3.5489,-3.5489,-3.5489,-3.5489,-3.5489,-3.5489,-3.5489,-3.5489,-3.5489,-3.5489,-3.5489,-3.5489,-3.5489,-3.5489,-3.5489,-3.5489,-3.5489,-3.5489,-3.5457,-3.5261,-3.5016,-3.4802,-3.4501,-3.3937,-3.3486,-3.2816,-3.2023,-3.1706,-3.1373,-3.0761,-3.033,-3.019,-3.0049,-2.9869,-2.9792,-2.9792,-2.9779,-2.9779,-2.9779,-2.9779,-2.9779,-2.9779,-2.9779,-2.9779,-2.9779,-2.9779,-2.9779,-2.9779,-2.9779,-2.9779,-2.9779,-2.9779,-2.9779,-2.9779,-2.9779,-2.9779,-2.9779,-2.9779,-2.9779,-4.9822,-4.9359,-4.9062,-4.8134,-4.682,-4.603,-4.5455,-4.4965,-4.4764,-4.458,-4.4195,-4.3718,-4.3479,-4.3463,-4.3304,-4.3196,-4.3142,-4.2876,-4.2992,-4.3575,-4.3939,-4.4425,-4.4806,-4.519,-4.5267,-4.5113,-4.4913,-4.4803,-4.4654,-4.4598,-4.4598,-4.4598,-4.4598,-4.4598,-4.4513,-4.4248,-4.4062,-4.4035,-4.3883,-4.3569,-4.306,-4.2401,-4.1217,-4.0375,-3.9717,-3.8934,-3.8314,-3.7815,-3.7433,-3.7135,-3.6907,-3.6538,-3.6115,-3.5878,-3.5765,-3.5504,-3.5489,-3.5489,-3.5489,-3.5489,-3.5489,-3.5489,-3.5489,-3.5489,-3.5489,-3.5489,-3.5489,-3.5489,-3.5489,-3.5489,-3.5489,-3.5489,-3.5489,-3.5489,-3.5359,-3.5228,-3.5049,-3.4868,-3.4366,-3.3716,-3.3122,-3.2516,-3.2023,-3.1743,-3.1336,-3.0723,-3.033,-3.019,-3.0011,-2.9856,-2.9792,-2.9779,-2.9779,-2.9779,-2.9779,-2.9779,-2.9779,-2.9779,-2.9779,-2.9779,-2.9779,-2.9779,-2.9779,-2.9779,-2.9779,-2.9779,-2.9779,-2.9779,-2.9779,-2.9779,-2.9779,-2.9779,-2.9779,-2.9779,-2.9779,-4.9347,-4.8469,-4.8125,-4.6869,-4.5149,-4.4967,-4.4423,-4.3643,-4.4268,-4.4195,-4.3643,-4.3497,-4.3479,-4.3444,-4.3286,-4.3214,-4.3087,-4.2822,-4.2799,-4.3555,-4.4046,-4.4407,-4.4694,-4.5351,-4.539,-4.5167,-4.4968,-4.4831,-4.4654,-4.4598,-4.4598,-4.4598,-4.4598,-4.4513,-4.4231,-4.3842,-4.3555,-4.3291,-4.3111,-4.2837,-4.2482,-4.1657,-4.0598,-4.0127,-3.9429,-3.8683,-3.8391,-3.8062,-3.7685,-3.7314,-3.6998,-3.6647,-3.6132,-3.5701,-3.5569,-3.5504,-3.5489,-3.5489,-3.5489,-3.5489,-3.5489,-3.5489,-3.5489,-3.5489,-3.5489,-3.5489,-3.5489,-3.5489,-3.5489,-3.5489,-3.5489,-3.5489,-3.5489,-3.5457,-3.5326,-3.5195,-3.4968,-3.4668,-3.4128,-3.3542,-3.3037,-3.2431,-3.1877,-3.1572,-3.1299,-3.0672,-3.033,-3.019,-2.9972,-2.9818,-2.9779,-2.9779,-2.9779,-2.9779,-2.9779,-2.9779,-2.9779,-2.9779,-2.9779,-2.9779,-2.9779,-2.9779,-2.9779,-2.9779,-2.9779,-2.9779,-2.9779,-2.9779,-2.9779,-2.9779,-2.9779,-2.9779,-2.9779,-2.9779,-2.9779,-4.8017,-4.7579,-4.6576,-4.5661,-4.4947,-4.434,-4.3907,-4.3515,-4.3663,-4.3699,-4.3515,-4.3479,-4.3479,-4.3462,-4.3286,-4.3214,-4.3123,-4.2804,-4.2677,-4.3102,-4.3734,-4.4101,-4.4292,-4.5132,-4.5329,-4.5184,-4.4968,-4.4848,-4.4654,-4.4598,-4.4581,-4.4564,-4.4513,-4.4265,-4.3707,-4.3274,-4.297,-4.2574,-4.2057,-4.1827,-4.1509,-4.1164,-4.0491,-3.9817,-3.9067,-3.875,-3.8444,-3.8119,-3.7669,-3.7254,-3.7075,-3.6647,-3.6037,-3.5716,-3.5537,-3.5489,-3.5489,-3.5489,-3.5489,-3.5489,-3.5489,-3.5489,-3.5489,-3.5489,-3.5489,-3.5489,-3.5489,-3.5489,-3.5489,-3.5489,-3.5489,-3.5489,-3.5489,-3.5392,-3.5294,-3.5115,-3.4902,-3.4399,-3.3902,-3.3437,-3.2952,-3.2395,-3.1803,-3.141,-3.1136,-3.0836,-3.052,-3.0267,-2.9972,-2.9779,-2.9779,-2.9779,-2.9779,-2.9779,-2.9779,-2.9779,-2.9779,-2.9779,-2.9779,-2.9779,-2.9779,-2.9779,-2.9779,-2.9779,-2.9779,-2.9779,-2.9779,-2.9779,-2.9779,-2.9779,-2.9779,-2.9779,-2.9779,-2.9779,-2.9779,-4.7314,-4.6733,-4.55,-4.4774,-4.441,-4.3989,-4.3686,-4.3513,-4.3479,-4.3479,-4.3479,-4.3479,-4.3479,-4.3462,-4.3304,-4.3214,-4.3142,-4.2785,-4.2627,-4.2839,-4.3259,-4.3689,-4.4213,-4.4844,-4.5027,-4.4976,-4.4852,-4.4709,-4.4547,-4.4564,-4.4547,-4.4164,-4.4012,-4.369,-4.2997,-4.2642,-4.2277,-4.1796,-4.1085,-4.0772,-4.0618,-4.0378,-4.0163,-3.9518,-3.9148,-3.8816,-3.8556,-3.8205,-3.7727,-3.7194,-3.6816,-3.6445,-3.5973,-3.5683,-3.5522,-3.5489,-3.5489,-3.5489,-3.5489,-3.5489,-3.5489,-3.5489,-3.5489,-3.5489,-3.5489,-3.5489,-3.5489,-3.5489,-3.5489,-3.5489,-3.5489,-3.5489,-3.5489,-3.5457,-3.518,-3.4935,-3.4635,-3.4244,-3.3799,-3.3388,-3.2881,-3.2286,-3.1803,-3.1434,-3.1136,-3.0672,-3.0406,-3.0228,-2.9972,-2.9779,-2.9779,-2.9779,-2.9779,-2.9779,-2.9779,-2.9779,-2.9779,-2.9779,-2.9779,-2.9779,-2.9779,-2.9779,-2.9779,-2.9779,-2.9779,-2.9779,-2.9779,-2.9779,-2.9779,-2.9779,-2.9779,-2.9779,-2.9779,-2.9779,-2.9779,-4.6738,-4.5867,-4.4773,-4.4123,-4.382,-4.3788,-4.3686,-4.3515,-4.3479,-4.3479,-4.3479,-4.3479,-4.3479,-4.3427,-4.3304,-4.3251,-4.3105,-4.2843,-4.2689,-4.2687,-4.3017,-4.3504,-4.3997,-4.4467,-4.4794,-4.4871,-4.4759,-4.4529,-4.4282,-4.4231,-4.3961,-4.342,-4.3115,-4.2895,-4.2168,-4.1627,-4.1271,-4.1001,-4.0544,-4.0231,-4.0003,-3.9858,-3.9763,-3.9511,-3.9175,-3.8832,-3.8611,-3.8274,-3.7786,-3.7224,-3.6616,-3.6226,-3.5941,-3.5668,-3.5554,-3.5489,-3.5489,-3.5489,-3.5489,-3.5489,-3.5489,-3.5489,-3.5489,-3.5489,-3.5489,-3.5489,-3.5489,-3.5489,-3.5489,-3.5489,-3.5489,-3.5489,-3.5489,-3.5424,-3.5115,-3.4735,-3.4414,-3.4088,-3.3716,-3.3304,-3.2775,-3.2178,-3.179,-3.1471,-3.1048,-3.0596,-3.0305,-3.0088,-2.9934,-2.9818,-2.9779,-2.9779,-2.9779,-2.9779,-2.9779,-2.9779,-2.9779,-2.9779,-2.9779,-2.9779,-2.9779,-2.9779,-2.9779,-2.9779,-2.9779,-2.9779,-2.9779,-2.9779,-2.9779,-2.9779,-2.9779,-2.9779,-2.9779,-2.9779,-2.9779,-4.5281,-4.4795,-4.4429,-4.4104,-4.382,-4.3788,-4.3686,-4.3515,-4.3479,-4.3479,-4.3479,-4.3479,-4.3479,-4.3479,-4.3411,-4.3323,-4.3178,-4.2919,-4.2728,-4.2675,-4.2902,-4.339,-4.3875,-4.4272,-4.4742,-4.4761,-4.4561,-4.4192,-4.3741,-4.3606,-4.325,-4.2557,-4.2506,-4.2151,-4.1508,-4.1085,-4.0865,-4.051,-4.035,-4.0113,-4.0037,-3.9884,-3.9729,-3.9468,-3.9148,-3.8914,-3.8639,-3.8205,-3.7786,-3.7254,-3.6585,-3.6132,-3.5893,-3.5701,-3.5522,-3.5489,-3.5489,-3.5489,-3.5489,-3.5489,-3.5489,-3.5489,-3.5489,-3.5489,-3.5489,-3.5489,-3.5489,-3.5489,-3.5489,-3.5489,-3.5489,-3.5489,-3.5489,-3.5344,-3.51,-3.4668,-3.4264,-3.4005,-3.3695,-3.3213,-3.2668,-3.2141,-3.1706,-3.1323,-3.0898,-3.052,-3.0254,-3.0037,-2.9856,-2.9818,-2.9779,-2.9779,-2.9779,-2.9779,-2.9779,-2.9779,-2.9779,-2.9779,-2.9779,-2.9779,-2.9779,-2.9779,-2.9779,-2.9779,-2.9779,-2.9779,-2.9779,-2.9779,-2.9779,-2.9779,-2.9779,-2.9779,-2.9754,-2.9654,-2.9541]},{"header":{"parameterUnit":"m.s-1","parameterCategory":1,"la1":31.0,"la2":29.5877,"lo1":-88.7671,"lo2":-86.6584,"dy":0.0162,"dx":0.0185,"nx":115,"ny":88,"refTime":"2024-07-05T06:00:00:Z","depth":0,"parameterNumber":3,"parameterNumberName":"V-component_of_WINDS"},"data":[0.0,0.0,0.0,0.0,0.0,0.0,0.0,0.0,0.0,0.0,0.0,0.0,0.0,0.0,0.0,0.0,0.0,0.0,0.0,0.0,0.0,0.0,0.0,0.0,0.0,0.0,0.0,0.0,0.0,0.0,0.0,0.0,0.0,0.0,0.0,0.0,0.0,0.0,0.0,0.0,0.0,0.0,0.0,0.0,0.0,0.0,0.0,0.0,0.0,0.0,0.0,0.0,0.0,0.0,0.0,0.0,0.0,0.0,0.0,0.0,0.0,0.0,0.0,0.0,0.0,0.0,0.0,0.0,0.0,0.0,0.0,0.0,0.0,0.0,0.0,0.0,0.0,0.0,0.0,0.0,0.0,0.0,0.0,0.0,0.0,0.0,0.0,0.0,0.0,0.0,0.0,0.0,0.0,0.0,0.0,0.0,0.0,0.0,0.0,0.0,0.0,0.0,0.0,0.0,0.0,0.0,0.0,0.0,0.0,0.0,0.0,0.0,0.0,0.0,0.0,0.0,0.0,0.0,0.0,0.0,0.0,0.0,0.0,0.0,0.0,0.0,0.0,0.0,0.0,0.0,0.0,0.0,0.0,0.0,0.0,0.0,0.0,0.0,0.0,0.0,0.0,0.0,0.0,0.0,0.0,0.0,0.0,0.0,0.0,0.0,0.0,0.0,0.0,0.0,0.0,0.0,0.0,0.0,0.0,0.0,0.0,0.0,0.0,0.0,0.0,0.0,0.0,0.0,0.0,0.0,0.0,0.0,0.0,0.0,0.0,0.0,0.0,0.0,0.0,0.0,0.0,0.0,0.0,0.0,0.0,0.0,0.0,0.0,0.0,0.0,0.0,0.0,0.0,0.0,0.0,0.0,0.0,0.0,0.0,0.0,0.0,0.0,0.0,0.0,0.0,0.0,0.0,0.0,0.0,0.0,0.0,0.0,0.0,0.0,0.0,0.0,0.0,0.0,0.0,0.0,0.0,0.0,0.0,0.0,0.0,0.0,0.0,0.0,0.0,0.0,0.0,0.0,0.0,0.0,0.0,0.0,0.0,0.0,0.0,0.0,0.0,0.0,0.0,0.0,0.0,0.0,0.0,0.0,0.0,0.0,0.0,0.0,0.0,0.0,0.0,0.0,0.0,0.0,0.0,0.0,0.0,0.0,0.0,0.0,0.0,0.0,0.0,0.0,0.0,0.0,0.0,0.0,0.0,0.0,0.0,0.0,0.0,0.0,0.0,0.0,0.0,0.0,0.0,0.0,0.0,0.0,0.0,0.0,0.0,0.0,0.0,0.0,0.0,0.0,0.0,0.0,0.0,0.0,0.0,0.0,0.0,0.0,0.0,0.0,0.0,0.0,0.0,0.0,0.0,0.0,0.0,0.0,0.0,0.0,0.0,0.0,0.0,0.0,0.0,0.0,0.0,0.0,0.0,0.0,0.0,0.0,0.0,0.0,0.0,0.0,0.0,0.0,0.0,0.0,0.0,0.0,0.0,0.0,0.0,0.0,0.0,0.0,0.0,0.0,0.0,0.0,0.0,0.0,0.0,0.0,0.0,0.0,0.0,0.0,0.0,0.0,0.0,0.0,0.0,0.0,0.0,0.0,0.0,0.0,0.0,0.0,0.0,0.0,0.0,0.0,0.0,0.0,0.0,0.0,0.0,0.0,0.0,0.0,0.0,0.0,0.0,0.0,0.0,0.0,0.0,0.0,0.0,0.0,0.0,0.0,0.0,0.0,0.0,0.0,0.0,0.0,0.0,0.0,0.0,0.0,0.0,0.0,0.0,0.0,0.0,0.0,0.0,0.0,0.0,0.0,0.0,0.0,0.0,0.0,0.0,0.0,0.0,0.0,0.0,0.0,0.0,0.0,0.0,0.0,0.0,0.0,0.0,0.0,0.0,0.0,0.0,0.0,0.0,0.0,0.0,0.0,0.0,0.0,0.0,0.0,0.0,0.0,0.0,0.0,0.0,0.0,0.0,0.0,0.0,0.0,0.0,0.0,0.0,0.0,0.0,0.0,0.0,0.0,0.0,0.0,0.0,0.0,0.0,0.0,0.0,0.0,0.0,0.0,0.0,0.0,0.0,0.0,0.0,0.0,0.0,0.0,0.0,0.0,0.0,0.0,0.0,0.0,0.0,0.0,0.0,0.0,0.0,0.0,0.0,0.0,0.0,0.0,0.0,0.0,0.0,0.0,0.0,0.0,0.0,0.0,0.0,0.0,0.0,0.0,0.0,0.0,0.0,0.0,0.0,0.0,0.0,0.0,0.0,0.0,0.0,0.0,0.0,0.0,0.0,0.0,0.0,0.0,0.0,0.0,0.0,0.0,0.0,0.0,0.0,0.0,0.0,0.0,0.0,0.0,0.0,0.0,0.0,0.0,0.0,0.0,0.0,0.0,0.0,0.0,0.0,0.0,0.0,0.0,0.0,0.0,0.0,0.0,0.0,0.0,0.0,0.0,0.0,0.0,0.0,0.0,0.0,0.0,0.0,0.0,0.0,0.0,0.0,0.0,0.0,0.0,0.0,0.0,0.0,0.0,0.0,0.0,0.0,0.0,0.0,0.0,0.0,0.0,0.0,0.0,0.0,0.0,0.0,0.0,0.0,0.0,0.0,0.0,0.0,0.0,0.0,0.0,0.0,0.0,0.0,0.0,0.0,0.0,0.0,0.0,0.0,0.0,0.0,0.0,0.0,0.0,0.0,0.0,0.0,0.0,0.0,0.0,0.0,0.0,0.0,0.0,0.0,0.0,0.0,0.0,0.0,0.0,0.0,0.0,0.0,0.0,0.0,0.0,0.0,0.0,0.0,0.0,0.0,0.0,0.0,0.0,0.0,0.0,0.0,0.0,0.0,0.0,0.0,0.0,0.0,0.0,0.0,0.0,0.0,0.0,0.0,0.0,0.0,0.0,0.0,0.0,0.0,0.0,0.0,0.0,0.0,0.0,0.0,0.0,0.0,0.0,0.0,0.0,0.0,0.0,0.0,0.0,0.0,0.0,0.0,0.0,0.0,0.0,0.0,0.0,0.0,0.0,0.0,0.0,0.0,0.0,0.0,0.0,0.0,0.0,0.0,0.0,0.0,0.0,0.0,0.0,0.0,0.0,0.0,0.0,0.0,0.0,0.0,0.0,0.0,0.0,0.0,0.0,0.0,0.0,0.0,0.0,0.0,0.0,0.0,0.0,0.0,0.0,0.0,0.0,0.0,0.0,0.0,0.0,0.0,0.0,0.0,0.0,0.0,0.0,0.0,0.0,0.0,0.0,0.0,0.0,0.0,0.0,0.0,0.0,0.0,0.0,0.0,0.0,0.0,0.0,0.0,0.0,0.0,0.0,0.0,0.0,0.0,0.0,0.0,0.0,0.0,0.0,0.0,0.0,0.0,0.0,0.0,0.0,0.0,0.0,0.0,0.0,0.0,0.0,0.0,0.0,0.0,0.0,0.0,0.0,0.0,0.0,0.0,0.0,0.0,0.0,0.0,0.0,0.0,0.0,0.0,0.0,0.0,0.0,0.0,0.0,0.0,0.0,0.0,0.0,0.0,0.0,0.0,0.0,0.0,0.0,0.0,0.0,0.0,0.0,0.0,0.0,0.0,0.0,0.0,0.0,0.0,0.0,0.0,0.0,0.0,0.0,0.0,0.0,0.0,0.0,0.0,0.0,0.0,0.0,0.0,0.0,0.0,0.0,0.0,0.0,0.0,0.0,0.0,0.0,0.0,0.0,0.0,0.0,0.0,0.0,0.0,0.0,0.0,0.0,0.0,0.0,0.0,0.0,0.0,0.0,0.0,0.0,0.0,0.0,0.0,0.0,0.0,0.0,0.0,0.0,0.0,0.0,0.0,0.0,0.0,0.0,0.0,0.0,0.0,0.0,0.0,0.0,0.0,0.0,0.0,0.0,0.0,0.0,0.0,0.0,0.0,0.0,0.0,0.0,0.0,0.0,0.0,0.0,0.0,0.0,0.0,0.0,0.0,0.0,0.0,0.0,0.0,0.0,0.0,0.0,0.0,0.0,0.0,0.0,0.0,0.0,0.0,0.0,0.0,0.0,0.0,0.0,0.0,0.0,0.0,0.0,0.0,0.0,0.0,0.0,0.0,0.0,0.0,0.0,0.0,0.0,0.0,0.0,0.0,0.0,0.0,0.0,0.0,0.0,0.0,0.0,0.0,0.0,0.0,0.0,0.0,0.0,0.0,0.0,0.0,0.0,0.0,0.0,0.0,0.0,0.0,0.0,0.0,0.0,0.0,0.0,0.0,0.0,0.0,0.0,-1.3446,0.0,0.0,0.0,0.0,0.0,0.0,0.0,0.0,0.0,0.0,0.0,0.0,0.0,0.0,0.0,0.0,0.0,0.0,0.0,0.0,0.0,0.0,0.0,0.0,0.0,0.0,0.0,0.0,0.0,0.0,0.0,0.0,0.0,0.0,0.0,0.0,0.0,0.0,0.0,0.0,0.0,0.0,0.0,0.0,0.0,0.0,0.0,0.0,0.0,0.0,0.0,0.0,0.0,0.0,0.0,0.0,0.0,0.0,0.0,0.0,0.0,0.0,0.0,0.0,0.0,0.0,0.0,0.0,0.0,0.0,0.0,0.0,0.0,0.0,0.0,0.0,0.0,0.0,0.0,0.0,0.0,0.0,0.0,0.0,0.0,0.0,0.0,0.0,0.0,0.0,0.0,0.0,0.0,0.0,0.0,0.0,0.0,0.0,0.0,0.0,0.0,0.0,0.0,0.0,0.0,0.0,0.0,0.0,0.0,0.0,-1.2359,-1.287,-1.3128,-1.3447,-1.3808,0.0,0.0,0.0,0.0,0.0,0.0,0.0,0.0,0.0,0.0,0.0,0.0,0.0,0.0,0.0,0.0,0.0,0.0,0.0,0.0,0.0,0.0,0.0,0.0,0.0,0.0,0.0,0.0,0.0,0.0,0.0,0.0,0.0,0.0,0.0,0.0,0.0,0.0,0.0,0.0,0.0,0.0,0.0,0.0,0.0,0.0,0.0,0.0,0.0,0.0,0.0,0.0,0.0,0.0,0.0,0.0,0.0,0.0,0.0,0.0,0.0,0.0,0.0,0.0,0.0,0.0,0.0,0.0,0.0,0.0,0.0,0.0,0.0,0.0,0.0,0.0,0.0,0.0,0.0,0.0,0.0,0.0,0.0,0.0,0.0,0.0,0.0,0.0,0.0,0.0,0.0,0.0,0.0,0.0,0.0,0.0,0.0,0.0,0.0,0.0,0.0,0.0,0.0,0.0,0.0,0.0,0.0,0.0,0.0,0.0,0.0,0.0,-1.3188,-1.3582,-1.4173,0.0,0.0,0.0,0.0,0.0,0.0,0.0,0.0,0.0,0.0,0.0,0.0,0.0,0.0,0.0,0.0,0.0,0.0,0.0,0.0,0.0,0.0,0.0,0.0,0.0,0.0,0.0,0.0,0.0,0.0,0.0,0.0,0.0,0.0,0.0,0.0,0.0,0.0,0.0,0.0,0.0,0.0,0.0,0.0,0.0,0.0,0.0,0.0,0.0,0.0,0.0,0.0,0.0,0.0,0.0,0.0,0.0,0.0,0.0,0.0,0.0,0.0,0.0,0.0,0.0,0.0,0.0,0.0,0.0,0.0,0.0,0.0,0.0,0.0,0.0,0.0,0.0,0.0,0.0,0.0,0.0,0.0,0.0,0.0,0.0,0.0,0.0,0.0,0.0,0.0,0.0,0.0,0.0,0.0,0.0,0.0,0.0,0.0,0.0,0.0,0.0,0.0,0.0,0.0,0.0,0.0,0.0,0.0,0.0,0.0,-1.2499,-1.3159,-1.3258,0.0,-1.4497,0.0,0.0,0.0,0.0,0.0,0.0,0.0,0.0,0.0,0.0,0.0,0.0,0.0,0.0,0.0,0.0,0.0,0.0,0.0,0.0,0.0,0.0,0.0,0.0,0.0,0.0,0.0,0.0,0.0,0.0,0.0,0.0,0.0,0.0,0.0,0.0,0.0,0.0,0.0,0.0,0.0,0.0,0.0,0.0,0.0,0.0,0.0,0.0,0.0,0.0,0.0,0.0,0.0,0.0,0.0,0.0,0.0,0.0,0.0,0.0,0.0,0.0,0.0,0.0,0.0,0.0,0.0,0.0,0.0,0.0,0.0,0.0,0.0,0.0,0.0,0.0,0.0,0.0,0.0,0.0,0.0,0.0,0.0,0.0,0.0,0.0,0.0,0.0,0.0,0.0,0.0,0.0,0.0,0.0,0.0,0.0,0.0,0.0,0.0,0.0,0.0,0.0,0.0,0.0,0.0,0.0,0.0,0.0,0.0,0.0,-1.2862,-1.3174,-1.3607,-1.4134,0.0,0.0,0.0,0.0,0.0,0.0,0.0,0.0,0.0,0.0,0.0,0.0,0.0,0.0,0.0,0.0,0.0,0.0,0.0,0.0,0.0,0.0,0.0,0.0,0.0,0.0,0.0,0.0,0.0,0.0,0.0,0.0,0.0,0.0,0.0,0.0,0.0,0.0,0.0,0.0,0.0,0.0,0.0,0.0,0.0,0.0,0.0,0.0,0.0,0.0,0.0,0.0,0.0,0.0,0.0,0.0,0.0,0.0,0.0,0.0,0.0,0.0,0.0,0.0,0.0,0.0,0.0,0.0,0.0,0.0,0.0,0.0,0.0,0.0,0.0,0.0,0.0,0.0,0.0,0.0,0.0,0.0,0.0,0.0,0.0,0.0,0.0,0.0,0.0,0.0,0.0,0.0,0.0,0.0,0.0,0.0,0.0,0.0,0.0,0.0,0.0,0.0,0.0,0.0,0.0,0.0,0.0,0.0,0.0,0.0,-1.241,-1.3168,-1.3486,-1.4004,-1.4441,-1.4785,0.0,0.0,0.0,0.0,0.0,0.0,0.0,0.0,0.0,0.0,0.0,0.0,0.0,0.0,0.0,0.0,0.0,0.0,0.0,0.0,0.0,0.0,0.0,0.0,0.0,0.0,0.0,0.0,0.0,0.0,0.0,0.0,0.0,0.0,0.0,0.0,0.0,0.0,0.0,0.0,0.0,0.0,0.0,0.0,0.0,0.0,0.0,0.0,0.0,0.0,0.0,0.0,0.0,0.0,0.0,0.0,0.0,0.0,0.0,0.0,0.0,0.0,0.0,0.0,0.0,0.0,0.0,0.0,0.0,0.0,0.0,0.0,0.0,0.0,0.0,0.0,0.0,0.0,0.0,0.0,0.0,0.0,0.0,0.0,0.0,0.0,0.0,0.0,0.0,0.0,0.0,0.0,0.0,0.0,0.0,0.0,0.0,0.0,0.0,0.0,0.0,0.0,0.0,0.0,0.0,0.0,0.0,0.0,-1.1675,-1.256,-1.3382,-1.4217,-1.4327,-1.452,0.0,0.0,0.0,0.0,0.0,0.0,0.0,0.0,0.0,0.0,0.0,0.0,0.0,0.0,0.0,0.0,0.0,0.0,0.0,0.0,0.0,0.0,0.0,0.0,0.0,0.0,0.0,0.0,0.0,0.0,0.0,0.0,0.0,0.0,0.0,0.0,0.0,0.0,0.0,0.0,0.0,0.0,0.0,0.0,0.0,0.0,0.0,0.0,0.0,0.0,0.0,0.0,0.0,0.0,0.0,0.0,0.0,0.0,0.0,0.0,0.0,0.0,0.0,0.0,0.0,0.0,0.0,0.0,0.0,0.0,0.0,0.0,0.0,0.0,0.0,0.0,0.0,0.0,0.0,0.0,0.0,0.0,0.0,0.0,0.0,0.0,0.0,0.0,0.0,0.0,0.0,0.0,0.0,0.0,0.0,0.0,0.0,0.0,0.0,0.0,0.0,0.0,0.0,0.0,0.0,0.0,0.0,0.0,0.0,-1.2141,-1.2989,-1.3789,-1.4524,-1.4643,-1.4801,0.0,0.0,0.0,0.0,0.0,0.0,0.0,0.0,0.0,0.0,0.0,0.0,0.0,0.0,0.0,0.0,0.0,0.0,0.0,0.0,0.0,0.0,0.0,0.0,0.0,0.0,0.0,0.0,0.0,0.0,0.0,0.0,0.0,0.0,0.0,0.0,0.0,0.0,0.0,0.0,0.0,0.0,0.0,0.0,0.0,0.0,0.0,0.0,0.0,0.0,0.0,0.0,0.0,0.0,0.0,0.0,0.0,0.0,0.0,0.0,0.0,0.0,0.0,0.0,0.0,0.0,0.0,0.0,0.0,0.0,0.0,0.0,0.0,0.0,0.0,0.0,0.0,0.0,0.0,0.0,0.0,0.0,0.0,0.0,0.0,0.0,0.0,0.0,0.0,0.0,0.0,0.0,0.0,0.0,0.0,0.0,0.0,0.0,0.0,0.0,0.0,0.0,0.0,0.0,0.0,0.0,0.0,0.0,0.0,-1.2689,0.0,-1.3984,-1.4685,-1.4823,-1.4946,0.0,0.0,0.0,0.0,0.0,0.0,0.0,0.0,0.0,0.0,0.0,0.0,0.0,0.0,0.0,0.0,0.0,0.0,0.0,0.0,0.0,0.0,0.0,0.0,0.0,0.0,0.0,0.0,0.0,0.0,0.0,0.0,0.0,0.0,0.0,0.0,0.0,0.0,0.0,0.0,0.0,0.0,0.0,0.0,0.0,0.0,0.0,0.0,0.0,0.0,0.0,0.0,0.0,0.0,0.0,0.0,0.0,0.0,0.0,0.0,0.0,0.0,0.0,0.0,0.0,0.0,0.0,0.0,0.0,0.0,0.0,0.0,0.0,0.0,0.0,0.0,0.0,0.0,0.0,0.0,0.0,0.0,0.0,0.0,0.0,0.0,0.0,0.0,0.0,0.0,0.0,0.0,0.0,0.0,0.0,0.0,0.0,0.0,0.0,0.0,0.0,0.0,0.0,0.0,0.0,0.0,0.0,0.0,-1.2493,-1.3343,-1.3629,-1.4066,-1.4692,-1.4844,-1.4961,0.0,0.0,0.0,0.0,0.0,0.0,0.0,0.0,0.0,0.0,0.0,0.0,0.0,0.0,0.0,0.0,0.0,0.0,0.0,0.0,0.0,0.0,0.0,0.0,0.0,0.0,0.0,0.0,0.0,0.0,0.0,0.0,0.0,0.0,0.0,0.0,0.0,0.0,0.0,0.0,0.0,0.0,0.0,0.0,0.0,0.0,0.0,0.0,0.0,0.0,0.0,0.0,0.0,0.0,0.0,0.0,0.0,0.0,0.0,0.0,0.0,0.0,0.0,0.0,0.0,0.0,0.0,0.0,0.0,0.0,0.0,0.0,0.0,0.0,0.0,0.0,0.0,0.0,0.0,0.0,0.0,0.0,0.0,0.0,0.0,0.0,0.0,0.0,0.0,0.0,0.0,0.0,0.0,0.0,0.0,0.0,0.0,0.0,0.0,0.0,0.0,0.0,0.0,0.0,0.0,0.0,0.0,0.0,0.0,-1.3944,-1.4526,-1.4874,-1.507,-1.5516,-1.5756,0.0,0.0,0.0,0.0,0.0,0.0,0.0,0.0,0.0,0.0,0.0,0.0,0.0,0.0,0.0,0.0,0.0,0.0,0.0,0.0,0.0,0.0,0.0,0.0,0.0,0.0,0.0,0.0,0.0,0.0,0.0,0.0,0.0,0.0,0.0,0.0,0.0,0.0,0.0,0.0,0.0,0.0,0.0,0.0,0.0,0.0,0.0,0.0,0.0,0.0,0.0,0.0,0.0,0.0,0.0,0.0,0.0,0.0,0.0,0.0,0.0,0.0,0.0,0.0,0.0,0.0,0.0,0.0,0.0,0.0,0.0,0.0,0.0,0.0,0.0,0.0,0.0,0.0,0.0,0.0,0.0,0.0,0.0,0.0,0.0,0.0,0.0,0.0,0.0,0.0,0.0,0.0,0.0,0.0,0.0,0.0,0.0,0.0,0.0,0.0,0.0,0.0,0.0,0.0,0.0,0.0,0.0,0.0,0.0,-1.4658,-1.5082,-1.5345,-1.5371,-1.5907,-1.619,-1.6113,0.0,0.0,0.0,0.0,0.0,0.0,0.0,0.0,0.0,0.0,0.0,0.0,0.0,0.0,0.0,0.0,0.0,0.0,0.0,0.0,0.0,0.0,0.0,0.0,0.0,0.0,0.0,0.0,0.0,0.0,0.0,0.0,0.0,0.0,0.0,0.0,0.0,0.0,0.0,0.0,0.0,0.0,0.0,0.0,0.0,0.0,0.0,0.0,0.0,0.0,0.0,0.0,0.0,0.0,0.0,0.0,0.0,0.0,0.0,0.0,0.0,0.0,0.0,0.0,0.0,0.0,0.0,0.0,0.0,0.0,0.0,0.0,0.0,0.0,0.0,0.0,0.0,0.0,0.0,0.0,0.0,0.0,0.0,0.0,0.0,0.0,0.0,0.0,0.0,0.0,0.0,0.0,0.0,0.0,0.0,0.0,0.0,0.0,0.0,0.0,0.0,0.0,0.0,0.0,0.0,0.0,0.0,0.0,-1.5418,-1.5402,-1.5483,-1.5737,-1.6089,-1.6319,0.0,0.0,0.0,0.0,0.0,0.0,0.0,0.0,0.0,0.0,0.0,0.0,0.0,0.0,0.0,0.0,0.0,0.0,0.0,0.0,0.0,0.0,0.0,0.0,0.0,0.0,0.0,0.0,0.0,0.0,0.0,0.0,0.0,0.0,0.0,0.0,0.0,0.0,0.0,0.0,0.0,0.0,0.0,0.0,0.0,0.0,0.0,0.0,0.0,0.0,0.0,0.0,0.0,0.0,0.0,0.0,0.0,0.0,0.0,0.0,0.0,0.0,0.0,0.0,0.0,0.0,0.0,0.0,0.0,0.0,0.0,0.0,0.0,0.0,0.0,0.0,0.0,0.0,0.0,0.0,0.0,0.0,0.0,0.0,0.0,0.0,0.0,0.0,0.0,0.0,0.0,0.0,0.0,0.0,0.0,0.0,0.0,0.0,0.0,0.0,0.0,0.0,0.0,0.0,0.0,0.0,0.0,0.0,0.0,-1.5685,-1.6052,-1.6185,-1.6008,-1.6507,-1.6832,0.0,0.0,0.0,0.0,0.0,0.0,0.0,0.0,0.0,0.0,0.0,0.0,0.0,0.0,0.0,0.0,0.0,0.0,0.0,0.0,0.0,0.0,0.0,0.0,0.0,0.0,0.0,0.0,0.0,0.0,0.0,0.0,0.0,0.0,0.0,0.0,0.0,0.0,0.0,0.0,0.0,0.0,0.0,0.0,0.0,0.0,0.0,0.0,0.0,0.0,0.0,0.0,0.0,0.0,0.0,0.0,0.0,0.0,0.0,0.0,0.0,0.0,0.0,0.0,0.0,0.0,0.0,0.0,0.0,0.0,0.0,0.0,0.0,0.0,0.0,0.0,0.0,0.0,0.0,0.0,0.0,0.0,0.0,0.0,0.0,0.0,0.0,0.0,0.0,0.0,0.0,0.0,0.0,0.0,0.0,0.0,0.0,0.0,0.0,0.0,0.0,0.0,0.0,0.0,0.0,0.0,0.0,0.0,-1.541,-1.5967,-1.64,-1.6591,-1.6593,-1.7018,-1.7316,0.0,0.0,0.0,0.0,0.0,0.0,0.0,0.0,0.0,0.0,0.0,0.0,0.0,0.0,0.0,0.0,0.0,0.0,0.0,0.0,0.0,0.0,0.0,0.0,0.0,0.0,0.0,0.0,0.0,0.0,0.0,0.0,0.0,0.0,0.0,0.0,0.0,0.0,0.0,0.0,0.0,0.0,0.0,0.0,0.0,0.0,0.0,0.0,0.0,0.0,0.0,0.0,0.0,0.0,0.0,0.0,0.0,0.0,0.0,0.0,0.0,0.0,0.0,0.0,0.0,0.0,0.0,0.0,0.0,0.0,0.0,0.0,0.0,0.0,0.0,0.0,0.0,0.0,0.0,0.0,0.0,0.0,0.0,0.0,0.0,0.0,0.0,0.0,0.0,0.0,0.0,0.0,0.0,0.0,0.0,0.0,0.0,0.0,0.0,0.0,0.0,0.0,0.0,0.0,0.0,0.0,0.0,0.0,-1.5684,-1.6163,-1.6494,-1.6864,-1.7271,-1.7477,-1.7646,0.0,0.0,0.0,0.0,0.0,0.0,0.0,0.0,0.0,0.0,0.0,0.0,0.0,0.0,0.0,0.0,0.0,0.0,0.0,0.0,0.0,0.0,0.0,0.0,0.0,0.0,0.0,0.0,0.0,0.0,0.0,0.0,0.0,0.0,0.0,0.0,0.0,0.0,0.0,0.0,0.0,0.0,0.0,0.0,0.0,0.0,0.0,0.0,0.0,0.0,0.0,0.0,0.0,0.0,0.0,0.0,0.0,0.0,0.0,0.0,0.0,0.0,0.0,0.0,0.0,0.0,0.0,0.0,0.0,0.0,0.0,0.0,0.0,0.0,0.0,0.0,0.0,0.0,0.0,0.0,0.0,0.0,0.0,0.0,0.0,0.0,0.0,0.0,0.0,0.0,0.0,0.0,0.0,0.0,0.0,0.0,0.0,0.0,0.0,0.0,0.0,0.0,0.0,0.0,0.0,0.0,0.0,0.0,-1.5877,-1.6211,-1.665,-1.7019,-1.7279,-1.7477,-1.7728,0.0,0.0,0.0,0.0,0.0,0.0,0.0,0.0,0.0,0.0,0.0,0.0,0.0,0.0,0.0,0.0,0.0,0.0,0.0,0.0,0.0,0.0,0.0,0.0,0.0,0.0,0.0,0.0,0.0,0.0,0.0,0.0,0.0,0.0,0.0,0.0,0.0,0.0,0.0,0.0,0.0,0.0,0.0,0.0,0.0,0.0,0.0,0.0,-2.1936,0.0,0.0,0.0,0.0,0.0,0.0,0.0,0.0,0.0,0.0,0.0,0.0,0.0,0.0,0.0,0.0,0.0,0.0,0.0,0.0,0.0,0.0,0.0,0.0,0.0,0.0,0.0,0.0,0.0,0.0,0.0,0.0,0.0,0.0,0.0,0.0,0.0,0.0,0.0,0.0,0.0,0.0,0.0,0.0,0.0,0.0,0.0,0.0,0.0,0.0,0.0,0.0,0.0,0.0,0.0,0.0,0.0,0.0,0.0,-1.6341,-1.6595,-1.6972,-1.7293,-1.7652,-1.7995,-1.8168,0.0,0.0,0.0,0.0,0.0,0.0,0.0,0.0,0.0,0.0,0.0,0.0,0.0,0.0,0.0,0.0,0.0,0.0,0.0,0.0,0.0,0.0,0.0,0.0,0.0,0.0,0.0,0.0,0.0,0.0,0.0,0.0,0.0,0.0,0.0,0.0,0.0,0.0,0.0,0.0,0.0,0.0,0.0,0.0,0.0,0.0,0.0,0.0,0.0,0.0,0.0,0.0,0.0,0.0,0.0,0.0,0.0,0.0,0.0,0.0,0.0,0.0,0.0,0.0,0.0,0.0,0.0,0.0,0.0,0.0,0.0,0.0,0.0,0.0,0.0,0.0,0.0,0.0,0.0,0.0,0.0,0.0,0.0,0.0,0.0,0.0,0.0,0.0,0.0,0.0,0.0,0.0,0.0,0.0,0.0,0.0,0.0,0.0,0.0,0.0,0.0,0.0,0.0,0.0,0.0,0.0,0.0,-1.632,-1.6777,-1.7026,-1.7246,-1.7613,-1.8179,-1.8643,-1.8675,-1.8289,0.0,0.0,0.0,0.0,0.0,0.0,0.0,0.0,0.0,0.0,0.0,0.0,0.0,0.0,0.0,0.0,0.0,0.0,0.0,0.0,0.0,0.0,0.0,0.0,0.0,0.0,0.0,0.0,0.0,0.0,0.0,0.0,0.0,0.0,0.0,0.0,0.0,0.0,-2.1268,-2.2051,0.0,0.0,0.0,0.0,0.0,0.0,0.0,0.0,-2.3526,0.0,0.0,0.0,0.0,0.0,0.0,0.0,0.0,0.0,0.0,0.0,0.0,0.0,0.0,0.0,0.0,0.0,0.0,0.0,0.0,0.0,0.0,0.0,0.0,0.0,0.0,0.0,0.0,0.0,0.0,0.0,0.0,0.0,0.0,0.0,0.0,0.0,0.0,0.0,0.0,0.0,0.0,0.0,0.0,0.0,0.0,0.0,0.0,0.0,0.0,0.0,0.0,0.0,0.0,0.0,0.0,-1.5716,-1.6512,-1.7019,-1.7232,-1.7481,-1.7947,-1.8643,-1.8958,-1.9081,-1.8946,0.0,0.0,0.0,0.0,0.0,0.0,0.0,0.0,0.0,0.0,0.0,0.0,0.0,0.0,0.0,0.0,0.0,0.0,0.0,0.0,0.0,0.0,0.0,0.0,0.0,0.0,0.0,0.0,0.0,0.0,0.0,0.0,0.0,0.0,0.0,0.0,0.0,0.0,0.0,-2.2422,-2.2637,0.0,0.0,0.0,0.0,0.0,0.0,0.0,0.0,-2.4496,0.0,0.0,0.0,0.0,0.0,0.0,0.0,0.0,0.0,0.0,0.0,0.0,0.0,0.0,0.0,0.0,0.0,0.0,0.0,0.0,0.0,0.0,0.0,0.0,0.0,0.0,0.0,0.0,0.0,0.0,0.0,0.0,0.0,0.0,0.0,0.0,0.0,0.0,0.0,0.0,0.0,0.0,0.0,0.0,0.0,0.0,0.0,0.0,0.0,0.0,0.0,0.0,0.0,0.0,0.0,-1.6492,-1.7194,-1.7621,-1.7714,-1.8087,-1.8458,-1.8781,-1.9417,-1.962,0.0,0.0,0.0,0.0,0.0,0.0,0.0,0.0,0.0,0.0,0.0,0.0,0.0,0.0,0.0,0.0,0.0,0.0,0.0,0.0,0.0,0.0,0.0,0.0,0.0,0.0,0.0,0.0,0.0,0.0,0.0,0.0,0.0,0.0,0.0,0.0,0.0,0.0,0.0,0.0,-2.2652,-2.2945,-2.3408,0.0,0.0,0.0,0.0,0.0,0.0,-2.4848,-2.5017,0.0,0.0,0.0,0.0,0.0,0.0,0.0,0.0,0.0,0.0,0.0,0.0,0.0,0.0,0.0,0.0,0.0,0.0,0.0,0.0,0.0,0.0,0.0,0.0,0.0,0.0,0.0,0.0,0.0,0.0,0.0,0.0,0.0,0.0,0.0,0.0,0.0,0.0,0.0,0.0,0.0,0.0,0.0,0.0,0.0,0.0,0.0,0.0,0.0,0.0,0.0,0.0,0.0,0.0,0.0,-1.7262,-1.7811,-1.8203,-1.8311,-1.8681,-1.8966,-1.9104,-1.9874,-2.0066,0.0,0.0,0.0,0.0,0.0,0.0,0.0,0.0,0.0,0.0,0.0,0.0,0.0,0.0,0.0,0.0,0.0,0.0,0.0,0.0,0.0,0.0,0.0,0.0,0.0,0.0,0.0,0.0,0.0,0.0,0.0,0.0,0.0,0.0,0.0,0.0,0.0,0.0,0.0,0.0,0.0,-2.3354,-2.375,-2.3935,0.0,0.0,0.0,0.0,-2.5003,-2.5348,0.0,0.0,0.0,0.0,0.0,0.0,0.0,0.0,0.0,0.0,0.0,0.0,0.0,0.0,0.0,0.0,0.0,0.0,0.0,0.0,0.0,0.0,0.0,0.0,0.0,0.0,0.0,0.0,0.0,0.0,0.0,0.0,0.0,0.0,0.0,0.0,0.0,0.0,0.0,0.0,0.0,0.0,0.0,0.0,0.0,0.0,0.0,0.0,0.0,0.0,0.0,0.0,0.0,0.0,0.0,0.0,-1.7727,-1.8063,-1.8502,-1.9026,-1.9142,-1.9463,-2.0102,-2.0246,-2.0244,0.0,0.0,0.0,0.0,0.0,0.0,0.0,0.0,0.0,0.0,0.0,0.0,0.0,0.0,0.0,0.0,0.0,0.0,0.0,0.0,0.0,0.0,0.0,0.0,0.0,0.0,0.0,0.0,0.0,0.0,0.0,0.0,0.0,0.0,0.0,0.0,0.0,0.0,0.0,0.0,0.0,-2.373,-2.3789,-2.448,-2.4979,0.0,0.0,-2.5942,-2.5942,-2.6393,0.0,0.0,0.0,0.0,0.0,0.0,0.0,0.0,0.0,0.0,0.0,0.0,0.0,0.0,0.0,0.0,0.0,0.0,0.0,0.0,0.0,0.0,0.0,0.0,0.0,0.0,0.0,0.0,0.0,0.0,0.0,0.0,0.0,0.0,0.0,0.0,0.0,0.0,0.0,0.0,0.0,0.0,0.0,0.0,0.0,0.0,0.0,0.0,0.0,0.0,0.0,0.0,0.0,0.0,0.0,-1.7778,-1.8205,-1.8527,-1.9011,-1.9583,-1.9737,-2.0065,-2.051,-2.0579,-2.0508,0.0,0.0,0.0,0.0,0.0,0.0,0.0,0.0,0.0,0.0,0.0,0.0,0.0,0.0,0.0,0.0,0.0,0.0,0.0,0.0,0.0,0.0,0.0,0.0,0.0,0.0,0.0,0.0,0.0,0.0,0.0,0.0,0.0,0.0,0.0,0.0,0.0,0.0,0.0,0.0,0.0,0.0,-2.4585,-2.5106,0.0,0.0,0.0,-2.6342,-2.6544,0.0,0.0,0.0,0.0,0.0,0.0,0.0,0.0,0.0,0.0,0.0,0.0,0.0,0.0,0.0,0.0,0.0,0.0,0.0,0.0,0.0,0.0,0.0,0.0,0.0,0.0,0.0,0.0,0.0,0.0,0.0,0.0,0.0,0.0,0.0,0.0,0.0,0.0,0.0,0.0,0.0,0.0,0.0,0.0,0.0,0.0,0.0,0.0,0.0,0.0,0.0,0.0,0.0,0.0,0.0,0.0,0.0,-1.881,-1.9052,-1.9502,-2.013,-2.0374,-2.0609,-2.088,-2.0863,0.0,0.0,0.0,0.0,0.0,0.0,0.0,0.0,0.0,0.0,0.0,0.0,0.0,0.0,0.0,0.0,0.0,0.0,0.0,0.0,0.0,0.0,0.0,0.0,0.0,0.0,0.0,-2.0609,0.0,0.0,0.0,0.0,0.0,0.0,0.0,0.0,0.0,0.0,0.0,0.0,0.0,0.0,-2.4836,-2.5279,-2.5722,-2.6114,0.0,0.0,-2.6699,-2.6948,-2.7214,-2.7499,0.0,0.0,0.0,0.0,0.0,0.0,0.0,0.0,0.0,0.0,0.0,0.0,0.0,0.0,0.0,0.0,0.0,0.0,0.0,0.0,0.0,0.0,0.0,0.0,0.0,0.0,0.0,0.0,0.0,0.0,0.0,0.0,0.0,0.0,0.0,0.0,0.0,0.0,0.0,0.0,0.0,0.0,0.0,0.0,0.0,0.0,0.0,0.0,0.0,0.0,0.0,0.0,0.0,0.0,-1.8986,-1.9657,-1.9752,-2.0122,-2.0917,-2.0952,-2.1096,-2.1338,-2.1189,-2.0977,0.0,0.0,0.0,0.0,0.0,0.0,0.0,0.0,0.0,0.0,0.0,0.0,0.0,0.0,0.0,0.0,0.0,0.0,0.0,0.0,0.0,0.0,0.0,0.0,0.0,0.0,0.0,0.0,0.0,0.0,0.0,0.0,0.0,0.0,0.0,0.0,0.0,0.0,0.0,0.0,0.0,-2.5289,-2.5722,-2.6164,-2.6466,0.0,-2.6699,-2.6948,-2.7214,-2.7452,-2.7867,-2.8606,0.0,0.0,0.0,0.0,0.0,0.0,0.0,0.0,0.0,0.0,0.0,0.0,0.0,0.0,0.0,0.0,0.0,0.0,0.0,0.0,0.0,0.0,0.0,0.0,0.0,0.0,0.0,0.0,0.0,0.0,0.0,0.0,0.0,0.0,0.0,0.0,0.0,0.0,0.0,0.0,0.0,0.0,0.0,0.0,0.0,0.0,0.0,0.0,0.0,0.0,0.0,0.0,0.0,-1.9082,-1.9793,-1.982,-2.0312,-2.1373,-2.1419,-2.1642,-2.2008,-2.1487,-2.1184,0.0,0.0,0.0,0.0,0.0,0.0,0.0,0.0,0.0,0.0,0.0,0.0,0.0,0.0,0.0,0.0,0.0,0.0,0.0,0.0,0.0,0.0,0.0,0.0,0.0,0.0,0.0,0.0,-2.2834,-2.343,-2.4123,0.0,0.0,0.0,0.0,0.0,0.0,0.0,0.0,0.0,0.0,-2.6545,-2.6722,-2.7139,0.0,0.0,-2.7489,-2.7631,-2.7715,-2.8102,-2.842,-2.8757,-2.9301,0.0,0.0,0.0,0.0,0.0,0.0,0.0,0.0,0.0,0.0,0.0,0.0,0.0,0.0,0.0,0.0,0.0,0.0,0.0,0.0,0.0,0.0,0.0,0.0,0.0,0.0,0.0,0.0,0.0,0.0,0.0,0.0,0.0,0.0,0.0,0.0,0.0,0.0,0.0,0.0,0.0,0.0,0.0,0.0,0.0,0.0,0.0,0.0,0.0,0.0,0.0,0.0,-1.943,-2.0217,-2.0235,-2.0743,-2.1891,-2.1909,-2.2087,-2.2369,-2.167,-2.1358,0.0,0.0,0.0,0.0,0.0,0.0,0.0,0.0,0.0,0.0,0.0,0.0,0.0,0.0,0.0,0.0,0.0,0.0,0.0,0.0,0.0,0.0,0.0,0.0,0.0,0.0,0.0,0.0,-2.3863,-2.4515,-2.5101,0.0,0.0,0.0,0.0,0.0,0.0,0.0,0.0,0.0,0.0,-2.7441,-2.7477,-2.7774,-2.7998,-2.8092,-2.8139,-2.8139,-2.8326,-2.8664,-2.8989,-2.9163,0.0,0.0,0.0,0.0,0.0,0.0,0.0,0.0,0.0,0.0,0.0,0.0,0.0,0.0,0.0,0.0,0.0,0.0,0.0,0.0,0.0,0.0,0.0,0.0,0.0,0.0,0.0,-1.7513,0.0,0.0,-1.7754,0.0,0.0,0.0,0.0,0.0,0.0,0.0,0.0,0.0,0.0,0.0,0.0,0.0,0.0,0.0,0.0,0.0,0.0,0.0,0.0,0.0,0.0,-2.0269,-2.1131,-2.114,-2.1547,-2.2359,-2.2397,-2.2397,-2.2422,-2.1816,-2.1502,-2.1483,0.0,0.0,0.0,0.0,0.0,0.0,0.0,0.0,0.0,0.0,0.0,0.0,0.0,0.0,0.0,0.0,0.0,0.0,0.0,0.0,0.0,0.0,0.0,0.0,0.0,0.0,-2.4048,-2.4931,-2.5567,0.0,0.0,0.0,0.0,0.0,0.0,0.0,0.0,0.0,0.0,-2.7551,-2.7753,-2.7949,-2.7987,-2.8149,-2.8348,-2.8395,-2.8535,-2.8989,-2.9082,-2.9359,0.0,0.0,0.0,0.0,0.0,0.0,0.0,0.0,0.0,0.0,0.0,0.0,0.0,0.0,0.0,0.0,0.0,0.0,0.0,0.0,0.0,0.0,0.0,0.0,0.0,0.0,0.0,-1.7591,-1.7752,0.0,0.0,0.0,0.0,0.0,0.0,0.0,0.0,0.0,0.0,0.0,-2.0175,-2.0184,0.0,0.0,0.0,0.0,0.0,0.0,0.0,0.0,0.0,0.0,0.0,0.0,-2.0349,-2.1135,-2.1224,-2.1674,-2.2633,-2.2671,-2.275,-2.2872,-2.2417,-2.1906,-2.1293,0.0,0.0,0.0,0.0,0.0,0.0,0.0,0.0,0.0,0.0,0.0,0.0,0.0,0.0,0.0,0.0,0.0,0.0,0.0,0.0,0.0,0.0,0.0,0.0,0.0,-2.5496,0.0,0.0,0.0,0.0,0.0,0.0,0.0,0.0,0.0,0.0,0.0,-2.8234,-2.8477,-2.8745,-2.8929,-2.8991,-2.8978,-2.9013,0.0,0.0,0.0,0.0,0.0,0.0,0.0,0.0,0.0,0.0,0.0,0.0,0.0,0.0,-3.2531,-3.1997,-3.1499,-3.1175,-3.1377,0.0,0.0,0.0,0.0,0.0,0.0,0.0,0.0,0.0,0.0,0.0,0.0,0.0,0.0,-1.7764,0.0,-1.8311,0.0,0.0,0.0,0.0,0.0,0.0,0.0,0.0,-2.0303,-2.0527,-2.0801,-2.0947,-2.1065,0.0,-2.1065,-2.0654,0.0,0.0,0.0,0.0,0.0,0.0,0.0,0.0,-2.0711,-2.1412,-2.1585,-2.2082,-2.2843,-2.2925,-2.2969,-2.3081,-2.2588,-2.2004,-2.133,-2.0837,-2.0569,0.0,0.0,0.0,0.0,0.0,0.0,0.0,0.0,0.0,0.0,0.0,0.0,0.0,0.0,0.0,0.0,0.0,0.0,0.0,0.0,0.0,0.0,0.0,-2.6402,0.0,0.0,0.0,0.0,0.0,0.0,0.0,0.0,0.0,-2.8497,-2.8893,-2.9233,-2.9324,-2.9669,-2.9852,-2.976,0.0,0.0,0.0,0.0,0.0,0.0,0.0,-3.0601,-3.0937,-3.1261,-3.1572,-3.1969,-3.2419,-3.2711,-3.281,0.0,0.0,-3.2579,-3.2147,-3.1852,-3.2057,-3.2039,-3.2047,-3.2275,-3.2566,-3.2896,0.0,0.0,0.0,0.0,0.0,0.0,0.0,0.0,-1.7855,-1.8042,0.0,-1.855,0.0,0.0,0.0,0.0,0.0,-2.0391,0.0,0.0,-2.1035,-2.121,-2.1239,-2.167,-2.1875,-2.1936,-2.1865,-2.1641,-2.119,-2.081,0.0,0.0,0.0,0.0,0.0,0.0,-2.1434,-2.1904,-2.2295,-2.2715,-2.3071,-2.3091,-2.3101,-2.3071,-2.2353,-2.1791,-2.154,-2.131,-2.11,-2.0832,-2.1371,0.0,0.0,0.0,0.0,0.0,0.0,0.0,0.0,0.0,0.0,0.0,0.0,0.0,0.0,0.0,0.0,0.0,0.0,0.0,0.0,-2.6545,0.0,0.0,0.0,0.0,0.0,0.0,0.0,0.0,0.0,0.0,-2.8958,-2.9647,-3.0129,-2.9878,0.0,0.0,0.0,0.0,-3.0318,-3.0578,-3.0623,-3.0713,-3.0972,-3.1017,-3.1196,-3.1629,0.0,0.0,-3.2593,-3.2723,-3.281,-3.3068,-3.3111,-3.3124,-3.3111,-3.2828,-3.2653,-3.267,-3.2615,-3.2564,-3.2711,-3.3054,-3.3476,-1.5604,0.0,0.0,0.0,0.0,-1.7141,-1.7493,-1.764,-1.8188,-1.8514,-1.867,-1.8829,0.0,0.0,0.0,0.0,0.0,0.0,-2.1005,-2.1064,-2.1494,-2.1699,-2.1699,-2.1826,-2.1936,-2.1936,-2.1936,-2.1816,-2.1699,-2.1572,-2.1182,-2.0615,0.0,0.0,0.0,0.0,-2.1904,-2.2314,-2.2451,-2.2715,-2.3091,-2.3101,-2.3101,-2.3091,-2.2574,-2.2212,-2.1986,-2.175,-2.1573,-2.1518,-2.166,0.0,0.0,0.0,0.0,0.0,0.0,0.0,0.0,0.0,0.0,0.0,0.0,0.0,0.0,0.0,0.0,0.0,0.0,0.0,-2.7535,-2.7638,-2.7901,0.0,0.0,0.0,0.0,0.0,0.0,0.0,0.0,0.0,-3.0827,-3.073,-3.0751,0.0,0.0,-3.0838,-3.0781,-3.0793,-3.0793,-3.0871,-3.0883,0.0,-3.1451,-3.1496,-3.1673,-3.2125,-3.2332,-3.245,-3.2667,-3.2853,-3.3068,-3.3283,-3.3326,-3.3356,-3.3458,-3.3356,-3.3326,-3.3566,-3.3729,-3.3914,-3.4173,-3.4566,-3.5009,-1.6042,-1.6104,-1.6171,-1.6343,-1.6588,-1.7211,-1.7569,-1.7727,-1.8301,-1.871,-1.9021,-1.9209,-1.9562,-1.9959,-2.0363,0.0,0.0,0.0,-2.1494,-2.1473,-2.1934,-2.2129,-2.2139,-2.2295,-2.2383,-2.2383,-2.2383,-2.2295,-2.2139,-2.2139,-2.1777,-2.1153,0.0,0.0,-2.1504,-2.1914,-2.2266,-2.251,-2.2633,-2.2847,-2.3091,-2.3101,-2.3101,-2.3091,-2.282,-2.2567,-2.2338,-2.209,-2.1961,-2.1932,-2.2025,-2.2185,0.0,0.0,0.0,0.0,0.0,0.0,0.0,0.0,0.0,0.0,0.0,-2.5699,-2.5925,0.0,0.0,0.0,-2.7482,-2.7833,-2.8386,-2.8436,0.0,0.0,0.0,0.0,0.0,0.0,0.0,-3.1497,-3.1805,-3.202,-3.2031,-3.1798,-3.1648,-3.1713,-3.1641,-3.1552,-3.1552,0.0,-3.1564,-3.1552,-3.1564,-3.1641,-3.1937,-3.1981,-3.2113,-3.2475,-3.2692,-3.2853,-3.2853,-3.3068,-3.327,-3.3356,-3.3484,-3.3641,-3.3924,-3.3894,-3.3865,-3.416,-3.441,-3.4701,-3.5086,-3.544,-3.579,-1.6459,-1.6662,-1.6336,-1.6263,-1.6396,-1.6927,-1.7332,-1.7787,-1.827,-1.8731,-1.9153,-1.9606,-2.0065,-2.0605,-2.1201,0.0,-2.1936,-2.1924,-2.1943,-2.1953,-2.2363,-2.2559,-2.2588,-2.2916,-2.3101,-2.3091,-2.3101,-2.2896,-2.2578,-2.2516,-2.2363,-2.2002,-2.1982,-2.1973,-2.2004,-2.2353,-2.2559,-2.2568,-2.2896,-2.3091,-2.3101,-2.3101,-2.3101,-2.3091,-2.2988,-2.2836,-2.2552,-2.2361,-2.2257,-2.2195,-2.2537,-2.2683,-2.2631,0.0,0.0,0.0,0.0,0.0,0.0,0.0,0.0,0.0,0.0,0.0,0.0,0.0,0.0,0.0,-2.7921,0.0,-2.8913,-2.9001,0.0,0.0,0.0,-3.0696,-3.0733,-3.116,-3.1675,-3.2215,0.0,0.0,-3.2692,-3.2711,-3.2636,-3.2487,-3.2431,-3.24,-3.24,-3.2356,-3.24,-3.2356,-3.24,-3.2388,-3.2388,-3.2431,-3.2519,-3.2723,-3.2927,-3.3081,-3.3124,-3.3283,-3.3398,-3.3484,-3.3598,-3.3894,-3.4356,-3.4439,-3.4481,-3.4509,-3.4743,-3.5031,-3.5521,-3.5804,-3.6111,-1.6656,-1.6693,-1.6805,-1.6875,-1.6843,-1.7106,-1.7521,-1.801,-1.843,-1.8842,-1.9301,-1.9634,-2.0277,-2.1057,-2.1182,-2.1492,-2.1894,-2.2217,-2.2363,-2.2393,-2.276,-2.2945,-2.2955,-2.3052,-2.3101,-2.3101,-2.3101,-2.3042,-2.2945,-2.2945,-2.2896,-2.2808,-2.2799,-2.2685,-2.2393,-2.2783,-2.2945,-2.2945,-2.3052,-2.3101,-2.3101,-2.3101,-2.3101,-2.3091,-2.3274,-2.3275,-2.3056,-2.2931,-2.287,-2.2889,-2.2897,-2.3143,-2.3545,-2.4005,0.0,0.0,0.0,0.0,0.0,0.0,0.0,0.0,0.0,-2.6977,-2.7067,0.0,-2.8084,0.0,-2.9063,-2.9453,-2.9566,-2.9967,0.0,0.0,-3.0896,-3.1373,-3.1775,-3.1951,-3.224,-3.2805,-3.2867,-3.2918,-3.3013,-3.3025,-3.2995,-3.2952,-3.2605,-3.24,-3.24,-3.24,-3.24,-3.24,-3.2444,-3.2431,-3.2593,-3.281,-3.2952,-3.2995,-3.3068,-3.3167,-3.3326,-3.3356,-3.3526,-3.3865,-3.4105,-3.4369,-3.4673,-3.4949,-3.5195,-3.5345,-3.544,-3.5521,-3.5669,-3.623,-3.6744,-1.6901,-1.6945,-1.6911,-1.6971,-1.705,-1.7373,-1.7747,-1.8118,-1.853,-1.8995,-1.9474,-2.0061,-2.0793,-2.1612,-2.1698,-2.1964,-2.2291,-2.2609,-2.275,-2.276,-2.2984,-2.3101,-2.3101,-2.3101,-2.3101,-2.3101,-2.3101,-2.3101,-2.3101,-2.3101,-2.3101,-2.3101,-2.3101,-2.2984,-2.2769,-2.2984,-2.3101,-2.3101,-2.3101,-2.3101,-2.3101,-2.3101,-2.3144,-2.3276,-2.3493,-2.3553,-2.3333,-2.3495,-2.3496,-2.3264,-2.3357,-2.3594,-2.4018,-2.4418,-2.4778,0.0,0.0,0.0,0.0,0.0,0.0,0.0,0.0,0.0,0.0,0.0,-2.8812,-2.9565,-2.998,-3.0244,-3.0482,-3.0783,-3.0959,-3.0959,-3.1436,-3.1876,-3.2177,-3.2441,-3.2729,-3.3086,-3.3124,-3.3124,-3.3124,-3.3124,-3.3124,-3.3124,-3.2865,-3.2692,-3.2736,-3.2692,-3.2692,-3.2736,-3.2692,-3.2736,-3.2853,-3.2982,-3.3124,-3.3124,-3.3197,-3.3283,-3.3398,-3.3556,-3.3823,-3.416,-3.4397,-3.4714,-3.5113,-3.5358,-3.5629,-3.6031,-3.623,-3.627,-3.6284,-3.6665,-3.7056,-1.7253,-1.7233,-1.6927,-1.6958,-1.7161,-1.7625,-1.7919,-1.8101,-1.8566,-1.9112,-1.9762,-2.06,-2.141,-2.2043,-2.2309,-2.253,-2.2803,-2.3013,-2.3101,-2.3101,-2.3101,-2.3101,-2.3101,-2.3101,-2.3101,-2.3101,-2.3101,-2.3101,-2.3101,-2.3101,-2.3101,-2.3101,-2.3101,-2.3101,-2.3101,-2.3101,-2.3101,-2.3101,-2.3101,-2.3101,-2.3101,-2.3101,-2.3232,-2.3503,-2.3721,-2.3745,-2.3635,-2.4023,-2.4076,-2.3662,-2.3969,-2.4269,-2.4418,-2.4796,-2.5194,0.0,-2.6322,0.0,0.0,0.0,0.0,0.0,0.0,0.0,0.0,-2.875,-2.954,-3.0593,-3.0708,-3.0896,-3.1348,-3.1449,-3.1499,-3.1512,-3.1989,-3.2315,-3.234,-3.2767,-3.3124,-3.3124,-3.3124,-3.3124,-3.3124,-3.3124,-3.3124,-3.3124,-3.3081,-3.3081,-3.3081,-3.3081,-3.3081,-3.3124,-3.3124,-3.3081,-3.3081,-3.3081,-3.3124,-3.3124,-3.3283,-3.3386,-3.3428,-3.3823,-3.4202,-3.4397,-3.4701,-3.5086,-3.5588,-3.575,-3.6071,-3.6587,-3.6861,-3.7031,-3.6978,-3.7056,-3.7303,-1.7502,-1.7495,-1.7442,-1.7437,-1.7476,-1.7813,-1.7924,-1.7904,-1.8334,-1.9142,-2.0209,-2.0736,-2.132,-2.1785,-2.222,-2.2539,-2.2794,-2.3013,-2.3101,-2.3101,-2.3101,-2.3101,-2.3101,-2.3101,-2.3101,-2.3101,-2.3101,-2.3101,-2.3101,-2.3101,-2.3101,-2.3101,-2.3101,-2.3101,-2.3101,0.0,0.0,0.0,-2.3101,-2.3101,-2.3101,-2.3101,-2.3232,-2.3503,-2.3711,0.0,-2.4277,-2.4399,-2.4579,-2.4861,-2.5043,0.0,0.0,0.0,0.0,0.0,0.0,0.0,0.0,0.0,0.0,0.0,-2.9616,-2.9754,-2.885,-2.9665,-3.0557,-3.1173,-3.1248,-3.1286,-3.1386,-3.18,-3.2051,-3.2077,-3.2566,-3.2918,-3.296,-3.3061,-3.3124,-3.3124,-3.3124,-3.3124,-3.3124,-3.3124,-3.3124,-3.3124,-3.3124,-3.3124,-3.3124,-3.3124,-3.3124,-3.3124,-3.3124,-3.3124,-3.3124,-3.3124,-3.3124,-3.3111,-3.327,-3.3441,-3.3641,-3.4008,-3.4452,-3.4701,-3.5154,-3.5548,-3.571,-3.627,-3.6744,-3.6915,-3.7226,-3.7457,-3.7303,-3.7495,-3.7815,-1.7589,0.0,-1.7589,-1.76,0.0,-1.7877,-1.7994,-1.7916,-1.8354,-1.9126,-2.011,-2.0645,-2.1096,-2.1571,-2.2132,-2.2485,-2.2608,-2.296,-2.3101,-2.3101,-2.3101,-2.3101,-2.3101,-2.3101,-2.3101,-2.3101,-2.3101,-2.3101,-2.3101,-2.3101,-2.3101,-2.3101,-2.3101,-2.3101,-2.3101,-2.3101,-2.3101,-2.3101,-2.3101,-2.3101,-2.3101,-2.3232,-2.3406,-2.3624,-2.397,0.0,0.0,0.0,0.0,0.0,0.0,0.0,0.0,0.0,0.0,-2.7322,-2.7804,-2.8189,-2.8338,-2.895,-2.9478,-2.9715,-3.052,-3.0758,-3.0181,-3.067,-3.1223,-3.1738,-3.18,-3.1913,-3.2244,-3.2478,-3.2654,-3.2654,-3.2905,-3.3124,-3.3124,-3.3124,-3.3124,-3.3124,-3.3124,-3.3124,-3.3124,-3.3124,-3.3124,-3.3124,-3.3124,-3.3124,-3.3124,-3.3124,-3.3124,-3.3124,-3.3124,-3.3124,-3.3124,-3.3124,-3.3167,-3.324,-3.3441,-3.3683,-3.3979,-3.4369,-3.4743,-3.5154,-3.5521,-3.579,-3.627,-3.6705,-3.7056,-3.738,-3.7687,-3.7915,-3.7877,-3.7991,-3.8127,-1.7589,-1.7589,-1.7589,-1.7589,-1.7621,-1.7891,-1.8068,-1.8129,0.0,0.0,0.0,-2.0374,-2.088,-2.1383,-2.1998,-2.2309,-2.2441,-2.2838,-2.3057,-2.3101,-2.3101,-2.3101,-2.3101,-2.3101,-2.3101,-2.3101,-2.3101,-2.3101,-2.3101,-2.3101,-2.3101,-2.3101,-2.3101,-2.3101,-2.3101,-2.3101,-2.3101,-2.3101,-2.3101,-2.3101,-2.3091,-2.3363,-2.358,-2.3797,-2.4229,-2.4658,-2.4988,-2.5601,-2.5876,-2.5806,-2.6348,-2.6669,-2.6688,-2.7062,-2.7403,-2.7815,-2.8461,-2.8936,-2.9189,-2.9666,-3.0218,-3.0819,-3.1286,-3.1537,-3.1537,-3.1524,-3.1763,-3.2315,-3.2365,-3.2566,-3.3074,-3.3124,-3.3124,-3.3124,-3.3124,-3.3124,-3.3124,-3.3124,-3.3124,-3.3124,-3.3124,-3.3124,-3.3124,-3.3124,-3.3124,-3.3124,-3.3124,-3.3124,-3.3124,-3.3124,-3.3124,-3.3124,-3.3124,-3.3124,-3.3124,-3.3124,-3.321,-3.3356,-3.3556,-3.3852,-3.4301,-3.466,-3.5072,-3.5562,-3.579,-3.623,-3.6822,-3.7095,-3.7341,-3.7853,-3.8118,-3.8315,-3.8501,-3.8478,-3.8464,-1.7589,-1.7589,-1.7589,-1.7589,-1.7628,-1.7864,-1.8219,-1.8622,-1.8768,-1.8996,-1.9333,-2.0056,-2.06,-2.1087,-2.1544,-2.2043,-2.2397,-2.2706,-2.2925,-2.3091,-2.3101,-2.3101,-2.3101,-2.3101,-2.3101,-2.3101,-2.3101,-2.3101,-2.3101,-2.3101,-2.3101,-2.3101,-2.3101,-2.3101,-2.3101,-2.3101,-2.3101,-2.3101,-2.3101,-2.3101,-2.3101,-2.3363,-2.359,-2.3797,-2.4272,-2.4786,-2.5401,-2.5728,-2.6227,-2.693,-2.7204,-2.7624,-2.8163,-2.8364,-2.8729,-2.9079,-2.9231,-2.9608,-3.0292,-3.0457,-3.0934,-3.1876,-3.2064,-3.2102,-3.2102,-3.2102,-3.234,-3.288,-3.2973,-3.298,-3.3068,-3.3124,-3.3124,-3.3124,-3.3124,-3.3124,-3.3124,-3.3124,-3.3124,-3.3124,-3.3124,-3.3124,-3.3124,-3.3124,-3.3124,-3.3124,-3.3124,-3.3124,-3.3124,-3.3124,-3.3124,-3.3124,-3.3124,-3.3124,-3.3124,-3.3124,-3.3197,-3.3356,-3.3598,-3.3937,-3.4384,-3.4908,-3.5358,-3.5683,-3.6284,-3.6783,-3.7017,-3.7457,-3.7801,-3.8104,-3.8315,-3.8604,-3.8907,-3.8958,-3.8995,-1.7589,-1.7589,-1.7589,-1.7589,-1.7635,-1.8055,-1.8365,-1.8571,-1.9079,-1.9365,-1.955,-2.0075,-2.06,-2.1042,-2.1508,-2.1954,-2.2397,-2.2671,-2.2925,-2.3091,-2.3101,-2.3101,-2.3101,-2.3101,-2.3101,-2.3101,-2.3101,-2.3101,-2.3101,-2.3101,-2.3101,-2.3101,-2.3101,-2.3101,-2.3101,-2.3101,-2.3101,-2.3101,-2.3101,-2.3188,-2.3319,-2.3537,-2.3841,-2.4196,-2.4615,-2.5168,-2.5664,-2.6188,-2.6674,-2.7185,-2.7632,-2.8047,-2.8471,-2.8776,-2.9079,-2.9392,-2.9795,-3.0213,-3.0555,-3.116,-3.1687,-3.2177,-3.2491,-3.2679,-3.2692,-3.2692,-3.2792,-3.3099,-3.3124,-3.3124,-3.3124,-3.3124,-3.3124,-3.3124,-3.3124,-3.3124,-3.3124,-3.3124,-3.3124,-3.3124,-3.3124,-3.3124,-3.3124,-3.3124,-3.3124,-3.3124,-3.3124,-3.3124,-3.3124,-3.3124,-3.3124,-3.3124,-3.3124,-3.3124,-3.3124,-3.3197,-3.3313,-3.3513,-3.3852,-3.4259,-3.4688,-3.5236,-3.5642,-3.6018,-3.6587,-3.7017,-3.7264,-3.7725,-3.8104,-3.8329,-3.8612,-3.8885,-3.9068,-3.9192,-3.9265,-1.7529,-1.7589,-1.7589,-1.7589,-1.7635,-1.8115,-1.8348,-1.8453,-1.9204,-1.9625,-1.9798,-2.0165,-2.0576,-2.1057,-2.141,-2.1865,-2.2397,-2.2618,-2.2828,-2.3101,-2.3101,-2.3101,-2.3101,-2.3101,-2.3101,-2.3101,-2.3101,-2.3101,-2.3101,-2.3101,-2.3101,-2.3101,-2.3101,-2.3101,-2.3101,-2.3101,-2.3101,-2.3101,-2.3144,-2.3276,-2.3503,-2.3667,-2.4024,-2.4507,-2.4988,-2.5496,-2.5979,-2.6592,-2.7085,-2.736,-2.7926,-2.8391,-2.8618,-2.8973,-2.9275,-2.952,-3.0175,-3.0733,-3.1009,-3.1863,-3.2416,-3.2416,-3.2817,-3.3124,-3.3124,-3.3124,-3.3124,-3.3124,-3.3124,-3.3124,-3.3124,-3.3124,-3.3124,-3.3124,-3.3124,-3.3124,-3.3124,-3.3124,-3.3124,-3.3124,-3.3124,-3.3124,-3.3124,-3.3124,-3.3124,-3.3124,-3.3124,-3.3124,-3.3124,-3.3124,-3.3124,-3.3124,-3.3124,-3.3124,-3.3154,-3.3283,-3.3484,-3.3725,-3.4105,-3.4564,-3.5031,-3.5467,-3.5965,-3.6417,-3.6889,-3.7303,-3.7649,-3.8028,-3.8366,-3.859,-3.8885,-3.9104,-3.9192,-3.9301,-3.9388,-1.7384,-1.7582,-1.7589,-1.7589,-1.7641,-1.7905,-1.8199,-1.8485,-1.9072,-1.9543,-1.9886,-2.0054,-2.0513,-2.1125,-2.1129,-2.1553,-2.2353,-2.2441,-2.2706,-2.3047,-2.3101,-2.3101,-2.3101,-2.3101,-2.3101,-2.3101,-2.3101,-2.3101,-2.3101,-2.3101,-2.3101,-2.3101,-2.3101,-2.3101,-2.3101,-2.3101,-2.3101,-2.3101,-2.3329,-2.346,-2.3503,-2.3711,-2.4013,-2.4507,-2.5126,-2.5695,-2.6155,-2.6816,-2.736,-2.7841,-2.8231,-2.8669,-2.9025,-2.9236,-2.9482,-2.979,-3.0331,-3.1022,-3.1976,-3.2641,-3.2968,-3.2993,-3.3074,-3.3124,-3.3124,-3.3124,-3.3124,-3.3124,-3.3124,-3.3124,-3.3124,-3.3124,-3.3124,-3.3124,-3.3124,-3.3124,-3.3124,-3.3124,-3.3124,-3.3124,-3.3124,-3.3124,-3.3124,-3.3124,-3.3124,-3.3124,-3.3124,-3.3124,-3.3124,-3.3124,-3.3124,-3.3124,-3.3124,-3.321,-3.3326,-3.3398,-3.3598,-3.3992,-3.4243,-3.4688,-3.5223,-3.571,-3.6151,-3.6719,-3.7226,-3.7649,-3.7991,-3.8329,-3.859,-3.8885,-3.9068,-3.9141,-3.9301,-3.9388,-3.9388,-1.7331,-1.7589,-1.7589,-1.7589,-1.7641,-1.7911,-1.8167,-1.8429,-1.9063,-1.9546,-2.0038,-2.0219,-2.056,-2.0997,-2.1239,-2.1599,-2.2008,-2.2264,-2.2574,-2.2935,-2.3057,-2.3101,-2.3101,-2.3101,-2.3101,-2.3101,-2.3101,-2.3101,-2.3101,-2.3101,-2.3101,-2.3101,-2.3101,-2.3101,-2.3101,-2.3101,-2.3101,-2.3101,-2.3373,-2.3547,-2.3711,-2.4024,-2.4454,-2.4914,-2.5464,-2.601,-2.6592,-2.7115,-2.7603,-2.8059,-2.8459,-2.8816,-2.9091,-2.9302,-2.9658,-3.0242,-3.1097,-3.1901,-3.2679,-3.2955,-3.3124,-3.3124,-3.3124,-3.3124,-3.3124,-3.3124,-3.3124,-3.3124,-3.3124,-3.3124,-3.3124,-3.3124,-3.3124,-3.3124,-3.3124,-3.3124,-3.3124,-3.3124,-3.3124,-3.3124,-3.3124,-3.3124,-3.3124,-3.3124,-3.3124,-3.3124,-3.3124,-3.3124,-3.3124,-3.3124,-3.3154,-3.324,-3.327,-3.3326,-3.3398,-3.3654,-3.3894,-3.423,-3.4577,-3.5031,-3.548,-3.6071,-3.6547,-3.694,-3.7419,-3.7839,-3.8127,-3.8464,-3.876,-3.9068,-3.9228,-3.9301,-3.9388,-3.9388,-3.9388,-1.7219,-1.7483,-1.7582,-1.7589,-1.7641,-1.7799,-1.8062,-1.8422,-1.8848,-1.9413,-2.0012,-2.0284,-2.0548,-2.0858,-2.1287,-2.157,-2.1723,-2.2132,-2.2485,-2.2794,-2.2969,-2.3047,-2.3091,-2.3101,-2.3101,-2.3101,-2.3101,-2.3101,-2.3101,-2.3101,-2.3101,-2.3101,-2.3101,-2.3101,-2.3101,-2.3101,-2.3101,-2.3135,-2.3406,-2.3667,-2.3851,-2.4411,-2.4871,-2.52,-2.5706,-2.626,-2.6891,-2.733,-2.7805,-2.8259,-2.8685,-2.8961,-2.917,-2.9541,-3.0136,-3.0969,-3.1775,-3.2466,-3.3086,-3.3124,-3.3124,-3.3124,-3.3124,-3.3124,-3.3124,-3.3124,-3.3124,-3.3124,-3.3124,-3.3124,-3.3124,-3.3124,-3.3124,-3.3124,-3.3124,-3.3124,-3.3124,-3.3124,-3.3124,-3.3124,-3.3124,-3.3124,-3.3124,-3.3124,-3.3124,-3.3124,-3.3124,-3.3124,-3.3124,-3.3154,-3.324,-3.3398,-3.3484,-3.3611,-3.3611,-3.3907,-3.4243,-3.4577,-3.4908,-3.5358,-3.5764,-3.635,-3.69,-3.7226,-3.7701,-3.8081,-3.8389,-3.8686,-3.8943,-3.9141,-3.9286,-3.9373,-3.9388,-3.9388,-3.9388,-1.6895,-1.7279,-1.7477,-1.7589,-1.7641,-1.7641,-1.7898,-1.837,-1.8422,-1.8945,-1.9732,-2.0277,-2.0585,-2.0802,-2.1087,-2.1405,-2.1697,-2.1963,-2.2362,-2.275,-2.2803,-2.2925,-2.3091,-2.3101,-2.3101,-2.3101,-2.3101,-2.3101,-2.3101,-2.3101,-2.3101,-2.3101,-2.3101,-2.3101,-2.3101,-2.3101,-2.3101,-2.3144,-2.3537,-2.3797,-2.3927,-2.469,-2.5158,-2.5285,-2.5863,-2.6404,-2.6933,-2.7557,-2.8082,-2.8459,-2.8855,-2.9157,-2.9429,-3.0099,-3.0982,-3.1951,-3.2177,-3.2491,-3.3023,-3.3124,-3.3124,-3.3124,-3.3124,-3.3124,-3.3124,-3.3124,-3.3124,-3.3124,-3.3124,-3.3124,-3.3124,-3.3124,-3.3124,-3.3124,-3.3124,-3.3124,-3.3124,-3.3124,-3.3124,-3.3124,-3.3124,-3.3124,-3.3124,-3.3124,-3.3124,-3.3124,-3.3124,-3.3124,-3.3167,-3.3283,-3.3356,-3.3526,-3.3781,-3.4076,-3.4076,-3.4243,-3.4494,-3.4825,-3.5277,-3.575,-3.6125,-3.6522,-3.7031,-3.7495,-3.7915,-3.8277,-3.8649,-3.8943,-3.9141,-3.9265,-3.9337,-3.9388,-3.9388,-3.9388,-3.9388,-1.7001,-1.743,-1.7536,-1.7589,-1.7589,-1.7589,-1.7799,-1.8174,-1.8325,-1.8795,-1.9472,-1.9983,-2.0362,-2.0568,-2.091,-2.1292,-2.1616,-2.177,-2.2087,-2.252,-2.2706,-2.2882,-2.3091,-2.3101,-2.3101,-2.3101,-2.3101,-2.3101,-2.3101,-2.3101,-2.3101,-2.3101,-2.3101,-2.3101,-2.3101,-2.3101,-2.3101,-2.3144,-2.357,-2.3797,-2.3884,-2.4733,-2.5232,-2.5411,-2.6082,-2.6704,-2.7249,-2.7719,-2.8151,-2.8685,-2.8934,-2.9197,-2.9466,-3.0488,-3.1424,-3.2139,-3.2566,-3.2855,-3.3086,-3.3124,-3.3124,-3.3124,-3.3124,-3.3124,-3.3124,-3.3124,-3.3124,-3.3124,-3.3124,-3.3124,-3.3124,-3.3124,-3.3124,-3.3124,-3.3124,-3.3124,-3.3124,-3.3124,-3.3124,-3.3124,-3.3124,-3.3124,-3.3124,-3.3124,-3.3124,-3.3124,-3.3124,-3.3154,-3.327,-3.3356,-3.3484,-3.3823,-3.4118,-3.4369,-3.4548,-3.4577,-3.4784,-3.5236,-3.5642,-3.6071,-3.6468,-3.6875,-3.7341,-3.7787,-3.8165,-3.8501,-3.8885,-3.9104,-3.9301,-3.9352,-3.9388,-3.9388,-3.9388,-3.9388,-3.9388,-1.6995,-1.7424,-1.7589,-1.7589,-1.7589,-1.7589,-1.774,-1.8016,-1.8174,-1.8593,-1.9175,-1.9628,-2.0059,-2.0411,-2.0663,-2.1047,-2.1509,-2.159,-2.183,-2.2318,-2.2574,-2.2803,-2.2969,-2.3047,-2.3101,-2.3101,-2.3101,-2.3101,-2.3101,-2.3101,-2.3101,-2.3101,-2.3101,-2.3101,-2.3101,-2.3101,-2.3101,-2.3178,-2.358,-2.3797,-2.3927,-2.4733,-2.5338,-2.5664,-2.626,-2.688,-2.7482,-2.7748,-2.8231,-2.8803,-2.9052,-2.9396,-3.0057,-3.0891,-3.1725,-3.2428,-3.2842,-3.3124,-3.3124,-3.3124,-3.3124,-3.3124,-3.3124,-3.3124,-3.3124,-3.3124,-3.3124,-3.3124,-3.3124,-3.3124,-3.3124,-3.3124,-3.3124,-3.3124,-3.3124,-3.3124,-3.3124,-3.3124,-3.3124,-3.3124,-3.3124,-3.3124,-3.3124,-3.3124,-3.3124,-3.3124,-3.3124,-3.3154,-3.3356,-3.3471,-3.3654,-3.4118,-3.4369,-3.4701,-3.499,-3.5154,-3.5154,-3.5521,-3.6085,-3.6508,-3.6822,-3.7226,-3.7649,-3.8089,-3.8478,-3.8775,-3.9031,-3.9265,-3.9373,-3.9388,-3.9388,-3.9388,-3.9388,-3.9388,-3.9388,-1.6902,-1.7232,-1.7483,-1.7589,-1.7589,-1.7589,-1.7747,-1.7964,-1.8016,-1.8391,-1.8862,-1.922,-1.9768,-2.0307,-2.0366,-2.0652,-2.129,-2.1405,-2.1652,-2.2097,-2.2309,-2.2574,-2.2847,-2.3013,-2.3101,-2.3101,-2.3101,-2.3101,-2.3101,-2.3101,-2.3101,-2.3101,-2.3101,-2.3101,-2.3101,-2.3101,-2.3101,-2.3188,-2.358,-2.3797,-2.3927,-2.4733,-2.5411,-2.5853,-2.6354,-2.688,-2.7482,-2.7748,-2.8231,-2.8986,-2.9091,-2.9846,-3.1004,-3.1361,-3.1876,-3.2805,-3.3068,-3.3124,-3.3124,-3.3124,-3.3124,-3.3124,-3.3124,-3.3124,-3.3124,-3.3124,-3.3124,-3.3124,-3.3124,-3.3124,-3.3124,-3.3124,-3.3124,-3.3124,-3.3124,-3.3124,-3.3124,-3.3124,-3.3124,-3.3124,-3.3124,-3.3124,-3.3124,-3.3124,-3.3124,-3.3124,-3.3124,-3.3197,-3.3441,-3.3641,-3.3937,-3.4314,-3.4701,-3.5072,-3.5399,-3.571,-3.571,-3.5831,-3.6468,-3.694,-3.7187,-3.7534,-3.7915,-3.8329,-3.8701,-3.8995,-3.9156,-3.9373,-3.9388,-3.9388,-3.9388,-3.9388,-3.9388,-3.9388,-3.9388,-1.6902,-1.7226,-1.7483,-1.7589,-1.7589,-1.7589,-1.7641,-1.7747,-1.7911,-1.822,-1.8593,-1.9063,-1.9635,-2.0148,-2.0274,-2.0631,-2.1092,-2.1235,-2.1472,-2.1822,-2.222,-2.253,-2.2803,-2.3013,-2.3101,-2.3101,-2.3101,-2.3101,-2.3101,-2.3101,-2.3101,-2.3101,-2.3101,-2.3101,-2.3101,-2.3101,-2.3101,-2.3144,-2.357,-2.3797,-2.3884,-2.4733,-2.5422,-2.5895,-2.6354,-2.6974,-2.7708,-2.7841,-2.8271,-2.9064,-2.9104,-2.9782,-3.1066,-3.1386,-3.1967,-3.2948,-3.3124,-3.3124,-3.3124,-3.3124,-3.3124,-3.3124,-3.3124,-3.3124,-3.3124,-3.3124,-3.3124,-3.3124,-3.3124,-3.3124,-3.3124,-3.3124,-3.3124,-3.3124,-3.3124,-3.3124,-3.3124,-3.3124,-3.3124,-3.3124,-3.3124,-3.3124,-3.3124,-3.3124,-3.3124,-3.3111,-3.3185,-3.3356,-3.3598,-3.3937,-3.4272,-3.4632,-3.5031,-3.544,-3.575,-3.6151,-3.6389,-3.6468,-3.69,-3.7289,-3.7534,-3.7801,-3.8179,-3.8553,-3.8922,-3.9156,-3.9352,-3.9388,-3.9388,-3.9388,-3.9388,-3.9388,-3.9388,-3.9388,-3.9388,-1.6743,-1.7067,-1.7325,-1.7536,-1.7589,-1.7589,-1.7589,-1.7635,-1.7793,-1.8062,-1.8422,-1.8803,-1.9368,-1.9914,-2.014,-2.04,-2.0732,-2.0934,-2.1204,-2.1509,-2.2132,-2.2485,-2.2706,-2.2969,-2.3101,-2.3101,-2.3101,-2.3101,-2.3101,-2.3101,-2.3101,-2.3101,-2.3101,-2.3101,-2.3101,-2.3101,-2.3101,-2.3178,-2.3537,-2.3797,-2.4013,-2.4733,-2.5411,-2.5906,-2.6354,-2.7056,-2.78,-2.7881,-2.8271,-2.8973,-2.9248,-3.0017,-3.126,-3.1411,-3.1888,-3.2847,-3.3124,-3.3124,-3.3124,-3.3124,-3.3124,-3.3124,-3.3124,-3.3124,-3.3124,-3.3124,-3.3124,-3.3124,-3.3124,-3.3124,-3.3124,-3.3124,-3.3124,-3.3124,-3.3124,-3.3124,-3.3124,-3.3124,-3.3124,-3.3124,-3.3124,-3.3124,-3.3124,-3.3124,-3.3167,-3.3197,-3.3313,-3.3569,-3.381,-3.4147,-3.4494,-3.488,-3.5331,-3.5683,-3.6071,-3.6547,-3.7031,-3.7187,-3.738,-3.7649,-3.7877,-3.8104,-3.8404,-3.8775,-3.9156,-3.9228,-3.9388,-3.9388,-3.9388,-3.9388,-3.9388,-3.9388,-3.9388,-3.9388,-3.9388,-1.6424,-1.673,-1.706,-1.7384,-1.7589,-1.7589,-1.7589,-1.7589,-1.7641,-1.7898,-1.8318,-1.8422,-1.8893,-1.9561,-1.989,-2.0116,-2.0257,-2.0679,-2.0925,-2.1239,-2.1856,-2.2353,-2.253,-2.2925,-2.3101,-2.3101,-2.3101,-2.3101,-2.3101,-2.3101,-2.3101,-2.3101,-2.3101,-2.3101,-2.3101,-2.3101,-2.3101,-2.3178,-2.358,-2.3797,-2.3831,-2.4733,-2.5422,-2.5895,-2.6343,-2.7015,-2.776,-2.8042,-2.8391,-2.9052,-2.9507,-3.0204,-3.111,-3.1361,-3.1888,-3.2923,-3.3086,-3.3124,-3.3124,-3.3124,-3.3124,-3.3124,-3.3124,-3.3124,-3.3124,-3.3124,-3.3124,-3.3124,-3.3124,-3.3124,-3.3124,-3.3124,-3.3124,-3.3124,-3.3124,-3.3124,-3.3124,-3.3124,-3.3124,-3.3124,-3.3124,-3.3124,-3.3124,-3.3124,-3.324,-3.3368,-3.3441,-3.3738,-3.4021,-3.4356,-3.4647,-3.51,-3.5562,-3.6005,-3.6429,-3.6822,-3.7303,-3.7649,-3.7801,-3.7991,-3.8217,-3.8441,-3.8664,-3.901,-3.9228,-3.9352,-3.9388,-3.9388,-3.9388,-3.9388,-3.9388,-3.9388,-3.9388,-3.9373,-3.9328,-1.6258,-1.6736,-1.706,-1.7384,-1.7589,-1.7589,-1.7589,-1.7589,-1.7589,-1.7793,-1.8069,-1.8318,-1.8795,-1.9413,-1.984,-2.0097,-2.0297,-2.0689,-2.0976,-2.1077,-2.1588,-2.2176,-2.2662,-2.2969,-2.3101,-2.3101,-2.3101,-2.3101,-2.3101,-2.3101,-2.3101,-2.3101,-2.3101,-2.3101,-2.3101,-2.3101,-2.3101,-2.3188,-2.358,-2.3797,-2.3927,-2.4733,-2.5422,-2.5895,-2.6354,-2.7015,-2.7881,-2.8471,-2.8828,-2.9091,-2.9546,-3.0093,-3.0783,-3.1173,-3.1687,-3.2365,-3.2842,-3.3124,-3.3111,-3.3124,-3.3124,-3.3124,-3.3124,-3.3124,-3.3124,-3.3124,-3.3124,-3.3124,-3.3124,-3.3124,-3.3124,-3.3124,-3.3124,-3.3124,-3.3124,-3.3124,-3.3124,-3.3124,-3.3124,-3.3124,-3.3124,-3.3124,-3.3124,-3.324,-3.3326,-3.3441,-3.3696,-3.3992,-3.4327,-3.4688,-3.5059,-3.5467,-3.5924,-3.6363,-3.6797,-3.7187,-3.761,-3.7991,-3.8179,-3.8315,-3.8516,-3.8701,-3.8973,-3.9265,-3.9301,-3.9388,-3.9388,-3.9388,-3.9388,-3.9388,-3.9388,-3.9388,-3.9394,-3.9379,-3.929,-1.6057,-1.6583,-1.6849,-1.7166,-1.7437,-1.7529,-1.7589,-1.7589,-1.7641,-1.7747,-1.8016,-1.8265,-1.8639,-1.9175,-1.982,-2.0066,-2.0135,-2.0604,-2.0891,-2.114,-2.1722,-2.2309,-2.275,-2.3013,-2.3101,-2.3101,-2.3101,-2.3101,-2.3101,-2.3101,-2.3101,-2.3101,-2.3101,-2.3101,-2.3101,-2.3101,-2.3101,-2.3178,-2.3527,-2.3797,-2.3884,-2.4722,-2.538,-2.5895,-2.6354,-2.7015,-2.7881,-2.8657,-2.9091,-2.9221,-2.9571,-3.0043,-3.0557,-3.0884,-3.1411,-3.2127,-3.2541,-3.2792,-3.3074,-3.3124,-3.3124,-3.3124,-3.3124,-3.3124,-3.3124,-3.3124,-3.3124,-3.3124,-3.3124,-3.3124,-3.3124,-3.3124,-3.3124,-3.3124,-3.3124,-3.3124,-3.3124,-3.3124,-3.3124,-3.3124,-3.3124,-3.3124,-3.3124,-3.3283,-3.3441,-3.3611,-3.3937,-3.4243,-3.4577,-3.5031,-3.544,-3.5844,-3.6284,-3.6719,-3.7095,-3.7481,-3.7877,-3.8292,-3.859,-3.8701,-3.8811,-3.8958,-3.9156,-3.9352,-3.9388,-3.9358,-3.9313,-3.9313,-3.9388,-3.9388,-3.9388,-3.9209,-3.911,-3.899,-3.8945,-1.5743,-1.6271,-1.6583,-1.6902,-1.7226,-1.7483,-1.7589,-1.7589,-1.7589,-1.7747,-1.7957,-1.8265,-1.8534,-1.8921,-1.9717,-1.9973,-1.9794,-2.0362,-2.0738,-2.1192,-2.1847,-2.2485,-2.2706,-2.296,-2.3091,-2.3101,-2.3101,-2.3101,-2.3101,-2.3101,-2.3101,-2.3101,-2.3101,-2.3101,-2.3101,-2.3101,-2.3101,-2.3188,-2.358,-2.3797,-2.397,-2.469,-2.5369,-2.5812,-2.6509,-2.7138,-2.7909,-2.8618,-2.9104,-2.9104,-2.9546,-2.9991,-3.047,-3.0545,-3.1035,-3.1813,-3.2139,-3.2491,-3.2923,-3.3036,-3.3124,-3.3124,-3.3124,-3.3124,-3.3124,-3.3124,-3.3124,-3.3124,-3.3124,-3.3124,-3.3124,-3.3124,-3.3124,-3.3124,-3.3124,-3.3124,-3.3124,-3.3124,-3.3124,-3.3124,-3.3124,-3.3124,-3.3167,-3.3326,-3.3526,-3.3907,-3.4243,-3.4577,-3.4908,-3.5304,-3.5669,-3.6031,-3.6508,-3.7031,-3.7419,-3.7787,-3.8165,-3.8553,-3.8885,-3.9083,-3.9068,-3.9192,-3.9301,-3.9388,-3.9388,-3.9269,-3.9125,-3.9185,-3.9179,-3.894,-3.8676,-3.8556,-3.8467,-3.8347,-3.8272,-1.5464,-1.5998,-1.6465,-1.6895,-1.7232,-1.7483,-1.7589,-1.7589,-1.7589,-1.7635,-1.7793,-1.8213,-1.8429,-1.8586,-1.9591,-1.9864,-1.9615,-2.0232,-2.0759,-2.1113,-2.1989,-2.2397,-2.2574,-2.2872,-2.3091,-2.3101,-2.3101,-2.3101,-2.3101,-2.3101,-2.3101,-2.3101,-2.3101,-2.3101,-2.3101,-2.3101,-2.3101,-2.3188,-2.358,-2.3797,-2.397,-2.469,-2.5327,-2.5759,-2.6693,-2.7452,-2.7962,-2.8669,-2.9104,-2.9221,-2.9507,-2.988,-3.0068,-3.0382,-3.0733,-3.111,-3.1788,-3.224,-3.2453,-3.2792,-3.3124,-3.3068,-3.3124,-3.3124,-3.3124,-3.3124,-3.3124,-3.3124,-3.3124,-3.3124,-3.3124,-3.3124,-3.3124,-3.3124,-3.3124,-3.3124,-3.3124,-3.3124,-3.3124,-3.3124,-3.3124,-3.3167,-3.3326,-3.3526,-3.381,-3.4189,-3.4535,-3.4908,-3.5277,-3.5588,-3.5991,-3.6389,-3.6822,-3.7341,-3.7711,-3.8046,-3.8399,-3.8568,-3.8882,-3.8892,-3.8928,-3.9002,-3.8985,-3.9149,-3.9388,-3.9149,-3.8691,-3.8601,-3.8542,-3.8212,-3.7943,-3.7853,-3.7778,-3.7689,-3.7479,-1.5202,-1.5737,-1.6264,-1.6683,-1.7008,-1.7265,-1.7483,-1.7589,-1.7589,-1.7589,-1.774,-1.816,-1.837,-1.8527,-1.9539,-1.9813,-1.9697,-2.0256,-2.0769,-2.1176,-2.1945,-2.2397,-2.253,-2.2838,-2.3101,-2.3101,-2.3101,-2.3101,-2.3101,-2.3101,-2.3101,-2.3101,-2.3101,-2.3101,-2.3101,-2.3101,-2.3101,-2.3178,-2.358,-2.3797,-2.3927,-2.469,-2.5527,-2.6041,-2.6981,-2.7615,-2.7921,-2.8657,-2.9064,-2.9209,-2.9534,-2.9779,-2.9804,-3.008,-3.0331,-3.0708,-3.106,-3.1775,-3.2139,-3.2491,-3.2792,-3.3056,-3.3124,-3.3124,-3.3124,-3.3124,-3.3124,-3.3124,-3.3124,-3.3124,-3.3124,-3.3124,-3.3124,-3.3124,-3.3124,-3.3124,-3.3124,-3.3124,-3.3124,-3.3124,-3.321,-3.3283,-3.3441,-3.3683,-3.3979,-3.4327,-3.4743,-3.5113,-3.5548,-3.5911,-3.6389,-3.6783,-3.7187,-3.761,-3.7976,-3.8316,-3.8561,-3.8638,-3.8624,-3.8446,-3.8207,-3.8342,-3.8446,-3.8641,-3.879,-3.8392,-3.7973,-3.7928,-3.7883,-3.7749,-3.7539,-3.7285,-3.709,-3.7015,-3.6731,-1.488,-1.5482,-1.601,-1.6424,-1.6736,-1.706,-1.7325,-1.7589,-1.7589,-1.7589,-1.7687,-1.8108,-1.8318,-1.8632,-1.9465,-1.9689,-1.9836,-2.0129,-2.0635,-2.1096,-2.1811,-2.2255,-2.2485,-2.2794,-2.3057,-2.3101,-2.3101,-2.3101,-2.3101,-2.3101,-2.3101,-2.3101,-2.3101,-2.3101,-2.3101,-2.3101,-2.3101,-2.3135,-2.3537,-2.3797,-2.397,-2.4722,-2.5622,-2.6456,-2.7074,-2.7574,-2.8002,-2.863,-2.9104,-2.9143,-2.9546,-2.974,-2.9779,-2.9817,-2.9955,-3.047,-3.0645,-3.1085,-3.17,-3.2102,-3.2466,-3.293,-3.3099,-3.3124,-3.3124,-3.3124,-3.3124,-3.3124,-3.3124,-3.3124,-3.3124,-3.3124,-3.3124,-3.3124,-3.3124,-3.3124,-3.3124,-3.3124,-3.3124,-3.3124,-3.324,-3.3356,-3.3569,-3.381,-3.416,-3.4494,-3.4908,-3.5358,-3.579,-3.627,-3.6705,-3.7134,-3.7519,-3.8014,-3.8427,-3.8179,-3.8447,-3.8424,-3.8347,-3.7973,-3.7599,-3.7569,-3.7719,-3.7973,-3.7973,-3.7599,-3.736,-3.7285,-3.7255,-3.724,-3.6985,-3.6596,-3.6417,-3.6342,-3.6088,-1.46,-1.5095,-1.5731,-1.6258,-1.6736,-1.7067,-1.7331,-1.7589,-1.7589,-1.7589,-1.7635,-1.7911,-1.822,-1.8527,-1.9116,-1.9618,-1.9933,-2.0159,-2.0419,-2.0988,-2.1633,-2.2008,-2.2441,-2.2715,-2.2935,-2.3057,-2.3101,-2.3101,-2.3101,-2.3101,-2.3101,-2.3101,-2.3101,-2.3101,-2.3101,-2.3101,-2.3159,-2.3286,-2.3656,-2.3948,-2.4155,-2.4868,-2.573,-2.6598,-2.7124,-2.7499,-2.8002,-2.863,-2.9104,-2.9143,-2.9546,-2.974,-2.9779,-2.9779,-2.9854,-3.0018,-3.0344,-3.0708,-3.1072,-3.1725,-3.2139,-3.2453,-3.2754,-3.3061,-3.3086,-3.3124,-3.3124,-3.3124,-3.3124,-3.3124,-3.3124,-3.3124,-3.3124,-3.3124,-3.3124,-3.3124,-3.3124,-3.3124,-3.3124,-3.3154,-3.3313,-3.3513,-3.3768,-3.4063,-3.4439,-3.4825,-3.5195,-3.5723,-3.6244,-3.664,-3.7017,-3.7443,-3.7863,-3.8389,-3.887,-3.8345,-3.8124,-3.7998,-3.7853,-3.7509,-3.715,-3.6866,-3.6911,-3.7135,-3.724,-3.7075,-3.6881,-3.6686,-3.6492,-3.6372,-3.6103,-3.5863,-3.5893,-3.5923,-3.5833,-1.4283,-1.4821,-1.547,-1.6105,-1.6677,-1.6895,-1.7213,-1.7589,-1.7589,-1.7589,-1.7694,-1.7852,-1.8174,-1.8482,-1.9011,-1.9626,-1.999,-1.9994,-2.0309,-2.0952,-2.1499,-2.1954,-2.2416,-2.269,-2.2882,-2.3057,-2.3101,-2.311,-2.3101,-2.3101,-2.3101,-2.3101,-2.3101,-2.3101,-2.3169,-2.3389,-2.3447,-2.3585,-2.4108,-2.4515,-2.4614,-2.5432,-2.626,-2.6861,-2.7304,-2.7666,-2.7973,-2.8669,-2.9104,-2.9182,-2.9546,-2.974,-2.9779,-2.9779,-2.9779,-2.9842,-3.0055,-3.0344,-3.0557,-3.1173,-3.1436,-3.1813,-3.2315,-3.2604,-3.2717,-3.2855,-3.3111,-3.3124,-3.3124,-3.3124,-3.3124,-3.3124,-3.3124,-3.3124,-3.3124,-3.3124,-3.3124,-3.3124,-3.3154,-3.3227,-3.3428,-3.3683,-3.3937,-3.4314,-3.4743,-3.5154,-3.5521,-3.6017,-3.6573,-3.6908,-3.72,-3.7476,-3.7802,-3.8062,-3.8424,-3.8056,-3.7645,-3.753,-3.7285,-3.6926,-3.6611,-3.6282,-3.6163,-3.6237,-3.6297,-3.6462,-3.6237,-3.5983,-3.5744,-3.5594,-3.5639,-3.5654,-3.5564,-3.5504,-3.5489,-1.391,-1.4546,-1.5154,-1.5844,-1.6471,-1.6677,-1.7001,-1.7477,-1.7582,-1.7589,-1.7641,-1.7852,-1.8062,-1.8492,-1.8964,-1.9559,-1.9998,-1.9846,-2.0323,-2.1029,-2.1491,-2.1977,-2.2608,-2.2866,-2.3165,-2.351,-2.3461,-2.3247,-2.311,-2.3101,-2.3101,-2.3101,-2.3101,-2.3169,-2.334,-2.3594,-2.3779,-2.4195,-2.473,-2.5214,-2.5634,-2.619,-2.6898,-2.7372,-2.7716,-2.7914,-2.8128,-2.8718,-2.9077,-2.9221,-2.9495,-2.9779,-2.9779,-2.9779,-2.9779,-2.9779,-2.9779,-3.0043,-3.0306,-3.0633,-3.0922,-3.1223,-3.175,-3.2039,-3.2378,-3.2742,-3.3124,-3.3124,-3.3124,-3.3124,-3.3124,-3.3124,-3.3124,-3.3124,-3.3124,-3.3124,-3.3124,-3.3154,-3.3313,-3.3428,-3.3641,-3.3856,-3.4069,-3.4535,-3.499,-3.5467,-3.5831,-3.5983,-3.6504,-3.6925,-3.722,-3.7401,-3.7631,-3.7706,-3.7738,-3.7525,-3.7172,-3.6922,-3.6596,-3.6237,-3.5938,-3.5639,-3.5654,-3.5774,-3.5729,-3.5833,-3.5564,-3.5489,-3.5519,-3.5534,-3.5504,-3.5489,-3.5489,-3.5489,-3.5489,-1.3472,-1.4277,-1.4826,-1.541,-1.6051,-1.6518,-1.6895,-1.7279,-1.7536,-1.7589,-1.7589,-1.7687,-1.795,-1.8421,-1.8873,-1.925,-1.9484,-1.9719,-2.0285,-2.1164,-2.1566,-2.2327,-2.3297,-2.353,-2.371,-2.3945,-2.4105,-2.3754,-2.3393,-2.3227,-2.3169,-2.3198,-2.3266,-2.3286,-2.3701,-2.3906,-2.3975,-2.4379,-2.495,-2.565,-2.634,-2.661,-2.7126,-2.7676,-2.7975,-2.811,-2.841,-2.8819,-2.9052,-2.917,-2.9546,-2.9779,-2.9779,-2.9779,-2.9779,-2.9779,-2.9792,-2.9817,-2.9993,-3.0281,-3.0532,-3.0758,-3.1185,-3.1687,-3.2102,-3.2541,-3.2893,-3.3124,-3.3086,-3.3111,-3.3111,-3.3124,-3.3124,-3.3124,-3.3124,-3.3124,-3.3124,-3.3227,-3.3386,-3.3432,-3.3592,-3.3897,-3.4147,-3.4692,-3.5249,-3.5683,-3.6068,-3.6159,-3.6399,-3.6778,-3.7111,-3.7302,-3.7181,-3.7232,-3.7154,-3.6922,-3.6656,-3.6357,-3.6073,-3.5714,-3.5609,-3.5489,-3.5489,-3.5564,-3.5489,-3.5489,-3.5489,-3.5489,-3.5489,-3.5489,-3.5489,-3.5489,-3.5489,-3.5489,-3.5489,-1.2985,-1.3959,-1.4713,-1.5357,-1.5945,-1.6471,-1.6902,-1.7226,-1.7483,-1.7589,-1.7589,-1.7589,-1.7898,-1.8393,-1.8591,-1.8947,-1.9361,-1.9628,-2.0293,-2.1252,-2.1784,-2.2487,-2.3252,-2.3635,-2.3905,-2.4195,-2.4312,-2.4268,-2.3871,-2.3822,-2.3812,-2.3828,-2.3793,-2.391,-2.416,-2.4394,-2.459,-2.4965,-2.5585,-2.6428,-2.7125,-2.7416,-2.7709,-2.8321,-2.8287,-2.8391,-2.8628,-2.8775,-2.8986,-2.9118,-2.9443,-2.965,-2.974,-2.9779,-2.9779,-2.9779,-2.9779,-2.9792,-2.9829,-3.003,-3.0143,-3.0294,-3.0658,-3.1173,-3.1662,-3.1989,-3.2328,-3.2566,-3.2579,-3.2717,-3.3023,-3.3124,-3.3124,-3.3124,-3.3124,-3.3074,-3.3104,-3.33,-3.342,-3.3469,-3.353,-3.3729,-3.3936,-3.4326,-3.4699,-3.5039,-3.5463,-3.5751,-3.6031,-3.6424,-3.6793,-3.7087,-3.6892,-3.6658,-3.6522,-3.6357,-3.6103,-3.5863,-3.5863,-3.5579,-3.5549,-3.5489,-3.5489,-3.5489,-3.5489,-3.5489,-3.5489,-3.5489,-3.5489,-3.5489,-3.5489,-3.5489,-3.5489,-3.5489,-3.5489,-1.2604,-1.3694,-1.4552,-1.5196,-1.5725,-1.6411,-1.6842,-1.712,-1.7477,-1.7589,-1.7641,-1.7687,-1.7923,-1.8212,-1.8369,-1.8641,-1.921,-1.9614,-2.0356,-2.1191,-2.2028,-2.2772,-2.349,-2.3852,-2.4183,-2.4295,-2.4732,-2.4758,-2.4738,-2.467,-2.4639,-2.4443,-2.4287,-2.4443,-2.4629,-2.4824,-2.5077,-2.5425,-2.6064,-2.6815,-2.7547,-2.7887,-2.8264,-2.8588,-2.8674,-2.8614,-2.8768,-2.8678,-2.8828,-2.9079,-2.9302,-2.956,-2.9753,-2.9779,-2.9779,-2.9779,-2.9779,-2.9779,-2.9779,-2.9842,-2.9792,-2.9955,-3.0269,-3.0806,-3.1122,-3.1273,-3.1486,-3.2001,-3.2014,-3.2315,-3.2692,-3.283,-3.296,-3.3023,-3.3124,-3.3036,-3.2965,-3.3064,-3.3059,-3.2921,-3.3005,-3.3212,-3.3475,-3.3842,-3.4177,-3.4423,-3.4789,-3.526,-3.5669,-3.606,-3.6172,-3.6403,-3.6361,-3.6134,-3.6052,-3.5848,-3.5564,-3.5489,-3.5489,-3.5489,-3.5489,-3.5489,-3.5489,-3.5489,-3.5489,-3.5489,-3.5489,-3.5489,-3.5489,-3.5489,-3.5489,-3.5489,-3.5489,-3.5489,-3.5489,-1.2495,-1.3369,-1.4283,-1.4821,-1.519,-1.6258,-1.673,-1.6842,-1.7371,-1.7589,-1.7635,-1.7825,-1.7929,-1.8025,-1.816,-1.8353,-1.8732,-1.947,-2.0322,-2.1205,-2.2201,-2.3112,-2.3794,-2.4375,-2.484,-2.5092,-2.5295,-2.543,-2.5528,-2.5352,-2.5049,-2.4551,-2.4658,-2.4766,-2.4922,-2.5137,-2.5475,-2.5844,-2.6322,-2.6774,-2.7394,-2.7809,-2.8319,-2.8805,-2.8656,-2.8591,-2.923,-2.8807,-2.8697,-2.9052,-2.9275,-2.9521,-2.9753,-2.9779,-2.9779,-2.9779,-2.9779,-2.9779,-2.9779,-2.9779,-2.9779,-2.9955,-3.0218,-3.0532,-3.0658,-3.111,-3.1361,-3.1411,-3.1461,-3.1725,-3.2064,-3.2315,-3.2453,-3.2634,-3.2646,-3.2546,-3.2559,-3.2733,-3.2685,-3.2425,-3.2475,-3.2788,-3.2932,-3.3276,-3.3748,-3.4048,-3.4649,-3.5103,-3.5239,-3.5556,-3.5417,-3.5522,-3.5642,-3.5621,-3.5606,-3.5489,-3.5489,-3.5489,-3.5489,-3.5489,-3.5489,-3.5489,-3.5489,-3.5489,-3.5489,-3.5489,-3.5489,-3.5489,-3.5489,-3.5489,-3.5489,-3.5489,-3.5489,-3.5489,-3.5489,-1.2332,-1.3369,-1.4062,-1.46,-1.5095,-1.6199,-1.667,-1.6783,-1.7318,-1.7589,-1.7615,-1.7558,-1.7674,-1.7855,-1.7633,-1.7947,-1.8588,-1.9309,-2.0175,-2.1198,-2.2282,-2.321,-2.3926,-2.4489,-2.4971,-2.5137,-2.543,-2.5684,-2.5654,-2.5684,-2.5567,-2.5245,-2.5099,-2.5255,-2.5449,-2.543,-2.5711,-2.6021,-2.64,-2.6736,-2.7251,-2.7762,-2.8373,-2.9004,-2.8578,-2.8694,-2.9141,-2.8673,-2.8735,-2.8973,-2.9157,-2.9456,-2.9702,-2.9779,-2.9779,-2.9779,-2.9779,-2.9779,-2.9779,-2.9779,-2.9779,-2.9817,-2.9993,-3.0131,-3.0168,-3.0344,-3.062,-3.0758,-3.0922,-3.1148,-3.1587,-3.1712,-3.18,-3.2018,-3.2081,-3.2059,-3.2098,-3.2268,-3.223,-3.1926,-3.2136,-3.2477,-3.2546,-3.2631,-3.3192,-3.3723,-3.4335,-3.4894,-3.5039,-3.523,-3.5218,-3.5261,-3.5424,-3.5457,-3.5489,-3.5489,-3.5489,-3.5489,-3.5489,-3.5489,-3.5489,-3.5489,-3.5489,-3.5489,-3.5489,-3.5489,-3.5489,-3.5489,-3.5489,-3.5489,-3.5489,-3.5489,-3.5489,-3.5489,-3.5489,-1.2223,-1.3207,-1.3905,-1.4493,-1.5143,-1.6199,-1.667,-1.6783,-1.7312,-1.7574,-1.7494,-1.7286,-1.7384,-1.751,-1.7288,-1.7544,-1.8432,-1.9205,-2.0047,-2.1103,-2.2238,-2.3117,-2.3795,-2.4399,-2.4941,-2.5039,-2.5382,-2.5684,-2.5684,-2.5684,-2.5635,-2.5625,-2.5684,-2.5654,-2.5654,-2.5732,-2.5771,-2.6014,-2.6352,-2.6651,-2.7119,-2.7668,-2.8186,-2.8754,-2.8411,-2.8521,-2.8781,-2.851,-2.8423,-2.8749,-2.9064,-2.93,-2.9534,-2.974,-2.9779,-2.9779,-2.9779,-2.9779,-2.9779,-2.9779,-2.9779,-2.9804,-2.9804,-2.9829,-2.9779,-2.9792,-3.0118,-3.0281,-3.0382,-3.0583,-3.1072,-3.1173,-3.1348,-3.1562,-3.1678,-3.1656,-3.1595,-3.1631,-3.1576,-3.1474,-3.1777,-3.2161,-3.2645,-3.2833,-3.3331,-3.3853,-3.4321,-3.4782,-3.497,-3.5119,-3.5273,-3.5359,-3.5457,-3.5489,-3.5489,-3.5489,-3.5489,-3.5489,-3.5489,-3.5489,-3.5489,-3.5489,-3.5489,-3.5489,-3.5489,-3.5489,-3.5489,-3.5489,-3.5489,-3.5489,-3.5489,-3.5489,-3.5489,-3.5489,-3.5489,-1.2119,-1.2985,-1.3851,-1.4493,-1.5089,-1.6205,-1.667,-1.677,-1.7279,-1.7467,-1.7259,-1.7159,-1.7102,-1.7058,-1.6981,-1.7387,-1.8102,-1.8999,-1.9893,-2.0866,-2.2073,-2.2933,-2.3687,-2.4291,-2.4892,-2.5039,-2.5382,-2.5684,-2.5684,-2.5684,-2.5684,-2.5684,-2.5684,-2.5684,-2.5684,-2.5684,-2.5732,-2.5791,-2.6265,-2.6496,-2.6784,-2.7478,-2.8092,-2.8245,-2.8176,-2.8269,-2.8464,-2.8275,-2.8238,-2.855,-2.8895,-2.917,-2.9431,-2.965,-2.974,-2.9779,-2.9779,-2.9779,-2.9779,-2.9779,-2.9779,-2.9779,-2.9779,-2.9779,-2.9779,-2.9792,-2.9804,-3.0005,-2.9942,-3.0131,-3.0419,-3.0658,-3.0884,-3.0997,-3.106,-3.113,-3.1091,-3.1109,-3.1061,-3.1289,-3.1521,-3.1844,-3.2557,-3.3136,-3.3619,-3.4063,-3.4424,-3.4698,-3.4916,-3.5115,-3.5311,-3.5392,-3.5489,-3.5489,-3.5489,-3.5489,-3.5489,-3.5489,-3.5489,-3.5489,-3.5489,-3.5489,-3.5489,-3.5489,-3.5489,-3.5489,-3.5489,-3.5489,-3.5489,-3.5489,-3.5489,-3.5489,-3.5489,-3.5489,-3.5489,-1.2114,-1.2989,-1.3846,-1.4493,-1.5143,-1.6199,-1.667,-1.6745,-1.7121,-1.7293,-1.7125,-1.6824,-1.6697,-1.6746,-1.6786,-1.7072,-1.7685,-1.8476,-1.939,-2.0516,-2.1765,-2.2676,-2.3498,-2.4291,-2.4892,-2.5039,-2.5382,-2.5684,-2.5684,-2.5684,-2.5684,-2.5684,-2.5684,-2.5684,-2.5684,-2.5684,-2.5684,-2.5791,-2.6169,-2.6496,-2.6592,-2.7278,-2.7802,-2.7931,-2.7777,-2.7872,-2.8191,-2.7935,-2.8078,-2.8419,-2.8736,-2.904,-2.9302,-2.9521,-2.9638,-2.974,-2.9779,-2.9779,-2.9779,-2.9779,-2.9779,-2.9779,-2.9779,-2.9779,-2.9779,-2.9779,-2.9779,-2.9779,-2.9779,-2.9942,-3.003,-3.0068,-3.0193,-3.0181,-3.0245,-3.0428,-3.047,-3.0612,-3.0713,-3.1155,-3.1485,-3.2082,-3.2753,-3.3333,-3.3848,-3.4244,-3.4582,-3.4865,-3.5049,-3.5246,-3.5457,-3.5457,-3.5489,-3.5489,-3.5489,-3.5489,-3.5489,-3.5489,-3.5489,-3.5489,-3.5489,-3.5489,-3.5489,-3.5489,-3.5489,-3.5489,-3.5489,-3.5489,-3.5489,-3.5489,-3.5489,-3.5489,-3.5489,-3.5489,-3.5489,-1.206,-1.2822,-1.3792,-1.4498,-1.5143,-1.6199,-1.6738,-1.6885,-1.7118,-1.7105,-1.6837,-1.6469,-1.6351,-1.6532,-1.6606,-1.6864,-1.7362,-1.8193,-1.9247,-2.0305,-2.1342,-2.2423,-2.3389,-2.4192,-2.4637,-2.4941,-2.5284,-2.5586,-2.5684,-2.5684,-2.5684,-2.5684,-2.5684,-2.5684,-2.5684,-2.5684,-2.5684,-2.583,-2.612,-2.64,-2.658,-2.6991,-2.7336,-2.7425,-2.7413,-2.7399,-2.7648,-2.777,-2.7869,-2.8219,-2.8578,-2.8882,-2.9157,-2.938,-2.9509,-2.9702,-2.9779,-2.9779,-2.9779,-2.9779,-2.9779,-2.9779,-2.9779,-2.9779,-2.9779,-2.9779,-2.9779,-2.9779,-2.9779,-2.9792,-2.9804,-2.9779,-2.9792,-2.9804,-2.9882,-3.0049,-3.0305,-3.0458,-3.0724,-3.1174,-3.1656,-3.23,-3.2966,-3.3472,-3.402,-3.4414,-3.4754,-3.4968,-3.5195,-3.5359,-3.5489,-3.5489,-3.5489,-3.5489,-3.5489,-3.5489,-3.5489,-3.5489,-3.5489,-3.5489,-3.5489,-3.5489,-3.5489,-3.5489,-3.5489,-3.5489,-3.5489,-3.5489,-3.5489,-3.5489,-3.5489,-3.5489,-3.5489,-3.5489,-3.5489,-1.1896,-1.255,-1.3678,-1.4487,-1.512,-1.6131,-1.6834,-1.7134,-1.7159,-1.6844,-1.6293,-1.6286,-1.625,-1.6225,-1.6447,-1.6824,-1.7315,-1.8123,-1.9121,-2.0192,-2.1136,-2.2238,-2.3169,-2.3908,-2.448,-2.4883,-2.5186,-2.5489,-2.5684,-2.5684,-2.5684,-2.5684,-2.5684,-2.5684,-2.5684,-2.5684,-2.5684,-2.5781,-2.6014,-2.6244,-2.6411,-2.6546,-2.68,-2.6868,-2.6844,-2.6919,-2.7108,-2.7273,-2.7551,-2.7898,-2.8271,-2.8657,-2.9013,-2.9275,-2.9521,-2.974,-2.9779,-2.9779,-2.9779,-2.9779,-2.9779,-2.9779,-2.9779,-2.9779,-2.9779,-2.9779,-2.9779,-2.9779,-2.9779,-2.9779,-2.9779,-2.9779,-2.9779,-2.9792,-2.9792,-3.0011,-3.0305,-3.0571,-3.0874,-3.1286,-3.1767,-3.2422,-3.3241,-3.3813,-3.4088,-3.4549,-3.4868,-3.5016,-3.5228,-3.5374,-3.5504,-3.5489,-3.5489,-3.5489,-3.5489,-3.5489,-3.5489,-3.5489,-3.5489,-3.5489,-3.5489,-3.5489,-3.5489,-3.5489,-3.5489,-3.5489,-3.5489,-3.5489,-3.5489,-3.5489,-3.5489,-3.5489,-3.5489,-3.5489,-3.5489,-1.1896,-1.2545,-1.3684,-1.4399,-1.4808,-1.5764,-1.6406,-1.677,-1.6677,-1.6442,-1.6315,-1.6046,-1.5973,-1.5974,-1.6393,-1.6683,-1.7135,-1.7787,-1.8714,-1.9757,-2.0782,-2.1896,-2.2863,-2.3691,-2.4344,-2.4833,-2.5186,-2.544,-2.5635,-2.5684,-2.5684,-2.5684,-2.5684,-2.5684,-2.5684,-2.5674,-2.5654,-2.5732,-2.5896,-2.5998,-2.6046,-2.617,-2.6227,-2.6146,-2.6279,-2.6388,-2.6546,-2.6994,-2.736,-2.7829,-2.8151,-2.8538,-2.9064,-2.917,-2.9326,-2.974,-2.9779,-2.9779,-2.9779,-2.9779,-2.9779,-2.9779,-2.9779,-2.9779,-2.9779,-2.9779,-2.9779,-2.9779,-2.9779,-2.9779,-2.9779,-2.9779,-2.9779,-2.9779,-2.9818,-3.0049,-3.0305,-3.052,-3.0861,-3.1508,-3.1986,-3.2674,-3.3452,-3.3779,-3.4088,-3.4616,-3.4968,-3.5115,-3.5261,-3.5439,-3.5504,-3.5504,-3.5489,-3.5489,-3.5489,-3.5489,-3.5489,-3.5489,-3.5489,-3.5489,-3.5489,-3.5489,-3.5489,-3.5489,-3.5489,-3.5489,-3.5489,-3.5489,-3.5489,-3.5489,-3.5489,-3.5489,-3.5489,-3.5489,-3.5489,-1.1846,-1.2421,-1.3548,-1.4372,-1.4987,-1.5513,-1.5985,-1.631,-1.6293,-1.6226,-1.6086,-1.5912,-1.5825,-1.5927,-1.6353,-1.6636,-1.6723,-1.765,-1.8582,-1.9344,-2.0431,-2.1548,-2.2584,-2.3462,-2.4196,-2.4686,-2.5088,-2.5284,-2.5586,-2.5684,-2.5684,-2.5684,-2.5684,-2.5684,-2.5635,-2.5547,-2.5439,-2.5487,-2.5592,-2.5664,-2.5681,-2.5603,-2.5443,-2.5537,-2.5731,-2.5892,-2.6148,-2.6663,-2.7196,-2.7667,-2.7938,-2.8419,-2.8986,-2.9248,-2.9417,-2.9792,-2.9779,-2.9779,-2.9779,-2.9779,-2.9779,-2.9779,-2.9779,-2.9779,-2.9779,-2.9779,-2.9779,-2.9779,-2.9779,-2.9779,-2.9779,-2.9779,-2.9779,-2.9779,-2.9934,-3.0088,-3.0267,-3.0444,-3.1011,-3.1716,-3.2336,-3.2945,-3.3452,-3.3744,-3.4122,-3.465,-3.4968,-3.5115,-3.5294,-3.5424,-3.5504,-3.5489,-3.5489,-3.5489,-3.5489,-3.5489,-3.5489,-3.5489,-3.5489,-3.5489,-3.5489,-3.5489,-3.5489,-3.5489,-3.5489,-3.5489,-3.5489,-3.5489,-3.5489,-3.5489,-3.5489,-3.5489,-3.5489,-3.5489,-3.5489,-1.1733,-1.2197,-1.3346,-1.4441,-1.5436,-1.5484,-1.5622,-1.5831,-1.6112,-1.6086,-1.5831,-1.5832,-1.5825,-1.592,-1.6346,-1.6588,-1.6918,-1.7628,-1.8388,-1.9051,-2.0247,-2.136,-2.2284,-2.3107,-2.4007,-2.4587,-2.499,-2.5235,-2.5586,-2.5684,-2.5684,-2.5684,-2.5684,-2.5635,-2.5537,-2.5312,-2.5146,-2.5057,-2.5016,-2.4982,-2.5086,-2.4907,-2.4696,-2.5013,-2.524,-2.5422,-2.5895,-2.6343,-2.688,-2.736,-2.7817,-2.8311,-2.8934,-2.9495,-2.9714,-2.9792,-2.9779,-2.9779,-2.9779,-2.9779,-2.9779,-2.9779,-2.9779,-2.9779,-2.9779,-2.9779,-2.9779,-2.9779,-2.9779,-2.9779,-2.9779,-2.9779,-2.9779,-2.9818,-2.9972,-3.0126,-3.033,-3.0672,-3.1272,-3.19,-3.2395,-3.3002,-3.3591,-3.3931,-3.4157,-3.4668,-3.4968,-3.5115,-3.5326,-3.5457,-3.5489,-3.5489,-3.5489,-3.5489,-3.5489,-3.5489,-3.5489,-3.5489,-3.5489,-3.5489,-3.5489,-3.5489,-3.5489,-3.5489,-3.5489,-3.5489,-3.5489,-3.5489,-3.5489,-3.5489,-3.5489,-3.5489,-3.5489,-3.5489,-3.5489,-1.1417,-1.1973,-1.33,-1.4506,-1.5422,-1.5267,-1.5441,-1.5784,-1.5892,-1.5905,-1.5784,-1.5825,-1.5825,-1.5872,-1.6346,-1.6588,-1.6824,-1.7621,-1.8225,-1.8965,-1.9989,-2.1094,-2.2083,-2.2934,-2.3912,-2.4597,-2.499,-2.5245,-2.5586,-2.5684,-2.5674,-2.5664,-2.5635,-2.5557,-2.5234,-2.5047,-2.4871,-2.458,-2.4343,-2.4271,-2.439,-2.4551,-2.4571,-2.4699,-2.4828,-2.5285,-2.5748,-2.626,-2.6869,-2.7441,-2.7748,-2.8311,-2.9052,-2.9507,-2.9753,-2.9779,-2.9779,-2.9779,-2.9779,-2.9779,-2.9779,-2.9779,-2.9779,-2.9779,-2.9779,-2.9779,-2.9779,-2.9779,-2.9779,-2.9779,-2.9779,-2.9779,-2.9779,-2.9895,-3.0011,-3.019,-3.0406,-3.0973,-3.1545,-3.2009,-3.2453,-3.3037,-3.366,-3.4054,-3.4278,-3.4549,-3.4802,-3.5049,-3.5326,-3.5489,-3.5489,-3.5489,-3.5489,-3.5489,-3.5489,-3.5489,-3.5489,-3.5489,-3.5489,-3.5489,-3.5489,-3.5489,-3.5489,-3.5489,-3.5489,-3.5489,-3.5489,-3.5489,-3.5489,-3.5489,-3.5489,-3.5489,-3.5489,-3.5489,-3.5489,-1.125,-1.1814,-1.3154,-1.4332,-1.5183,-1.5147,-1.5363,-1.573,-1.5825,-1.5825,-1.5825,-1.5825,-1.5825,-1.5872,-1.6353,-1.6588,-1.6777,-1.7667,-1.8094,-1.8738,-1.9714,-2.078,-2.1803,-2.2726,-2.3815,-2.4611,-2.5118,-2.5489,-2.5654,-2.5664,-2.5654,-2.5498,-2.541,-2.5225,-2.4824,-2.4619,-2.447,-2.4131,-2.3721,-2.3599,-2.3747,-2.3963,-2.4132,-2.4217,-2.47,-2.5147,-2.558,-2.6135,-2.6787,-2.7522,-2.8059,-2.8538,-2.9131,-2.9546,-2.974,-2.9779,-2.9779,-2.9779,-2.9779,-2.9779,-2.9779,-2.9779,-2.9779,-2.9779,-2.9779,-2.9779,-2.9779,-2.9779,-2.9779,-2.9779,-2.9779,-2.9779,-2.9779,-2.9818,-3.0113,-3.0368,-3.071,-3.1174,-3.1656,-3.2032,-3.2525,-3.3143,-3.366,-3.4005,-3.4278,-3.4668,-3.4902,-3.5082,-3.5326,-3.5489,-3.5489,-3.5489,-3.5489,-3.5489,-3.5489,-3.5489,-3.5489,-3.5489,-3.5489,-3.5489,-3.5489,-3.5489,-3.5489,-3.5489,-3.5489,-3.5489,-3.5489,-3.5489,-3.5489,-3.5489,-3.5489,-3.5489,-3.5489,-3.5489,-3.5489,-1.1221,-1.1809,-1.2997,-1.4124,-1.5035,-1.5131,-1.5363,-1.5784,-1.5825,-1.5825,-1.5825,-1.5825,-1.5825,-1.5967,-1.6298,-1.6494,-1.6871,-1.7473,-1.7846,-1.845,-1.9491,-2.0576,-2.1578,-2.2474,-2.363,-2.4681,-2.5323,-2.545,-2.5566,-2.5537,-2.5381,-2.5068,-2.4893,-2.4766,-2.4346,-2.4033,-2.3828,-2.3672,-2.3408,-2.3169,-2.3329,-2.3537,-2.3774,-2.4153,-2.4658,-2.5158,-2.5496,-2.5999,-2.6704,-2.7482,-2.8287,-2.8816,-2.917,-2.9534,-2.9702,-2.9779,-2.9779,-2.9779,-2.9779,-2.9779,-2.9779,-2.9779,-2.9779,-2.9779,-2.9779,-2.9779,-2.9779,-2.9779,-2.9779,-2.9779,-2.9779,-2.9779,-2.9779,-2.9856,-3.019,-3.0596,-3.0986,-3.1373,-3.1716,-3.2092,-3.2632,-3.3248,-3.3646,-3.3971,-3.4332,-3.4735,-3.5016,-3.5228,-3.5359,-3.5457,-3.5489,-3.5489,-3.5489,-3.5489,-3.5489,-3.5489,-3.5489,-3.5489,-3.5489,-3.5489,-3.5489,-3.5489,-3.5489,-3.5489,-3.5489,-3.5489,-3.5489,-3.5489,-3.5489,-3.5489,-3.5489,-3.5489,-3.5489,-3.5489,-3.5489,-1.1342,-1.2634,-1.3266,-1.4118,-1.5035,-1.5131,-1.5363,-1.5784,-1.5825,-1.5825,-1.5825,-1.5825,-1.5825,-1.5825,-1.6123,-1.6359,-1.6683,-1.7286,-1.7753,-1.828,-1.927,-2.0406,-2.1518,-2.2558,-2.3602,-2.4557,-2.5276,-2.545,-2.5254,-2.5176,-2.4971,-2.457,-2.4541,-2.4336,-2.3965,-2.3721,-2.3594,-2.3389,-2.3237,-2.3101,-2.3232,-2.3493,-2.3754,-2.4186,-2.47,-2.5031,-2.5454,-2.6135,-2.6704,-2.7441,-2.8327,-2.8934,-2.926,-2.9495,-2.974,-2.9779,-2.9779,-2.9779,-2.9779,-2.9779,-2.9779,-2.9779,-2.9779,-2.9779,-2.9779,-2.9779,-2.9779,-2.9779,-2.9779,-2.9779,-2.9779,-2.9779,-2.9779,-2.9921,-3.0177,-3.0672,-3.1123,-3.1434,-3.1767,-3.2214,-3.2739,-3.3283,-3.3779,-3.4108,-3.4467,-3.4802,-3.5034,-3.5246,-3.5424,-3.5457,-3.5489,-3.5489,-3.5489,-3.5489,-3.5489,-3.5489,-3.5489,-3.5489,-3.5489,-3.5489,-3.5489,-3.5489,-3.5489,-3.5489,-3.5489,-3.5489,-3.5489,-3.5489,-3.5489,-3.5489,-3.5489,-3.5489,-3.5459,-3.534,-3.5205]}]]